[[{"header":{"parameterUnit":"m.s-1","parameterCategory":1,"la1":31.0,"la2":29.5877,"lo1":-88.7671,"lo2":-86.6584,"dy":0.0162,"dx":0.0185,"nx":115,"ny":88,"refTime":"2024-05-29T12:00:00:Z","depth":0,"parameterNumber":2,"parameterNumberName":"U-component_of_WINDS"},"data":[0.0,0.0,0.0,0.0,0.0,0.0,0.0,0.0,0.0,0.0,0.0,0.0,0.0,0.0,0.0,0.0,0.0,0.0,0.0,0.0,0.0,0.0,0.0,0.0,0.0,0.0,0.0,0.0,0.0,0.0,0.0,0.0,0.0,0.0,0.0,0.0,0.0,0.0,0.0,0.0,0.0,0.0,0.0,0.0,0.0,0.0,0.0,0.0,0.0,0.0,0.0,0.0,0.0,0.0,0.0,0.0,0.0,0.0,0.0,0.0,0.0,0.0,0.0,0.0,0.0,0.0,0.0,0.0,0.0,0.0,0.0,0.0,0.0,0.0,0.0,0.0,0.0,0.0,0.0,0.0,0.0,0.0,0.0,0.0,0.0,0.0,0.0,0.0,0.0,0.0,0.0,0.0,0.0,0.0,0.0,0.0,0.0,0.0,0.0,0.0,0.0,0.0,0.0,0.0,0.0,0.0,0.0,0.0,0.0,0.0,0.0,0.0,0.0,0.0,0.0,0.0,0.0,0.0,0.0,0.0,0.0,0.0,0.0,0.0,0.0,0.0,0.0,0.0,0.0,0.0,0.0,0.0,0.0,0.0,0.0,0.0,0.0,0.0,0.0,0.0,0.0,0.0,0.0,0.0,0.0,0.0,0.0,0.0,0.0,0.0,0.0,0.0,0.0,0.0,0.0,0.0,0.0,0.0,0.0,0.0,0.0,0.0,0.0,0.0,0.0,0.0,0.0,0.0,0.0,0.0,0.0,0.0,0.0,0.0,0.0,0.0,0.0,0.0,0.0,0.0,0.0,0.0,0.0,0.0,0.0,0.0,0.0,0.0,0.0,0.0,0.0,0.0,0.0,0.0,0.0,0.0,0.0,0.0,0.0,0.0,0.0,0.0,0.0,0.0,0.0,0.0,0.0,0.0,0.0,0.0,0.0,0.0,0.0,0.0,0.0,0.0,0.0,0.0,0.0,0.0,0.0,0.0,0.0,0.0,0.0,0.0,0.0,0.0,0.0,0.0,0.0,0.0,0.0,0.0,0.0,0.0,0.0,0.0,0.0,0.0,0.0,0.0,0.0,0.0,0.0,0.0,0.0,0.0,0.0,0.0,0.0,0.0,0.0,0.0,0.0,0.0,0.0,0.0,0.0,0.0,0.0,0.0,0.0,0.0,0.0,0.0,0.0,0.0,0.0,0.0,0.0,0.0,0.0,0.0,0.0,0.0,0.0,0.0,0.0,0.0,0.0,0.0,0.0,0.0,0.0,0.0,0.0,0.0,0.0,0.0,0.0,0.0,0.0,0.0,0.0,0.0,0.0,0.0,0.0,0.0,0.0,0.0,0.0,0.0,0.0,0.0,0.0,0.0,0.0,0.0,0.0,0.0,0.0,0.0,0.0,0.0,0.0,0.0,0.0,0.0,0.0,0.0,0.0,0.0,0.0,0.0,0.0,0.0,0.0,0.0,0.0,0.0,0.0,0.0,0.0,0.0,0.0,0.0,0.0,0.0,0.0,0.0,0.0,0.0,0.0,0.0,0.0,0.0,0.0,0.0,0.0,0.0,0.0,0.0,0.0,0.0,0.0,0.0,0.0,0.0,0.0,0.0,0.0,0.0,0.0,0.0,0.0,0.0,0.0,0.0,0.0,0.0,0.0,0.0,0.0,0.0,0.0,0.0,0.0,0.0,0.0,0.0,0.0,0.0,0.0,0.0,0.0,0.0,0.0,0.0,0.0,0.0,0.0,0.0,0.0,0.0,0.0,0.0,0.0,0.0,0.0,0.0,0.0,0.0,0.0,0.0,0.0,0.0,0.0,0.0,0.0,0.0,0.0,0.0,0.0,0.0,0.0,0.0,0.0,0.0,0.0,0.0,0.0,0.0,0.0,0.0,0.0,0.0,0.0,0.0,0.0,0.0,0.0,0.0,0.0,0.0,0.0,0.0,0.0,0.0,0.0,0.0,0.0,0.0,0.0,0.0,0.0,0.0,0.0,0.0,0.0,0.0,0.0,0.0,0.0,0.0,0.0,0.0,0.0,0.0,0.0,0.0,0.0,0.0,0.0,0.0,0.0,0.0,0.0,0.0,0.0,0.0,0.0,0.0,0.0,0.0,0.0,0.0,0.0,0.0,0.0,0.0,0.0,0.0,0.0,0.0,0.0,0.0,0.0,0.0,0.0,0.0,0.0,0.0,0.0,0.0,0.0,0.0,0.0,0.0,0.0,0.0,0.0,0.0,0.0,0.0,0.0,0.0,0.0,0.0,0.0,0.0,0.0,0.0,0.0,0.0,0.0,0.0,0.0,0.0,0.0,0.0,0.0,0.0,0.0,0.0,0.0,0.0,0.0,0.0,0.0,0.0,0.0,0.0,0.0,0.0,0.0,0.0,0.0,0.0,0.0,0.0,0.0,0.0,0.0,0.0,0.0,0.0,0.0,0.0,0.0,0.0,0.0,0.0,0.0,0.0,0.0,0.0,0.0,0.0,0.0,0.0,0.0,0.0,0.0,0.0,0.0,0.0,0.0,0.0,0.0,0.0,0.0,0.0,0.0,0.0,0.0,0.0,0.0,0.0,0.0,0.0,0.0,0.0,0.0,0.0,0.0,0.0,0.0,0.0,0.0,0.0,0.0,0.0,0.0,0.0,0.0,0.0,0.0,0.0,0.0,0.0,0.0,0.0,0.0,0.0,0.0,0.0,0.0,0.0,0.0,0.0,0.0,0.0,0.0,0.0,0.0,0.0,0.0,0.0,0.0,0.0,0.0,0.0,0.0,0.0,0.0,0.0,0.0,0.0,0.0,0.0,0.0,0.0,0.0,0.0,0.0,0.0,0.0,0.0,0.0,0.0,0.0,0.0,0.0,0.0,0.0,0.0,0.0,0.0,0.0,0.0,0.0,0.0,0.0,0.0,0.0,0.0,0.0,0.0,0.0,0.0,0.0,0.0,0.0,0.0,0.0,0.0,0.0,0.0,0.0,0.0,0.0,0.0,0.0,0.0,0.0,0.0,0.0,0.0,0.0,0.0,0.0,0.0,0.0,0.0,0.0,0.0,0.0,0.0,0.0,0.0,0.0,0.0,0.0,0.0,0.0,0.0,0.0,0.0,0.0,0.0,0.0,0.0,0.0,0.0,0.0,0.0,0.0,0.0,0.0,0.0,0.0,0.0,0.0,0.0,0.0,0.0,0.0,0.0,0.0,0.0,0.0,0.0,0.0,0.0,0.0,0.0,0.0,0.0,0.0,0.0,0.0,0.0,0.0,0.0,0.0,0.0,0.0,0.0,0.0,0.0,0.0,0.0,0.0,0.0,0.0,0.0,0.0,0.0,0.0,0.0,0.0,0.0,0.0,0.0,0.0,0.0,0.0,0.0,0.0,0.0,0.0,0.0,0.0,0.0,0.0,0.0,0.0,0.0,0.0,0.0,0.0,0.0,0.0,0.0,0.0,0.0,0.0,0.0,0.0,0.0,0.0,0.0,0.0,0.0,0.0,0.0,0.0,0.0,0.0,0.0,0.0,0.0,0.0,0.0,0.0,0.0,0.0,0.0,0.0,0.0,0.0,0.0,0.0,0.0,0.0,0.0,0.0,0.0,0.0,0.0,0.0,0.0,0.0,0.0,0.0,0.0,0.0,0.0,0.0,0.0,0.0,0.0,0.0,0.0,0.0,0.0,0.0,0.0,0.0,0.0,0.0,0.0,0.0,0.0,0.0,0.0,0.0,0.0,0.0,0.0,0.0,0.0,0.0,0.0,0.0,0.0,0.0,0.0,0.0,0.0,0.0,0.0,0.0,0.0,0.0,0.0,0.0,0.0,0.0,0.0,0.0,0.0,0.0,0.0,0.0,0.0,0.0,0.0,0.0,0.0,0.0,0.0,0.0,0.0,0.0,0.0,0.0,0.0,0.0,0.0,0.0,0.0,0.0,0.0,0.0,0.0,0.0,0.0,0.0,0.0,0.0,0.0,0.0,0.0,0.0,0.0,0.0,0.0,0.0,0.0,0.0,0.0,0.0,0.0,0.0,0.0,0.0,0.0,0.0,0.0,0.0,0.0,0.0,0.0,0.0,0.0,0.0,0.0,0.0,0.0,0.0,0.0,0.0,0.0,0.0,0.0,0.0,0.0,0.0,0.0,0.0,0.0,0.0,0.0,0.0,0.0,0.0,0.0,0.0,0.0,0.0,0.0,0.0,0.0,0.0,0.0,0.0,0.0,0.0,0.0,0.0,0.0,0.0,0.0,0.0,0.0,0.0,0.0,0.0,0.0,0.0,0.0,0.0,0.0,-2.9535,0.0,0.0,0.0,0.0,0.0,0.0,0.0,0.0,0.0,0.0,0.0,0.0,0.0,0.0,0.0,0.0,0.0,0.0,0.0,0.0,0.0,0.0,0.0,0.0,0.0,0.0,0.0,0.0,0.0,0.0,0.0,0.0,0.0,0.0,0.0,0.0,0.0,0.0,0.0,0.0,0.0,0.0,0.0,0.0,0.0,0.0,0.0,0.0,0.0,0.0,0.0,0.0,0.0,0.0,0.0,0.0,0.0,0.0,0.0,0.0,0.0,0.0,0.0,0.0,0.0,0.0,0.0,0.0,0.0,0.0,0.0,0.0,0.0,0.0,0.0,0.0,0.0,0.0,0.0,0.0,0.0,0.0,0.0,0.0,0.0,0.0,0.0,0.0,0.0,0.0,0.0,0.0,0.0,0.0,0.0,0.0,0.0,0.0,0.0,0.0,0.0,0.0,0.0,0.0,0.0,0.0,0.0,0.0,0.0,0.0,-3.6191,-3.535,-3.496,-3.3565,-3.1015,0.0,0.0,0.0,0.0,0.0,0.0,0.0,0.0,0.0,0.0,0.0,0.0,0.0,0.0,0.0,0.0,0.0,0.0,0.0,0.0,0.0,0.0,0.0,0.0,0.0,0.0,0.0,0.0,0.0,0.0,0.0,0.0,0.0,0.0,0.0,0.0,0.0,0.0,0.0,0.0,0.0,0.0,0.0,0.0,0.0,0.0,0.0,0.0,0.0,0.0,0.0,0.0,0.0,0.0,0.0,0.0,0.0,0.0,0.0,0.0,0.0,0.0,0.0,0.0,0.0,0.0,0.0,0.0,0.0,0.0,0.0,0.0,0.0,0.0,0.0,0.0,0.0,0.0,0.0,0.0,0.0,0.0,0.0,0.0,0.0,0.0,0.0,0.0,0.0,0.0,0.0,0.0,0.0,0.0,0.0,0.0,0.0,0.0,0.0,0.0,0.0,0.0,0.0,0.0,0.0,0.0,0.0,0.0,0.0,0.0,0.0,0.0,-3.6362,-3.4902,-3.1992,0.0,0.0,0.0,0.0,0.0,0.0,0.0,0.0,0.0,0.0,0.0,0.0,0.0,0.0,0.0,0.0,0.0,0.0,0.0,0.0,0.0,0.0,0.0,0.0,0.0,0.0,0.0,0.0,0.0,0.0,0.0,0.0,0.0,0.0,0.0,0.0,0.0,0.0,0.0,0.0,0.0,0.0,0.0,0.0,0.0,0.0,0.0,0.0,0.0,0.0,0.0,0.0,0.0,0.0,0.0,0.0,0.0,0.0,0.0,0.0,0.0,0.0,0.0,0.0,0.0,0.0,0.0,0.0,0.0,0.0,0.0,0.0,0.0,0.0,0.0,0.0,0.0,0.0,0.0,0.0,0.0,0.0,0.0,0.0,0.0,0.0,0.0,0.0,0.0,0.0,0.0,0.0,0.0,0.0,0.0,0.0,0.0,0.0,0.0,0.0,0.0,0.0,0.0,0.0,0.0,0.0,0.0,0.0,0.0,0.0,-3.7386,-3.8133,-3.7513,0.0,-3.1309,0.0,0.0,0.0,0.0,0.0,0.0,0.0,0.0,0.0,0.0,0.0,0.0,0.0,0.0,0.0,0.0,0.0,0.0,0.0,0.0,0.0,0.0,0.0,0.0,0.0,0.0,0.0,0.0,0.0,0.0,0.0,0.0,0.0,0.0,0.0,0.0,0.0,0.0,0.0,0.0,0.0,0.0,0.0,0.0,0.0,0.0,0.0,0.0,0.0,0.0,0.0,0.0,0.0,0.0,0.0,0.0,0.0,0.0,0.0,0.0,0.0,0.0,0.0,0.0,0.0,0.0,0.0,0.0,0.0,0.0,0.0,0.0,0.0,0.0,0.0,0.0,0.0,0.0,0.0,0.0,0.0,0.0,0.0,0.0,0.0,0.0,0.0,0.0,0.0,0.0,0.0,0.0,0.0,0.0,0.0,0.0,0.0,0.0,0.0,0.0,0.0,0.0,0.0,0.0,0.0,0.0,0.0,0.0,0.0,0.0,-3.8712,-3.912,-3.7448,-3.5,0.0,0.0,0.0,0.0,0.0,0.0,0.0,0.0,0.0,0.0,0.0,0.0,0.0,0.0,0.0,0.0,0.0,0.0,0.0,0.0,0.0,0.0,0.0,0.0,0.0,0.0,0.0,0.0,0.0,0.0,0.0,0.0,0.0,0.0,0.0,0.0,0.0,0.0,0.0,0.0,0.0,0.0,0.0,0.0,0.0,0.0,0.0,0.0,0.0,0.0,0.0,0.0,0.0,0.0,0.0,0.0,0.0,0.0,0.0,0.0,0.0,0.0,0.0,0.0,0.0,0.0,0.0,0.0,0.0,0.0,0.0,0.0,0.0,0.0,0.0,0.0,0.0,0.0,0.0,0.0,0.0,0.0,0.0,0.0,0.0,0.0,0.0,0.0,0.0,0.0,0.0,0.0,0.0,0.0,0.0,0.0,0.0,0.0,0.0,0.0,0.0,0.0,0.0,0.0,0.0,0.0,0.0,0.0,0.0,0.0,-3.8778,-3.9711,-3.9876,-3.8064,-3.5485,-3.2262,0.0,0.0,0.0,0.0,0.0,0.0,0.0,0.0,0.0,0.0,0.0,0.0,0.0,0.0,0.0,0.0,0.0,0.0,0.0,0.0,0.0,0.0,0.0,0.0,0.0,0.0,0.0,0.0,0.0,0.0,0.0,0.0,0.0,0.0,0.0,0.0,0.0,0.0,0.0,0.0,0.0,0.0,0.0,0.0,0.0,0.0,0.0,0.0,0.0,0.0,0.0,0.0,0.0,0.0,0.0,0.0,0.0,0.0,0.0,0.0,0.0,0.0,0.0,0.0,0.0,0.0,0.0,0.0,0.0,0.0,0.0,0.0,0.0,0.0,0.0,0.0,0.0,0.0,0.0,0.0,0.0,0.0,0.0,0.0,0.0,0.0,0.0,0.0,0.0,0.0,0.0,0.0,0.0,0.0,0.0,0.0,0.0,0.0,0.0,0.0,0.0,0.0,0.0,0.0,0.0,0.0,0.0,0.0,0.0,-3.9578,-4.0044,-4.09,-4.0026,-3.717,0.0,0.0,0.0,0.0,0.0,0.0,0.0,0.0,0.0,0.0,0.0,0.0,0.0,0.0,0.0,0.0,0.0,0.0,0.0,0.0,0.0,0.0,0.0,0.0,0.0,0.0,0.0,0.0,0.0,0.0,0.0,0.0,0.0,0.0,0.0,0.0,0.0,0.0,0.0,0.0,0.0,0.0,0.0,0.0,0.0,0.0,0.0,0.0,0.0,0.0,0.0,0.0,0.0,0.0,0.0,0.0,0.0,0.0,0.0,0.0,0.0,0.0,0.0,0.0,0.0,0.0,0.0,0.0,0.0,0.0,0.0,0.0,0.0,0.0,0.0,0.0,0.0,0.0,0.0,0.0,0.0,0.0,0.0,0.0,0.0,0.0,0.0,0.0,0.0,0.0,0.0,0.0,0.0,0.0,0.0,0.0,0.0,0.0,0.0,0.0,0.0,0.0,0.0,0.0,0.0,0.0,0.0,0.0,0.0,-3.805,-4.0113,-4.1683,-4.2526,-3.9714,-3.6684,0.0,0.0,0.0,0.0,0.0,0.0,0.0,0.0,0.0,0.0,0.0,0.0,0.0,0.0,0.0,0.0,0.0,0.0,0.0,0.0,0.0,0.0,0.0,0.0,0.0,0.0,0.0,0.0,0.0,0.0,0.0,0.0,0.0,0.0,0.0,0.0,0.0,0.0,0.0,0.0,0.0,0.0,0.0,0.0,0.0,0.0,0.0,0.0,0.0,0.0,0.0,0.0,0.0,0.0,0.0,0.0,0.0,0.0,0.0,0.0,0.0,0.0,0.0,0.0,0.0,0.0,0.0,0.0,0.0,0.0,0.0,0.0,0.0,0.0,0.0,0.0,0.0,0.0,0.0,0.0,0.0,0.0,0.0,0.0,0.0,0.0,0.0,0.0,0.0,0.0,0.0,0.0,0.0,0.0,0.0,0.0,0.0,0.0,0.0,0.0,0.0,0.0,0.0,0.0,0.0,0.0,0.0,0.0,0.0,-3.875,0.0,-4.301,0.0,-3.977,-3.675,0.0,0.0,0.0,0.0,0.0,0.0,0.0,0.0,0.0,0.0,0.0,0.0,0.0,0.0,0.0,0.0,0.0,0.0,0.0,0.0,0.0,0.0,0.0,0.0,0.0,0.0,0.0,0.0,0.0,0.0,0.0,0.0,0.0,0.0,0.0,0.0,0.0,0.0,0.0,0.0,0.0,0.0,0.0,0.0,0.0,0.0,0.0,0.0,0.0,0.0,0.0,0.0,0.0,0.0,0.0,0.0,0.0,0.0,0.0,0.0,0.0,0.0,0.0,0.0,0.0,0.0,0.0,0.0,0.0,0.0,0.0,0.0,0.0,0.0,0.0,0.0,0.0,0.0,0.0,0.0,0.0,0.0,0.0,0.0,0.0,0.0,0.0,0.0,0.0,0.0,0.0,0.0,0.0,0.0,0.0,0.0,0.0,0.0,0.0,0.0,0.0,0.0,0.0,0.0,0.0,0.0,0.0,0.0,-3.7929,-4.1875,-4.3685,-4.3819,-4.2172,-4.0441,-3.7502,0.0,0.0,0.0,0.0,0.0,0.0,0.0,0.0,0.0,0.0,0.0,0.0,0.0,0.0,0.0,0.0,0.0,0.0,0.0,0.0,0.0,0.0,0.0,0.0,0.0,0.0,0.0,0.0,0.0,0.0,0.0,0.0,0.0,0.0,0.0,0.0,0.0,0.0,0.0,0.0,0.0,0.0,0.0,0.0,0.0,0.0,0.0,0.0,0.0,0.0,0.0,0.0,0.0,0.0,0.0,0.0,0.0,0.0,0.0,0.0,0.0,0.0,0.0,0.0,0.0,0.0,0.0,0.0,0.0,0.0,0.0,0.0,0.0,0.0,0.0,0.0,0.0,0.0,0.0,0.0,0.0,0.0,0.0,0.0,0.0,0.0,0.0,0.0,0.0,0.0,0.0,0.0,0.0,0.0,0.0,0.0,0.0,0.0,0.0,0.0,0.0,0.0,0.0,0.0,0.0,0.0,0.0,0.0,0.0,-4.1237,-4.2838,-4.3747,-4.3779,-4.047,-3.7705,0.0,0.0,0.0,0.0,0.0,0.0,0.0,0.0,0.0,0.0,0.0,0.0,0.0,0.0,0.0,0.0,0.0,0.0,0.0,0.0,0.0,0.0,0.0,0.0,0.0,0.0,0.0,0.0,0.0,0.0,0.0,0.0,0.0,0.0,0.0,0.0,0.0,0.0,0.0,0.0,0.0,0.0,0.0,0.0,0.0,0.0,0.0,0.0,0.0,0.0,0.0,0.0,0.0,0.0,0.0,0.0,0.0,0.0,0.0,0.0,0.0,0.0,0.0,0.0,0.0,0.0,0.0,0.0,0.0,0.0,0.0,0.0,0.0,0.0,0.0,0.0,0.0,0.0,0.0,0.0,0.0,0.0,0.0,0.0,0.0,0.0,0.0,0.0,0.0,0.0,0.0,0.0,0.0,0.0,0.0,0.0,0.0,0.0,0.0,0.0,0.0,0.0,0.0,0.0,0.0,0.0,0.0,0.0,0.0,-4.233,-4.3552,-4.4196,-4.4214,-4.0639,-3.8146,-3.6861,0.0,0.0,0.0,0.0,0.0,0.0,0.0,0.0,0.0,0.0,0.0,0.0,0.0,0.0,0.0,0.0,0.0,0.0,0.0,0.0,0.0,0.0,0.0,0.0,0.0,0.0,0.0,0.0,0.0,0.0,0.0,0.0,0.0,0.0,0.0,0.0,0.0,0.0,0.0,0.0,0.0,0.0,0.0,0.0,0.0,0.0,0.0,0.0,0.0,0.0,0.0,0.0,0.0,0.0,0.0,0.0,0.0,0.0,0.0,0.0,0.0,0.0,0.0,0.0,0.0,0.0,0.0,0.0,0.0,0.0,0.0,0.0,0.0,0.0,0.0,0.0,0.0,0.0,0.0,0.0,0.0,0.0,0.0,0.0,0.0,0.0,0.0,0.0,0.0,0.0,0.0,0.0,0.0,0.0,0.0,0.0,0.0,0.0,0.0,0.0,0.0,0.0,0.0,0.0,0.0,0.0,0.0,0.0,-4.4563,-4.5451,-4.5148,-4.3622,-4.1103,-3.8899,0.0,0.0,0.0,0.0,0.0,0.0,0.0,0.0,0.0,0.0,0.0,0.0,0.0,0.0,0.0,0.0,0.0,0.0,0.0,0.0,0.0,0.0,0.0,0.0,0.0,0.0,0.0,0.0,0.0,0.0,0.0,0.0,0.0,0.0,0.0,0.0,0.0,0.0,0.0,0.0,0.0,0.0,0.0,0.0,0.0,0.0,0.0,0.0,0.0,0.0,0.0,0.0,0.0,0.0,0.0,0.0,0.0,0.0,0.0,0.0,0.0,0.0,0.0,0.0,0.0,0.0,0.0,0.0,0.0,0.0,0.0,0.0,0.0,0.0,0.0,0.0,0.0,0.0,0.0,0.0,0.0,0.0,0.0,0.0,0.0,0.0,0.0,0.0,0.0,0.0,0.0,0.0,0.0,0.0,0.0,0.0,0.0,0.0,0.0,0.0,0.0,0.0,0.0,0.0,0.0,0.0,0.0,0.0,0.0,-4.3308,-4.4995,-4.574,-4.5333,-4.2788,-4.0634,0.0,0.0,0.0,0.0,0.0,0.0,0.0,0.0,0.0,0.0,0.0,0.0,0.0,0.0,0.0,0.0,0.0,0.0,0.0,0.0,0.0,0.0,0.0,0.0,0.0,0.0,0.0,0.0,0.0,0.0,0.0,0.0,0.0,0.0,0.0,0.0,0.0,0.0,0.0,0.0,0.0,0.0,0.0,0.0,0.0,0.0,0.0,0.0,0.0,0.0,0.0,0.0,0.0,0.0,0.0,0.0,0.0,0.0,0.0,0.0,0.0,0.0,0.0,0.0,0.0,0.0,0.0,0.0,0.0,0.0,0.0,0.0,0.0,0.0,0.0,0.0,0.0,0.0,0.0,0.0,0.0,0.0,0.0,0.0,0.0,0.0,0.0,0.0,0.0,0.0,0.0,0.0,0.0,0.0,0.0,0.0,0.0,0.0,0.0,0.0,0.0,0.0,0.0,0.0,0.0,0.0,0.0,0.0,-4.2683,-4.3833,-4.5204,-4.5961,-4.6112,-4.3888,-4.173,0.0,0.0,0.0,0.0,0.0,0.0,0.0,0.0,0.0,0.0,0.0,0.0,0.0,0.0,0.0,0.0,0.0,0.0,0.0,0.0,0.0,0.0,0.0,0.0,0.0,0.0,0.0,0.0,0.0,0.0,0.0,0.0,0.0,0.0,0.0,0.0,0.0,0.0,0.0,0.0,0.0,0.0,0.0,0.0,0.0,0.0,0.0,0.0,0.0,0.0,0.0,0.0,0.0,0.0,0.0,0.0,0.0,0.0,0.0,0.0,0.0,0.0,0.0,0.0,0.0,0.0,0.0,0.0,0.0,0.0,0.0,0.0,0.0,0.0,0.0,0.0,0.0,0.0,0.0,0.0,0.0,0.0,0.0,0.0,0.0,0.0,0.0,0.0,0.0,0.0,0.0,0.0,0.0,0.0,0.0,0.0,0.0,0.0,0.0,0.0,0.0,0.0,0.0,0.0,0.0,0.0,0.0,0.0,-4.3152,-4.5044,-4.5608,-4.5897,-4.5924,-4.4413,-4.243,0.0,0.0,0.0,0.0,0.0,0.0,0.0,0.0,0.0,0.0,0.0,0.0,0.0,0.0,0.0,0.0,0.0,0.0,0.0,0.0,0.0,0.0,0.0,0.0,0.0,0.0,0.0,0.0,0.0,0.0,0.0,0.0,0.0,0.0,0.0,0.0,0.0,0.0,0.0,0.0,0.0,0.0,0.0,0.0,0.0,0.0,0.0,0.0,0.0,0.0,0.0,0.0,0.0,0.0,0.0,0.0,0.0,0.0,0.0,0.0,0.0,0.0,0.0,0.0,0.0,0.0,0.0,0.0,0.0,0.0,0.0,0.0,0.0,0.0,0.0,0.0,0.0,0.0,0.0,0.0,0.0,0.0,0.0,0.0,0.0,0.0,0.0,0.0,0.0,0.0,0.0,0.0,0.0,0.0,0.0,0.0,0.0,0.0,0.0,0.0,0.0,0.0,0.0,0.0,0.0,0.0,0.0,0.0,-4.3264,-4.3729,-4.5109,-4.5553,-4.5013,-4.4101,-4.2734,0.0,0.0,0.0,0.0,0.0,0.0,0.0,0.0,0.0,0.0,0.0,0.0,0.0,0.0,0.0,0.0,0.0,0.0,0.0,0.0,0.0,0.0,0.0,0.0,0.0,0.0,0.0,0.0,0.0,0.0,0.0,0.0,0.0,0.0,0.0,0.0,0.0,0.0,0.0,0.0,0.0,0.0,0.0,0.0,0.0,0.0,0.0,0.0,-3.6125,0.0,0.0,0.0,0.0,0.0,0.0,0.0,0.0,0.0,0.0,0.0,0.0,0.0,0.0,0.0,0.0,0.0,0.0,0.0,0.0,0.0,0.0,0.0,0.0,0.0,0.0,0.0,0.0,0.0,0.0,0.0,0.0,0.0,0.0,0.0,0.0,0.0,0.0,0.0,0.0,0.0,0.0,0.0,0.0,0.0,0.0,0.0,0.0,0.0,0.0,0.0,0.0,0.0,0.0,0.0,0.0,0.0,0.0,0.0,-4.3342,-4.392,-4.4988,-4.5272,-4.4602,-4.3907,-4.2551,0.0,0.0,0.0,0.0,0.0,0.0,0.0,0.0,0.0,0.0,0.0,0.0,0.0,0.0,0.0,0.0,0.0,0.0,0.0,0.0,0.0,0.0,0.0,0.0,0.0,0.0,0.0,0.0,0.0,0.0,0.0,0.0,0.0,0.0,0.0,0.0,0.0,0.0,0.0,0.0,0.0,0.0,0.0,0.0,0.0,0.0,0.0,0.0,0.0,0.0,0.0,0.0,0.0,0.0,0.0,0.0,0.0,0.0,0.0,0.0,0.0,0.0,0.0,0.0,0.0,0.0,0.0,0.0,0.0,0.0,0.0,0.0,0.0,0.0,0.0,0.0,0.0,0.0,0.0,0.0,0.0,0.0,0.0,0.0,0.0,0.0,0.0,0.0,0.0,0.0,0.0,0.0,0.0,0.0,0.0,0.0,0.0,0.0,0.0,0.0,0.0,0.0,0.0,0.0,0.0,0.0,0.0,-4.1886,-4.3245,-4.4536,-4.5039,-4.4969,-4.4305,-4.3714,-4.2144,-3.957,0.0,0.0,0.0,0.0,0.0,0.0,0.0,0.0,0.0,0.0,0.0,0.0,0.0,0.0,0.0,0.0,0.0,0.0,0.0,0.0,0.0,0.0,0.0,0.0,0.0,0.0,0.0,0.0,0.0,0.0,0.0,0.0,0.0,0.0,0.0,0.0,0.0,0.0,-3.1568,-3.4558,0.0,0.0,0.0,0.0,0.0,0.0,0.0,0.0,-3.7514,0.0,0.0,0.0,0.0,0.0,0.0,0.0,0.0,0.0,0.0,0.0,0.0,0.0,0.0,0.0,0.0,0.0,0.0,0.0,0.0,0.0,0.0,0.0,0.0,0.0,0.0,0.0,0.0,0.0,0.0,0.0,0.0,0.0,0.0,0.0,0.0,0.0,0.0,0.0,0.0,0.0,0.0,0.0,0.0,0.0,0.0,0.0,0.0,0.0,0.0,0.0,0.0,0.0,0.0,0.0,0.0,-4.1252,-4.1628,-4.2702,-4.4555,-4.4939,-4.4603,-4.3486,-4.3291,-4.1718,-3.8637,0.0,0.0,0.0,0.0,0.0,0.0,0.0,0.0,0.0,0.0,0.0,0.0,0.0,0.0,0.0,0.0,0.0,0.0,0.0,0.0,0.0,0.0,0.0,0.0,0.0,0.0,0.0,0.0,0.0,0.0,0.0,0.0,0.0,0.0,0.0,0.0,0.0,0.0,0.0,-3.688,-3.8575,0.0,0.0,0.0,0.0,0.0,0.0,0.0,0.0,-3.8036,0.0,0.0,0.0,0.0,0.0,0.0,0.0,0.0,0.0,0.0,0.0,0.0,0.0,0.0,0.0,0.0,0.0,0.0,0.0,0.0,0.0,0.0,0.0,0.0,0.0,0.0,0.0,0.0,0.0,0.0,0.0,0.0,0.0,0.0,0.0,0.0,0.0,0.0,0.0,0.0,0.0,0.0,0.0,0.0,0.0,0.0,0.0,0.0,0.0,0.0,0.0,0.0,0.0,0.0,0.0,-3.9873,-4.167,-4.3128,-4.4257,-4.421,-4.3749,-4.2851,-4.2171,-4.0635,0.0,0.0,0.0,0.0,0.0,0.0,0.0,0.0,0.0,0.0,0.0,0.0,0.0,0.0,0.0,0.0,0.0,0.0,0.0,0.0,0.0,0.0,0.0,0.0,0.0,0.0,0.0,0.0,0.0,0.0,0.0,0.0,0.0,0.0,0.0,0.0,0.0,0.0,0.0,0.0,-3.7238,-3.8524,-3.9921,0.0,0.0,0.0,0.0,0.0,0.0,-3.7928,-3.7728,0.0,0.0,0.0,0.0,0.0,0.0,0.0,0.0,0.0,0.0,0.0,0.0,0.0,0.0,0.0,0.0,0.0,0.0,0.0,0.0,0.0,0.0,0.0,0.0,0.0,0.0,0.0,0.0,0.0,0.0,0.0,0.0,0.0,0.0,0.0,0.0,0.0,0.0,0.0,0.0,0.0,0.0,0.0,0.0,0.0,0.0,0.0,0.0,0.0,0.0,0.0,0.0,0.0,0.0,0.0,-3.8531,-4.1343,-4.3137,-4.3703,-4.339,-4.2875,-4.218,-4.1141,-3.9731,0.0,0.0,0.0,0.0,0.0,0.0,0.0,0.0,0.0,0.0,0.0,0.0,0.0,0.0,0.0,0.0,0.0,0.0,0.0,0.0,0.0,0.0,0.0,0.0,0.0,0.0,0.0,0.0,0.0,0.0,0.0,0.0,0.0,0.0,0.0,0.0,0.0,0.0,0.0,0.0,0.0,-3.8754,-3.9965,-3.9771,0.0,0.0,0.0,0.0,-3.813,-3.7845,0.0,0.0,0.0,0.0,0.0,0.0,0.0,0.0,0.0,0.0,0.0,0.0,0.0,0.0,0.0,0.0,0.0,0.0,0.0,0.0,0.0,0.0,0.0,0.0,0.0,0.0,0.0,0.0,0.0,0.0,0.0,0.0,0.0,0.0,0.0,0.0,0.0,0.0,0.0,0.0,0.0,0.0,0.0,0.0,0.0,0.0,0.0,0.0,0.0,0.0,0.0,0.0,0.0,0.0,0.0,0.0,-3.8441,-3.9876,-4.1349,-4.2847,-4.2883,-4.2307,-4.1135,-4.0935,-3.9813,0.0,0.0,0.0,0.0,0.0,0.0,0.0,0.0,0.0,0.0,0.0,0.0,0.0,0.0,0.0,0.0,0.0,0.0,0.0,0.0,0.0,0.0,0.0,0.0,0.0,0.0,0.0,0.0,0.0,0.0,0.0,0.0,0.0,0.0,0.0,0.0,0.0,0.0,0.0,0.0,0.0,-4.0499,-4.0904,-4.0905,-4.0572,0.0,0.0,-3.87,-3.8909,-3.8337,0.0,0.0,0.0,0.0,0.0,0.0,0.0,0.0,0.0,0.0,0.0,0.0,0.0,0.0,0.0,0.0,0.0,0.0,0.0,0.0,0.0,0.0,0.0,0.0,0.0,0.0,0.0,0.0,0.0,0.0,0.0,0.0,0.0,0.0,0.0,0.0,0.0,0.0,0.0,0.0,0.0,0.0,0.0,0.0,0.0,0.0,0.0,0.0,0.0,0.0,0.0,0.0,0.0,0.0,0.0,-3.5609,-3.7143,-3.9192,-4.0758,-4.1788,-4.1534,-4.1124,-4.0557,-3.9385,-3.8053,0.0,0.0,0.0,0.0,0.0,0.0,0.0,0.0,0.0,0.0,0.0,0.0,0.0,0.0,0.0,0.0,0.0,0.0,0.0,0.0,0.0,0.0,0.0,0.0,0.0,0.0,0.0,0.0,0.0,0.0,0.0,0.0,0.0,0.0,0.0,0.0,0.0,0.0,0.0,0.0,0.0,0.0,-4.0998,-4.1113,0.0,0.0,0.0,-3.8915,-3.9464,0.0,0.0,0.0,0.0,0.0,0.0,0.0,0.0,0.0,0.0,0.0,0.0,0.0,0.0,0.0,0.0,0.0,0.0,0.0,0.0,0.0,0.0,0.0,0.0,0.0,0.0,0.0,0.0,0.0,0.0,0.0,0.0,0.0,0.0,0.0,0.0,0.0,0.0,0.0,0.0,0.0,0.0,0.0,0.0,0.0,0.0,0.0,0.0,0.0,0.0,0.0,0.0,0.0,0.0,0.0,0.0,0.0,-3.6132,-3.8724,-4.0329,-4.0783,-4.0399,-4.0117,-3.9876,-3.814,0.0,0.0,0.0,0.0,0.0,0.0,0.0,0.0,0.0,0.0,0.0,0.0,0.0,0.0,0.0,0.0,0.0,0.0,0.0,0.0,0.0,0.0,0.0,0.0,0.0,0.0,0.0,-2.629,0.0,0.0,0.0,0.0,0.0,0.0,0.0,0.0,0.0,0.0,0.0,0.0,0.0,0.0,-3.969,-4.0598,-4.0849,-4.0956,0.0,0.0,-3.8967,-3.9517,-3.8748,-3.7701,0.0,0.0,0.0,0.0,0.0,0.0,0.0,0.0,0.0,0.0,0.0,0.0,0.0,0.0,0.0,0.0,0.0,0.0,0.0,0.0,0.0,0.0,0.0,0.0,0.0,0.0,0.0,0.0,0.0,0.0,0.0,0.0,0.0,0.0,0.0,0.0,0.0,0.0,0.0,0.0,0.0,0.0,0.0,0.0,0.0,0.0,0.0,0.0,0.0,0.0,0.0,0.0,0.0,0.0,0.0,-3.6113,-3.8385,-3.9677,-3.996,-3.9932,-3.958,-3.8811,-3.7938,-3.6856,0.0,0.0,0.0,0.0,0.0,0.0,0.0,0.0,0.0,0.0,0.0,0.0,0.0,0.0,0.0,0.0,0.0,0.0,0.0,0.0,0.0,0.0,0.0,0.0,0.0,0.0,0.0,0.0,0.0,0.0,0.0,0.0,0.0,0.0,0.0,0.0,0.0,0.0,0.0,0.0,0.0,-3.8957,-3.9532,-4.021,-4.0546,0.0,0.0,-3.8933,-3.8795,-3.8723,-3.8098,-3.6541,0.0,0.0,0.0,0.0,0.0,0.0,0.0,0.0,0.0,0.0,0.0,0.0,0.0,0.0,0.0,0.0,0.0,0.0,0.0,0.0,0.0,0.0,0.0,0.0,0.0,0.0,0.0,0.0,0.0,0.0,0.0,0.0,0.0,0.0,0.0,0.0,0.0,0.0,0.0,0.0,0.0,0.0,0.0,0.0,0.0,0.0,0.0,0.0,0.0,0.0,0.0,0.0,0.0,-3.3442,-3.4928,-3.7023,-3.8292,-3.8655,-3.9004,-3.9019,-3.8707,-3.7422,-3.6264,0.0,0.0,0.0,0.0,0.0,0.0,0.0,0.0,0.0,0.0,0.0,0.0,0.0,0.0,0.0,0.0,0.0,0.0,0.0,0.0,0.0,0.0,0.0,0.0,0.0,0.0,0.0,0.0,-2.837,-2.8417,-2.9125,0.0,0.0,0.0,0.0,0.0,0.0,0.0,0.0,0.0,0.0,-3.8893,-3.9431,-3.9757,0.0,0.0,-3.941,-3.8719,-3.912,-3.9011,-3.8183,-3.6131,-3.6507,0.0,0.0,0.0,0.0,0.0,0.0,0.0,0.0,0.0,0.0,0.0,0.0,0.0,0.0,0.0,0.0,0.0,0.0,0.0,0.0,0.0,0.0,0.0,0.0,0.0,0.0,0.0,0.0,0.0,0.0,0.0,0.0,0.0,0.0,0.0,0.0,0.0,0.0,0.0,0.0,0.0,0.0,0.0,0.0,0.0,0.0,0.0,0.0,0.0,0.0,0.0,0.0,-3.2932,-3.4185,-3.6032,-3.7267,-3.7876,-3.8267,-3.8528,-3.8655,-3.7147,-3.5899,0.0,0.0,0.0,0.0,0.0,0.0,0.0,0.0,0.0,0.0,0.0,0.0,0.0,0.0,0.0,0.0,0.0,0.0,0.0,0.0,0.0,0.0,0.0,0.0,0.0,0.0,0.0,0.0,-2.9331,-2.9617,-3.0345,0.0,0.0,0.0,0.0,0.0,0.0,0.0,0.0,0.0,0.0,-3.8511,-3.8678,-3.9066,-3.9445,-3.9705,-3.8787,-3.8229,-3.8746,-3.8611,-3.7811,-3.5911,0.0,0.0,0.0,0.0,0.0,0.0,0.0,0.0,0.0,0.0,0.0,0.0,0.0,0.0,0.0,0.0,0.0,0.0,0.0,0.0,0.0,0.0,0.0,0.0,0.0,0.0,0.0,-3.3389,0.0,0.0,-2.9461,0.0,0.0,0.0,0.0,0.0,0.0,0.0,0.0,0.0,0.0,0.0,0.0,0.0,0.0,0.0,0.0,0.0,0.0,0.0,0.0,0.0,0.0,-3.2895,-3.4166,-3.5674,-3.6904,-3.7842,-3.7893,-3.8148,-3.8624,-3.7114,-3.5885,-3.494,0.0,0.0,0.0,0.0,0.0,0.0,0.0,0.0,0.0,0.0,0.0,0.0,0.0,0.0,0.0,0.0,0.0,0.0,0.0,0.0,0.0,0.0,0.0,0.0,0.0,0.0,-3.0091,-3.0091,-3.0359,0.0,0.0,0.0,0.0,0.0,0.0,0.0,0.0,0.0,0.0,-3.6508,-3.7642,-3.6994,-3.8095,-3.8649,-3.775,-3.7555,-3.7471,-3.7307,-3.7261,-3.6925,0.0,0.0,0.0,0.0,0.0,0.0,0.0,0.0,0.0,0.0,0.0,0.0,0.0,0.0,0.0,0.0,0.0,0.0,0.0,0.0,0.0,0.0,0.0,0.0,0.0,0.0,0.0,-3.4771,-3.3415,0.0,0.0,0.0,0.0,0.0,0.0,0.0,0.0,0.0,0.0,0.0,-3.3051,-3.3744,0.0,0.0,0.0,0.0,0.0,0.0,0.0,0.0,0.0,0.0,0.0,0.0,-3.2747,-3.3717,-3.547,-3.6563,-3.6904,-3.7248,-3.7524,-3.7667,-3.6159,-3.4438,-3.2594,0.0,0.0,0.0,0.0,0.0,0.0,0.0,0.0,0.0,0.0,0.0,0.0,0.0,0.0,0.0,0.0,0.0,0.0,0.0,0.0,0.0,0.0,0.0,0.0,0.0,-3.0294,0.0,0.0,0.0,0.0,0.0,0.0,0.0,0.0,0.0,0.0,0.0,-3.5436,-3.5966,-3.711,-3.7635,-3.6914,-3.7218,-3.7407,0.0,0.0,0.0,0.0,0.0,0.0,0.0,0.0,0.0,0.0,0.0,0.0,0.0,0.0,-3.3146,-3.2357,-3.2199,-3.1998,-3.1383,0.0,0.0,0.0,0.0,0.0,0.0,0.0,0.0,0.0,0.0,0.0,0.0,0.0,0.0,-3.4674,0.0,-3.2866,0.0,0.0,0.0,0.0,0.0,0.0,0.0,0.0,-3.3054,-3.3668,-3.3747,-3.4487,-3.4579,0.0,-3.4361,-3.4258,0.0,0.0,0.0,0.0,0.0,0.0,0.0,0.0,-3.2916,-3.344,-3.5194,-3.6224,-3.6395,-3.6744,-3.7001,-3.7174,-3.5651,-3.3776,-3.158,-3.028,-2.9334,0.0,0.0,0.0,0.0,0.0,0.0,0.0,0.0,0.0,0.0,0.0,0.0,0.0,0.0,0.0,0.0,0.0,0.0,0.0,0.0,0.0,0.0,0.0,-3.0588,0.0,0.0,0.0,0.0,0.0,0.0,0.0,0.0,0.0,-3.4103,-3.5245,-3.6299,-3.7077,-3.7601,-3.7635,-3.6914,0.0,0.0,0.0,0.0,0.0,0.0,0.0,-3.6513,-3.5492,-3.6069,-3.6247,-3.5088,-3.473,-3.4618,-3.4484,0.0,0.0,-3.3151,-3.3012,-3.2906,-3.2563,-3.2487,-3.2453,-3.2299,-3.2507,-3.2443,0.0,0.0,0.0,0.0,0.0,0.0,0.0,0.0,-3.492,-3.4569,0.0,-3.3048,0.0,0.0,0.0,0.0,0.0,-3.2512,0.0,0.0,-3.4529,-3.5119,-3.4589,-3.5235,-3.557,-3.5629,-3.6278,-3.586,-3.4553,-3.3064,0.0,0.0,0.0,0.0,0.0,0.0,-3.3419,-3.3491,-3.4895,-3.5871,-3.635,-3.6392,-3.6586,-3.7008,-3.556,-3.3846,-3.2016,-3.108,-2.9937,-2.8456,-2.8049,0.0,0.0,0.0,0.0,0.0,0.0,0.0,0.0,0.0,0.0,0.0,0.0,0.0,0.0,0.0,0.0,0.0,0.0,0.0,0.0,-3.0309,0.0,0.0,0.0,0.0,0.0,0.0,0.0,0.0,0.0,0.0,-3.5367,-3.6297,-3.707,-3.7706,0.0,0.0,0.0,0.0,-3.6508,-3.5718,-3.5616,-3.5616,-3.5616,-3.5616,-3.5639,-3.5605,0.0,0.0,-3.5263,-3.5235,-3.5124,-3.4835,-3.4713,-3.4607,-3.3835,-3.3743,-3.3757,-3.3693,-3.3652,-3.3513,-3.2876,-3.3185,-3.3088,-3.4174,0.0,0.0,0.0,0.0,-3.4166,-3.4441,-3.4841,-3.5173,-3.4967,-3.433,-3.3107,0.0,0.0,0.0,0.0,0.0,0.0,-3.3185,-3.3949,-3.4511,-3.4937,-3.524,-3.5428,-3.5537,-3.5552,-3.5735,-3.5399,-3.4519,-3.3619,-3.2687,-3.1746,0.0,0.0,0.0,0.0,-3.3695,-3.4213,-3.5131,-3.5672,-3.581,-3.5849,-3.5646,-3.529,-3.4326,-3.3268,-3.2207,-3.0946,-3.0057,-2.9595,-2.8978,0.0,0.0,0.0,0.0,0.0,0.0,0.0,0.0,0.0,0.0,0.0,0.0,0.0,0.0,0.0,0.0,0.0,0.0,0.0,-2.9098,-2.9625,-3.0038,0.0,0.0,0.0,0.0,0.0,0.0,0.0,0.0,0.0,-3.55,-3.6732,-3.7202,0.0,0.0,-3.7415,-3.6129,-3.596,-3.5876,-3.565,-3.5616,0.0,-3.5616,-3.5616,-3.5616,-3.5616,-3.5616,-3.5582,-3.5511,-3.4899,-3.4426,-3.4319,-3.3687,-3.3108,-3.2993,-3.3633,-3.3848,-3.316,-3.3357,-3.3625,-3.3178,-3.3451,-3.3605,-3.3064,-3.3717,-3.3456,-3.3492,-3.3714,-3.3888,-3.4303,-3.4897,-3.5098,-3.5027,-3.4738,-3.3103,-3.2337,-3.2214,-3.1605,0.0,0.0,0.0,-3.3724,-3.4518,-3.4756,-3.5115,-3.5489,-3.5489,-3.5489,-3.5489,-3.522,-3.4768,-3.4118,-3.3442,-3.2423,-3.1165,0.0,0.0,-3.1421,-3.2534,-3.3286,-3.3733,-3.4435,-3.4801,-3.4783,-3.5032,-3.5076,-3.4928,-3.3947,-3.3186,-3.275,-3.1326,-3.0548,-3.0531,-2.9597,-2.8747,0.0,0.0,0.0,0.0,0.0,0.0,0.0,0.0,0.0,0.0,0.0,-2.603,-2.5644,0.0,0.0,0.0,-2.7614,-2.89,-2.954,-2.9965,0.0,0.0,0.0,0.0,0.0,0.0,0.0,-3.2463,-3.3357,-3.4231,-3.5112,-3.6225,-3.6803,-3.6496,-3.7026,-3.7092,-3.6148,0.0,-3.5616,-3.5616,-3.5616,-3.5616,-3.5616,-3.5616,-3.5616,-3.5616,-3.5329,-3.5182,-3.5131,-3.4184,-3.3431,-3.3284,-3.2617,-3.1986,-3.1986,-3.2748,-3.325,-3.2638,-3.2937,-3.3225,-3.3199,-3.3408,-3.3428,-3.2393,-3.2338,-3.1732,-3.2375,-3.3819,-3.3288,-3.3918,-3.5187,-3.4609,-3.4698,-3.5109,-3.3003,-3.2501,-3.3224,-3.2645,0.0,-3.3497,-3.414,-3.4455,-3.4577,-3.522,-3.5489,-3.5489,-3.5489,-3.5489,-3.5489,-3.4893,-3.4219,-3.3484,-3.2886,-3.1913,-3.0612,-3.1128,-3.141,-3.1443,-3.2137,-3.2529,-3.2604,-3.3262,-3.3548,-3.3444,-3.4019,-3.4644,-3.5211,-3.3898,-3.314,-3.3128,-3.1813,-3.1055,-3.1018,-2.9871,-2.8918,-2.8214,0.0,0.0,0.0,0.0,0.0,0.0,0.0,0.0,0.0,0.0,0.0,0.0,0.0,0.0,0.0,-2.8421,0.0,-3.0164,-3.0839,0.0,0.0,0.0,-3.0505,-3.0578,-3.1122,-3.1735,-3.2333,0.0,0.0,-3.4354,-3.5019,-3.5973,-3.7277,-3.6929,-3.6523,-3.6458,-3.5845,-3.5515,-3.5492,-3.5577,-3.5616,-3.5616,-3.5616,-3.5616,-3.5583,-3.4996,-3.4556,-3.4455,-3.3326,-3.2432,-3.2368,-3.1701,-3.121,-3.121,-3.1606,-3.185,-3.2195,-3.2414,-3.2631,-3.2827,-3.2973,-3.2752,-3.047,-3.0457,-3.029,-3.1282,-3.2912,-3.2772,-3.294,-3.3276,-3.3121,-3.3149,-3.3199,-3.2199,-3.1579,-3.1264,-3.111,-3.1848,-3.318,-3.3373,-3.4082,-3.5233,-3.5429,-3.5489,-3.5489,-3.5489,-3.5489,-3.5489,-3.534,-3.4651,-3.3529,-3.3335,-3.2587,-3.1331,-3.1413,-3.1497,-3.1571,-3.2237,-3.283,-3.3342,-3.3502,-3.3347,-3.2845,-3.2983,-3.286,-3.2566,-3.1648,-3.1193,-3.1193,-3.0319,-2.9827,-2.9827,-2.9534,-2.9027,-2.8302,-2.6947,0.0,0.0,0.0,0.0,0.0,0.0,0.0,0.0,0.0,-2.6069,-2.5074,0.0,-2.6746,0.0,-2.7968,-2.922,-3.0316,-3.0181,0.0,0.0,-3.0473,-3.0704,-3.121,-3.1406,-3.157,-3.172,-3.2916,-3.3544,-3.3036,-3.4014,-3.4666,-3.4577,-3.4904,-3.4949,-3.4459,-3.4628,-3.483,-3.4854,-3.5253,-3.56,-3.56,-3.5616,-3.5583,-3.56,-3.4979,-3.4489,-3.4472,-3.3271,-3.2293,-3.2242,-3.1681,-3.1241,-3.119,-3.1295,-3.1135,-3.0872,-3.162,-3.224,-3.1492,-3.1823,-3.2022,-2.9779,-2.9779,-2.9779,-3.0394,-3.1378,-3.1792,-3.2213,-3.2593,-3.2593,-3.2593,-3.2593,-3.2213,-3.1602,-3.0915,-3.1322,-3.2,-3.2865,-3.2899,-3.3575,-3.4791,-3.4839,-3.5052,-3.5489,-3.5489,-3.5489,-3.5489,-3.5205,-3.4532,-3.3529,-3.32,-3.2542,-3.1511,-3.1496,-3.1516,-3.1573,-3.1936,-3.2284,-3.2664,-3.263,-3.2625,-3.2588,-3.2551,-3.2391,-3.2039,-3.1334,-3.0781,-3.05,-2.9797,-2.9406,-2.9384,-2.915,-2.8681,-2.7971,-2.6945,-2.5984,0.0,0.0,0.0,0.0,0.0,0.0,0.0,0.0,0.0,0.0,0.0,-2.7709,-2.8293,-2.9011,-2.9877,-3.0848,-3.0654,-3.0582,-3.0898,-3.0971,-3.1092,-3.1451,-3.1765,-3.1944,-3.1944,-3.2871,-3.3365,-3.3021,-3.3335,-3.3469,-3.3095,-3.3181,-3.3345,-3.3571,-3.3918,-3.4161,-3.417,-3.4728,-3.5293,-3.5538,-3.5312,-3.5115,-3.5008,-3.3989,-3.3115,-3.3098,-3.2194,-3.1403,-3.139,-3.1284,-3.119,-3.1173,-3.0913,-3.0578,-3.0338,-3.0553,-3.0716,-3.0334,-3.0707,-3.1004,-2.9779,-2.9779,-2.9779,-2.9779,-2.9869,-3.0696,-3.1462,-3.2249,-3.2249,-3.2249,-3.2249,-3.2249,-3.1792,-3.1068,-3.1888,-3.2321,-3.2415,-3.2429,-3.2925,-3.3808,-3.3808,-3.4361,-3.5279,-3.518,-3.5261,-3.5489,-3.478,-3.4168,-3.3604,-3.2946,-3.2273,-3.1645,-3.1525,-3.1496,-3.1496,-3.1496,-3.1496,-3.1496,-3.1439,-3.1717,-3.2295,-3.2264,-3.2187,-3.2072,-3.1459,-3.0815,-3.0139,-2.9505,-2.9227,-2.9261,-2.8724,-2.816,-2.7659,-2.6985,-2.6031,0.0,-2.4031,0.0,0.0,0.0,0.0,0.0,0.0,0.0,0.0,-2.8353,-2.931,-3.0417,-3.0554,-3.0881,-3.1451,-3.1496,-3.1496,-3.1496,-3.1496,-3.1496,-3.1525,-3.2019,-3.2363,-3.2377,-3.2961,-3.335,-3.317,-3.2796,-3.2512,-3.2348,-3.1973,-3.208,-3.2985,-3.3343,-3.3469,-3.3453,-3.4021,-3.4607,-3.4881,-3.4589,-3.4192,-3.3934,-3.2619,-3.1336,-3.1364,-3.0734,-3.0204,-3.0246,-3.0601,-3.0905,-3.0958,-3.0425,-2.9978,-2.9774,-2.9328,-2.9054,-2.93,-2.9663,-2.9789,-2.9779,-2.9779,-2.9779,-2.9779,-2.983,-2.9998,-3.0177,-3.0317,-3.0317,-3.0317,-3.0317,-3.0317,-3.0216,-3.0075,-3.0254,-3.0733,-3.1462,-3.1462,-3.196,-3.2841,-3.2841,-3.3394,-3.4211,-3.3498,-3.3973,-3.5377,-3.4559,-3.4164,-3.4309,-3.3619,-3.2976,-3.2303,-3.1765,-3.1496,-3.1496,0.0,0.0,0.0,-3.1491,-3.1291,-3.091,-3.0885,-3.0391,-2.9401,-2.9219,0.0,-2.8181,-2.8005,-2.8192,-2.8708,-2.8112,0.0,0.0,0.0,0.0,0.0,0.0,0.0,0.0,0.0,0.0,0.0,-2.7108,-2.7156,-2.7584,-2.9146,-3.0238,-3.0492,-3.0972,-3.1361,-3.1496,-3.1496,-3.1496,-3.1496,-3.1496,-3.1496,-3.1511,-3.163,-3.169,-3.1705,-3.2273,-3.2467,-3.2034,-3.2198,-3.2302,-3.1809,-3.1585,-3.1613,-3.1847,-3.2432,-3.2776,-3.2841,-3.336,-3.3611,-3.3226,-3.3088,-3.2762,-3.2165,-3.1396,-3.0716,-3.0564,-3.0058,-2.9579,-2.9585,-2.967,-2.9776,-2.9745,-2.9529,-2.9158,-2.8599,-2.8224,-2.8062,-2.8133,-2.844,-2.8524,-2.9779,0.0,-2.9779,-2.9779,0.0,-2.9779,-2.9779,-2.9779,-2.9779,-2.9779,-2.9779,-2.9779,-2.9779,-2.9779,-2.9779,-3.0075,-3.0482,-3.052,-3.1007,-3.1901,-3.1888,-3.2429,-3.331,-3.282,-3.3101,-3.4041,-3.4013,-3.3926,-3.3789,-3.3581,-3.3155,-3.2512,-3.1824,-3.1496,-3.1496,-3.1496,-3.1496,-3.1496,-3.1496,-3.1331,-3.1002,-3.0987,-3.0537,-2.9579,-2.925,0.0,0.0,0.0,0.0,0.0,0.0,0.0,0.0,0.0,0.0,-2.7501,-2.6465,-2.6153,-2.6764,-2.5728,-2.5819,-2.7625,-2.7712,-2.7854,-2.8391,-2.9262,-2.9765,-2.9779,-3.0081,-3.0254,-3.0269,-3.0269,-3.0254,-3.0269,-3.0644,-3.0777,-3.0419,-3.1029,-3.1307,-3.1058,-3.156,-3.1854,-3.154,-3.1765,-3.1869,-3.157,-3.1496,-3.1496,-3.1524,-3.1796,-3.2148,-3.2516,-3.254,-3.2618,-3.2533,-3.1943,-3.1494,-3.1029,-3.0195,-2.9588,-2.9517,-2.9225,-2.895,-2.8973,-2.9188,-2.9321,-2.8938,-2.8572,-2.803,-2.7365,-2.6828,-2.6647,-2.6865,-2.7419,-2.7773,-2.9779,-2.9779,-2.9779,-2.9779,-2.9779,-2.9779,-2.9779,-2.9779,0.0,0.0,0.0,-2.9779,-2.9779,-2.9779,-2.9779,-2.9779,-2.9779,-2.9779,-3.0216,-3.0932,-3.097,-3.1462,-3.2321,-3.2177,-3.2285,-3.2642,-3.3192,-3.3289,-3.2892,-3.3111,-3.2835,-3.2077,-3.1678,-3.1496,-3.1496,-3.1496,-3.1496,-3.1496,-3.1496,-3.1496,-3.1496,-3.1496,-3.1182,-3.0522,-3.0013,-2.9711,-2.9606,-2.9071,-2.9071,-2.9699,-2.9131,-2.9071,-2.9669,-2.9131,-2.8889,-2.9066,-2.7953,-2.7677,-2.8768,-2.7001,-2.6537,-2.8104,-2.803,-2.8321,-2.918,-2.9086,-2.8989,-2.8989,-2.8989,-2.8989,-2.8989,-2.9002,-2.8989,-2.9002,-2.9628,-2.9752,-2.9223,-3.0178,-3.0748,-3.0299,-3.0792,-3.1292,-3.1248,-3.1424,-3.1496,-3.1496,-3.1496,-3.1496,-3.1496,-3.1524,-3.1707,-3.1983,-3.1747,-3.157,-3.159,-3.0956,-3.0188,-2.9896,-2.9036,-2.8398,-2.8319,-2.8319,-2.8343,-2.8359,-2.8779,-2.8712,-2.8196,-2.7585,-2.6915,-2.627,-2.5639,-2.5335,-2.5799,-2.6488,-2.7051,-2.9779,-2.9779,-2.9779,-2.9779,-2.9779,-2.9779,-2.9779,-2.9779,-2.9779,-2.9779,-2.9779,-2.9779,-2.9779,-2.9779,-2.9779,-2.9779,-2.9779,-2.9779,-2.9856,-2.9998,-2.9998,-3.0495,-3.1315,-3.057,-3.102,-3.2451,-3.1924,-3.1734,-3.1971,-3.2182,-3.165,-3.0609,-3.1129,-3.1467,-3.1496,-3.1496,-3.1496,-3.1496,-3.1496,-3.1496,-3.1496,-3.1496,-3.1182,-3.0552,-3.0417,-3.0118,-2.9636,-2.9532,-2.9729,-3.0313,-2.9774,-2.9741,-3.0298,-2.9762,-2.8899,-2.7664,-2.7325,-2.6901,-2.6246,-2.5823,-2.6257,-2.7601,-2.7758,-2.8125,-2.8959,-2.901,-2.8989,-2.8989,-2.8907,-2.8989,-2.8989,-2.8925,-2.8894,-2.8925,-2.9083,-2.9115,-2.8939,-2.9223,-2.938,-2.9223,-2.9936,-3.0464,-3.0524,-3.0984,-3.1336,-3.1438,-3.1219,-3.1409,-3.1336,-3.1496,-3.127,-3.0932,-3.0734,-3.022,-2.9655,-2.9096,-2.8728,-2.8097,-2.7936,-2.781,-2.781,-2.781,-2.781,-2.7735,-2.7874,-2.761,-2.7018,-2.6711,-2.6193,-2.5601,-2.5197,-2.516,-2.5297,-2.5801,-2.6298,-2.9779,-2.9779,-2.9779,-2.9779,-2.9779,-2.9779,-2.9779,-2.9779,-2.9779,-2.9779,-2.9779,-2.9779,-2.9779,-2.9779,-2.9779,-2.9779,-2.9779,-2.9779,-2.9779,-2.9779,-2.9779,-3.0037,-3.0343,-2.9998,-3.0254,-3.1057,-3.118,-3.1146,-3.1059,-3.1271,-3.0923,-3.0063,-3.0094,-3.0133,-3.0147,-3.0147,-3.0147,-3.0163,-3.1029,-3.1496,-3.1496,-3.1496,-3.1346,-3.1032,-3.0717,-3.0539,-3.0642,-3.0283,-3.0387,-3.1002,-3.0009,-2.9723,-3.0324,-2.9348,-2.8562,-2.8177,-2.7709,-2.7452,-2.7463,-2.7,-2.6845,-2.7048,-2.7031,-2.7219,-2.7591,-2.7637,-2.7637,-2.7637,-2.7637,-2.7637,-2.7637,-2.765,-2.7637,-2.765,-2.8019,-2.8117,-2.7868,-2.8524,-2.8798,-2.846,-2.9066,-2.9611,-2.9597,-2.9919,-3.0147,-3.0147,-3.0147,-3.0163,-3.0163,-3.0149,-3.0248,-3.0415,-3.0223,-2.9639,-2.8757,-2.8263,-2.7959,-2.763,-2.76,-2.7585,-2.7585,-2.7585,-2.7585,-2.7555,-2.7325,-2.6825,-2.6192,-2.5697,-2.5177,-2.4609,-2.4392,-2.4405,-2.4712,-2.5182,-2.5799,-2.9779,-2.9779,-2.9779,-2.9779,-2.9779,-2.9779,-2.9779,-2.9779,-2.9779,-2.9779,-2.9779,-2.9779,-2.9779,-2.9779,-2.9779,-2.9779,-2.9779,-2.9779,-2.9779,-2.9779,-2.9779,-2.9779,-2.9779,-2.9779,-2.9779,-2.9856,-3.0558,-3.0583,-3.0168,-3.036,-3.0225,-2.9721,-2.9064,-2.8812,-2.8989,-2.8989,-2.8989,-2.9097,-3.0269,-3.094,-3.0955,-3.1278,-3.1336,-3.0925,-3.0629,-3.0613,-3.0896,-3.044,-3.0396,-3.0822,-2.9867,-2.9481,-2.9909,-2.887,-2.8363,-2.863,-2.8084,-2.7887,-2.833,-2.7822,-2.7162,-2.6555,-2.6487,-2.6487,-2.6487,-2.6487,-2.6487,-2.6487,-2.6555,-2.6555,-2.6589,-2.6555,-2.6487,-2.6521,-2.704,-2.7196,-2.6748,-2.767,-2.8201,-2.765,-2.8168,-2.8716,-2.8748,-2.8876,-2.9052,-2.9097,-2.8989,-2.8961,-2.8868,-2.8827,-2.9134,-2.9276,-2.9261,-2.8788,-2.8228,-2.7676,-2.7442,-2.7509,-2.7585,-2.7585,-2.7585,-2.7585,-2.748,-2.736,-2.6975,-2.633,-2.5563,-2.5025,-2.4458,-2.3891,-2.3739,-2.377,-2.4085,-2.4265,-2.4898,-2.9779,-2.9779,-2.9779,-2.9779,-2.9779,-2.9779,-2.9779,-2.9779,-2.9779,-2.9779,-2.9779,-2.9779,-2.9779,-2.9779,-2.9779,-2.9779,-2.9779,-2.9779,-2.9779,-2.9779,-2.9779,-2.9779,-2.9779,-2.9779,-2.9779,-2.9779,-2.9934,-2.9694,-2.9162,-2.9386,-2.9362,-2.9018,-2.8228,-2.8201,-2.8876,-2.8971,-2.8957,-2.9002,-2.916,-2.9223,-2.9317,-3.0703,-3.0763,-2.9286,-2.9954,-2.994,-2.938,-2.9167,-2.9185,-2.9209,-2.9105,-2.9059,-2.9069,-2.8965,-2.8566,-2.7887,-2.7723,-2.7438,-2.6837,-2.6658,-2.6589,-2.6487,-2.6487,-2.6487,-2.6487,-2.6487,-2.6487,-2.6487,-2.6487,-2.6487,-2.6487,-2.6487,-2.6487,-2.6487,-2.6589,-2.6568,-2.6555,-2.6624,-2.6679,-2.6658,-2.7397,-2.7835,-2.7887,-2.8363,-2.883,-2.8716,-2.8602,-2.8456,-2.815,-2.8016,-2.7663,-2.7163,-2.7082,-2.7215,-2.6849,-2.6676,-2.6785,-2.7316,-2.7534,-2.7433,-2.7342,-2.7403,-2.741,-2.6758,-2.6641,-2.6063,-2.5196,-2.4605,-2.4335,-2.3766,-2.3563,-2.3556,-2.3476,-2.3146,-2.3327,-2.9779,-2.9779,-2.9779,-2.9779,-2.9779,-2.9779,-2.9779,-2.9779,-2.9779,-2.9779,-2.9779,-2.9779,-2.9779,-2.9779,-2.9779,-2.9779,-2.9779,-2.9779,-2.9779,-2.9779,-2.9779,-2.9779,-2.9779,-2.9779,-2.9779,-2.9779,-2.9779,-2.949,-2.89,-2.8407,-2.795,-2.7529,-2.7142,-2.7162,-2.7517,-2.7517,-2.7517,-2.7537,-2.7986,-2.8019,-2.7769,-2.916,-2.9704,-2.9115,-2.9348,-2.938,-2.9052,-2.8989,-2.8989,-2.8971,-2.8524,-2.8233,-2.8201,-2.7802,-2.7384,-2.7007,-2.6973,-2.6837,-2.6521,-2.6487,-2.6487,-2.6487,-2.6487,-2.6487,-2.6487,-2.6487,-2.6487,-2.6487,-2.6487,-2.6487,-2.6487,-2.6487,-2.6487,-2.6487,-2.6487,-2.6487,-2.6487,-2.6487,-2.6487,-2.6533,-2.6782,-2.6994,-2.7027,-2.7284,-2.7504,-2.7465,-2.7288,-2.7032,-2.6705,-2.6398,-2.5847,-2.5232,-2.5175,-2.5464,-2.5716,-2.5851,-2.6,-2.6215,-2.6295,-2.6295,-2.6402,-2.6747,-2.6711,-2.6052,-2.5958,-2.5631,-2.4829,-2.4246,-2.3894,-2.3507,-2.3221,-2.3056,-2.3011,-2.2454,-2.224,-2.9326,-2.9365,-2.9663,-2.9779,-2.9779,-2.9779,-2.9779,-2.9779,-2.9779,-2.9779,-2.9779,-2.9779,-2.9779,-2.9779,-2.9779,-2.9779,-2.9779,-2.9779,-2.9779,-2.9779,-2.9779,-2.9779,-2.9779,-2.9779,-2.9779,-2.9779,-2.9779,-2.949,-2.8863,-2.816,-2.7417,-2.6826,-2.6713,-2.665,-2.6499,-2.6487,-2.6487,-2.6555,-2.7108,-2.7095,-2.6748,-2.7716,-2.8312,-2.8344,-2.8524,-2.8556,-2.8298,-2.8298,-2.8312,-2.8312,-2.7703,-2.7384,-2.7364,-2.6816,-2.6487,-2.6487,-2.6487,-2.6487,-2.6487,-2.6487,-2.6487,-2.6487,-2.6487,-2.6487,-2.6487,-2.6487,-2.6487,-2.6487,-2.6487,-2.6487,-2.6487,-2.6487,-2.6487,-2.6487,-2.6487,-2.6487,-2.6487,-2.6487,-2.6487,-2.6487,-2.6555,-2.6411,-2.6311,-2.6429,-2.6573,-2.6333,-2.6101,-2.5636,-2.5423,-2.5099,-2.4626,-2.3904,-2.3784,-2.4142,-2.489,-2.5091,-2.5119,-2.537,-2.5508,-2.5536,-2.5398,-2.5919,-2.5818,-2.5115,-2.512,-2.4615,-2.3644,-2.3191,-2.3135,-2.2966,-2.2651,-2.2255,-2.2075,-2.1509,-2.0916,-2.8176,-2.8398,-2.9365,-2.974,-2.9779,-2.9779,-2.9779,-2.9779,-2.9779,-2.9779,-2.9779,-2.9779,-2.9779,-2.9779,-2.9779,-2.9779,-2.9779,-2.9779,-2.9779,-2.9779,-2.9779,-2.9779,-2.9779,-2.9779,-2.9779,-2.9779,-2.9779,-2.949,-2.8913,-2.88,-2.831,-2.7281,-2.7241,-2.6989,-2.6562,-2.6487,-2.6487,-2.6521,-2.6589,-2.6555,-2.6533,-2.6624,-2.6714,-2.6816,-2.7351,-2.7417,-2.6803,-2.6658,-2.6658,-2.6645,-2.6658,-2.6589,-2.6555,-2.6521,-2.6487,-2.6487,-2.6487,-2.6487,-2.6487,-2.6487,-2.6487,-2.6487,-2.6487,-2.6452,-2.6349,-2.6452,-2.6452,-2.6452,-2.6452,-2.6487,-2.6487,-2.6487,-2.6487,-2.6487,-2.6487,-2.6487,-2.6487,-2.6487,-2.6487,-2.6487,-2.6449,-2.6235,-2.5749,-2.6147,-2.6147,-2.5971,-2.6109,-2.6059,-2.5134,-2.4813,-2.4286,-2.3534,-2.3256,-2.3433,-2.4147,-2.4337,-2.4639,-2.4824,-2.4881,-2.5189,-2.5329,-2.5287,-2.4692,-2.4164,-2.3979,-2.3385,-2.2307,-2.1903,-2.1993,-2.1848,-2.1543,-2.124,-2.1173,-1.9899,-1.9411,-2.853,-2.9157,-2.8858,-2.9118,-2.9792,-2.9779,-2.9779,-2.9779,-2.9779,-2.9779,-2.9779,-2.9779,-2.9779,-2.9779,-2.9779,-2.9779,-2.9779,-2.9779,-2.9779,-2.9779,-2.9779,-2.9779,-2.9779,-2.9779,-2.9779,-2.9779,-2.9779,-2.949,-2.8938,-2.8888,-2.8336,-2.7469,-2.7329,-2.704,-2.6587,-2.6487,-2.6487,-2.6487,-2.6487,-2.6487,-2.6487,-2.6487,-2.6487,-2.6487,-2.6794,-2.6782,-2.6487,-2.6487,-2.6487,-2.6487,-2.6487,-2.6487,-2.6487,-2.6487,-2.6487,-2.6487,-2.6487,-2.6487,-2.6487,-2.6487,-2.6487,-2.6487,-2.6487,-2.6164,-2.5804,-2.6094,-2.6245,-2.5804,-2.6164,-2.6452,-2.6487,-2.6487,-2.6487,-2.6487,-2.6487,-2.6487,-2.6487,-2.6487,-2.6487,-2.6436,-2.6197,-2.5812,-2.5724,-2.5799,-2.5824,-2.5661,-2.5787,-2.5573,-2.4996,-2.4556,-2.4054,-2.3358,-2.3108,-2.3198,-2.3424,-2.3514,-2.3619,-2.3754,-2.3859,-2.3888,-2.3975,-2.4138,-2.3688,-2.3205,-2.2946,-2.259,-2.1691,-2.1486,-2.1472,-2.1424,-2.1031,-2.0547,-2.0329,-1.9391,-1.8892,-2.7896,-2.9028,-2.8426,-2.8767,-2.974,-2.9779,-2.9779,-2.9779,-2.9779,-2.9779,-2.9779,-2.9779,-2.9779,-2.9779,-2.9779,-2.9779,-2.9779,-2.9779,-2.9779,-2.9779,-2.9779,-2.9779,-2.9779,-2.9779,-2.9779,-2.9779,-2.9779,-2.9578,-2.9252,-2.9164,-2.8712,-2.7883,-2.7657,-2.7304,-2.6826,-2.6587,-2.6487,-2.6487,-2.6487,-2.6487,-2.6487,-2.6487,-2.6487,-2.6487,-2.6487,-2.6487,-2.6487,-2.6487,-2.6487,-2.6487,-2.6487,-2.6487,-2.6487,-2.6487,-2.6487,-2.6487,-2.6487,-2.6487,-2.6487,-2.6487,-2.6487,-2.6474,-2.6155,-2.5691,-2.5087,-2.536,-2.5135,-2.4874,-2.5394,-2.6025,-2.6013,-2.5978,-2.6129,-2.6383,-2.6487,-2.6487,-2.6487,-2.6487,-2.6487,-2.6449,-2.621,-2.5862,-2.5661,-2.5833,-2.5787,-2.5649,-2.5724,-2.5649,-2.5134,-2.4607,-2.4067,-2.3496,-2.3208,-2.3133,-2.3215,-2.3245,-2.3245,-2.3352,-2.3382,-2.3185,-2.3059,-2.3126,-2.2864,-2.2359,-2.1957,-2.1671,-2.1419,-2.1191,-2.1135,-2.1132,-2.0715,-2.0156,-1.9691,-1.9141,-1.8663,-2.6108,-2.7976,-2.8096,-2.8648,-2.9573,-2.9624,-2.974,-2.9792,-2.9702,-2.9663,-2.9753,-2.9779,-2.9779,-2.9779,-2.9779,-2.9779,-2.9779,-2.9779,-2.9779,-2.9779,-2.9779,-2.9779,-2.9779,-2.9779,-2.9779,-2.9779,-2.9779,-2.9779,-2.9716,-2.9679,-2.9377,-2.8825,-2.831,-2.7795,-2.7304,-2.6813,-2.6537,-2.6499,-2.6487,-2.6487,-2.6487,-2.6487,-2.6487,-2.6487,-2.6487,-2.6487,-2.6487,-2.6487,-2.6487,-2.6487,-2.6487,-2.6487,-2.6487,-2.6418,-2.6418,-2.6349,-2.6383,-2.6383,-2.6336,-2.6267,-2.6164,-2.6195,-2.5519,-2.4928,-2.4755,-2.4182,-2.369,-2.3669,-2.4373,-2.4969,-2.4969,-2.5004,-2.537,-2.6245,-2.6233,-2.6129,-2.6233,-2.6383,-2.6418,-2.6267,-2.6108,-2.6129,-2.5841,-2.5904,-2.5979,-2.564,-2.5966,-2.6122,-2.546,-2.4958,-2.4537,-2.3966,-2.3421,-2.3108,-2.3095,-2.3095,-2.3095,-2.3125,-2.3155,-2.3095,-2.297,-2.2954,-2.2451,-2.1905,-2.1153,-2.0862,-2.0615,-2.0395,-2.0308,-2.0219,-1.9902,-1.9697,-1.9142,-1.8626,-1.8283,-2.4957,-2.6912,-2.7005,-2.7614,-2.8557,-2.8636,-2.9067,-2.9663,-2.9015,-2.9067,-2.9702,-2.9779,-2.9779,-2.9779,-2.9779,-2.9779,-2.9779,-2.9779,-2.9779,-2.9779,-2.9779,-2.9779,-2.9779,-2.9779,-2.9779,-2.9779,-2.9779,-2.9779,-2.9779,-2.9779,-2.949,-2.8938,-2.8725,-2.8185,-2.7344,-2.714,-2.6914,-2.6524,-2.6487,-2.6487,-2.6487,-2.6487,-2.6487,-2.6487,-2.6487,-2.6487,-2.6487,-2.6487,-2.6487,-2.6452,-2.6487,-2.6487,-2.6383,-2.5838,-2.5488,-2.5406,-2.4767,-2.4433,-2.4433,-2.4505,-2.4838,-2.5122,-2.4555,-2.4046,-2.3977,-2.3653,-2.3143,-2.2697,-2.3368,-2.3963,-2.3963,-2.3963,-2.4397,-2.5323,-2.485,-2.4552,-2.4612,-2.4552,-2.4433,-2.447,-2.4718,-2.4502,-2.4175,-2.4757,-2.549,-2.4947,-2.5598,-2.5999,-2.5256,-2.4763,-2.4374,-2.3572,-2.3258,-2.2896,-2.272,-2.2689,-2.2781,-2.272,-2.275,-2.2854,-2.279,-2.2359,-2.1877,-2.1327,-2.0588,-2.0136,-1.9885,-1.9721,-1.9657,-1.9695,-1.9672,-1.9246,-1.8643,-1.8155,-1.7733,-2.4178,-2.5797,-2.5891,-2.6502,-2.7481,-2.7493,-2.7907,-2.841,-2.7827,-2.7907,-2.8542,-2.8988,-2.9157,-2.9236,-2.9585,-2.9792,-2.9779,-2.9779,-2.9779,-2.9779,-2.9779,-2.9779,-2.9779,-2.9779,-2.9779,-2.9779,-2.9779,-2.9779,-2.9779,-2.9779,-2.9603,-2.9251,-2.9001,-2.8486,-2.7632,-2.7356,-2.6899,-2.6134,-2.628,-2.6314,-2.6025,-2.5943,-2.5955,-2.5873,-2.5569,-2.5429,-2.5394,-2.5394,-2.5569,-2.5756,-2.5616,-2.5475,-2.5625,-2.4933,-2.4445,-2.4337,-2.3927,-2.3526,-2.3478,-2.3624,-2.3745,-2.4146,-2.35,-2.295,-2.2885,-2.2703,-2.2088,-2.1728,-2.2376,-2.2925,-2.2962,-2.2925,-2.3257,-2.3781,-2.3745,-2.3478,-2.3478,-2.3478,-2.3551,-2.3677,-2.382,-2.3565,-2.3555,-2.3803,-2.4597,-2.4237,-2.4612,-2.5163,-2.4321,-2.3818,-2.3232,-2.2669,-2.2253,-2.2071,-2.2137,-2.2249,-2.2402,-2.2341,-2.2249,-2.2384,-2.2427,-2.164,-2.1035,-2.0566,-1.9916,-1.9803,-1.9566,-1.9333,-1.9228,-1.9307,-1.9218,-1.8372,-1.7618,-1.7385,-1.6931,-2.3714,-2.466,-2.4787,-2.5462,-2.6348,-2.6389,-2.6554,-2.6607,-2.6431,-2.6513,-2.6842,-2.7855,-2.8096,-2.8295,-2.9197,-2.9714,-2.9702,-2.9779,-2.9779,-2.9779,-2.9779,-2.9779,-2.9779,-2.9779,-2.9779,-2.9779,-2.9779,-2.9779,-2.9779,-2.9779,-2.9779,-2.9679,-2.9239,-2.86,-2.7989,-2.7524,-2.6551,-2.5433,-2.5868,-2.5784,-2.5016,-2.4898,-2.4933,-2.4886,-2.4145,-2.3745,-2.3806,-2.3708,-2.3963,-2.4636,-2.4145,-2.4026,-2.4221,-2.3797,-2.3404,-2.3404,-2.3368,-2.3147,-2.3257,-2.2999,-2.3195,-2.3297,-2.2539,-2.1968,-2.2039,-2.1471,-2.0935,-2.0828,-2.1489,-2.1924,-2.1924,-2.1924,-2.2,-2.2038,-2.2601,-2.301,-2.3257,-2.3184,-2.301,-2.311,-2.3331,-2.332,-2.3106,-2.3337,-2.3568,-2.3391,-2.3266,-2.3427,-2.3198,-2.2708,-2.1891,-2.1505,-2.1321,-2.1314,-2.1416,-2.1542,-2.1667,-2.1542,-2.1447,-2.1447,-2.1599,-2.0896,-2.0208,-1.9724,-1.9283,-1.9251,-1.9123,-1.8794,-1.8635,-1.8635,-1.8104,-1.7232,-1.6818,-1.6688,-1.6244,-2.3266,-2.3637,-2.4457,-2.4957,-2.5252,-2.5252,-2.5714,-2.6318,-2.5546,-2.5683,-2.6513,-2.7654,-2.7562,-2.7168,-2.887,-2.9365,-2.8858,-2.9365,-2.9779,-2.9779,-2.9779,-2.9779,-2.9779,-2.9779,-2.9779,-2.9779,-2.9779,-2.9779,-2.9779,-2.974,-2.974,-2.9779,-2.9526,-2.8807,-2.7706,-2.74,-2.6432,-2.5032,-2.4783,-2.4759,-2.4406,-2.405,-2.3902,-2.3854,-2.3588,-2.3441,-2.3404,-2.2776,-2.285,-2.3781,-2.3672,-2.3551,-2.3627,-2.2914,-2.2403,-2.2328,-2.1783,-2.1413,-2.1413,-2.1451,-2.1707,-2.2253,-2.16,-2.128,-2.1931,-2.1116,-2.0683,-2.0644,-2.0895,-2.1011,-2.1011,-2.1011,-2.1001,-2.0962,-2.1385,-2.1538,-2.1499,-2.1346,-2.1385,-2.1413,-2.2,-2.2038,-2.1962,-2.2478,-2.3036,-2.2626,-2.251,-2.2588,-2.2198,-2.1648,-2.0907,-2.0884,-2.0743,-2.072,-2.0719,-2.0846,-2.0835,-2.0707,-2.0515,-2.0225,-2.0288,-2.0015,-1.9422,-1.8895,-1.837,-1.819,-1.8124,-1.7922,-1.7907,-1.7907,-1.7532,-1.6934,-1.6506,-1.623,-1.5695,-2.3101,-2.3135,-2.38,-2.4082,-2.4092,-2.4092,-2.4467,-2.484,-2.4425,-2.4425,-2.5221,-2.6243,-2.6356,-2.6016,-2.7597,-2.8079,-2.7574,-2.8119,-2.8621,-2.9067,-2.9067,-2.9326,-2.9663,-2.9779,-2.9779,-2.9779,-2.9779,-2.9779,-2.9663,-2.9353,-2.9365,-2.9573,-2.9326,-2.8448,-2.7451,-2.726,-2.6223,-2.458,-2.4128,-2.4038,-2.3585,-2.3101,-2.2883,-2.2739,-2.2553,-2.2264,-2.2188,-2.1707,-2.2038,-2.2962,-2.2824,-2.2451,-2.2739,-2.1962,-2.1451,-2.1375,-2.0857,-2.0605,-2.0615,-2.0605,-2.0867,-2.1231,-2.0818,-2.0934,-2.1193,-2.0857,-2.0615,-2.0605,-2.0615,-2.0615,-2.0615,-2.0615,-2.0615,-2.0644,-2.0615,-2.0615,-2.0615,-2.0683,-2.0605,-2.075,-2.1011,-2.127,-2.0644,-2.1718,-2.1859,-2.1546,-2.1219,-2.1198,-2.1003,-2.0475,-2.0078,-1.9985,-1.9758,-1.9529,-1.965,-1.9814,-1.9781,-1.965,-1.9584,-1.9266,-1.919,-1.9098,-1.8619,-1.8075,-1.7518,-1.7202,-1.7274,-1.7274,-1.7146,-1.709,-1.6922,-1.6462,-1.5839,-1.5618,-1.5081,-2.3101,-2.3101,-2.3091,-2.3101,-2.3135,-2.3091,-2.3266,-2.3178,-2.3222,-2.3222,-2.3551,-2.4372,-2.4872,-2.4713,-2.6182,-2.6513,-2.6348,-2.673,-2.7209,-2.7735,-2.8016,-2.8371,-2.9,-2.904,-2.904,-2.9118,-2.9417,-2.93,-2.8922,-2.8267,-2.8478,-2.8752,-2.8279,-2.762,-2.6878,-2.6841,-2.5622,-2.3896,-2.3662,-2.3424,-2.2767,-2.2265,-2.1973,-2.1783,-2.1308,-2.0934,-2.0867,-2.075,-2.1413,-2.3073,-2.1489,-2.127,-2.1707,-2.1011,-2.0712,-2.0722,-2.0673,-2.0615,-2.0615,-2.0605,-2.0605,-2.0683,-2.0683,-2.0615,-2.0683,-2.0644,-2.0615,-2.0615,-2.0615,-2.0615,-2.0615,-2.0615,-2.0615,-2.0615,-2.0615,-2.0615,-2.0615,-2.0615,-2.0615,-2.0615,-2.0605,-2.0605,-2.0615,-2.0615,-2.0644,-2.1008,-2.0571,-2.0222,-1.9945,-1.9428,-1.9065,-1.8847,-1.8574,-1.8202,-1.8462,-1.8754,-1.8654,-1.8529,-1.8553,-1.8425,-1.8377,-1.8195,-1.7759,-1.7286,-1.6756,-1.6648,-1.6856,-1.6754,-1.651,-1.6312,-1.6197,-1.5383,-1.4599,-1.47,-1.4404,-2.3101,-2.3101,-2.3101,-2.3101,-2.3101,-2.3101,-2.3101,-2.3101,-2.3101,-2.3101,-2.3343,-2.4296,-2.4253,-2.3627,-2.5347,-2.6047,-2.5378,-2.5975,-2.6678,-2.676,-2.6842,-2.6935,-2.7221,-2.7209,-2.7221,-2.7302,-2.7261,-2.7261,-2.7139,-2.7128,-2.6964,-2.718,-2.7087,-2.6363,-2.5539,-2.5515,-2.4693,-2.3353,-2.3014,-2.2685,-2.2241,-2.174,-2.1302,-2.1023,-2.0731,-2.0644,-2.0615,-2.0615,-2.0828,-2.1011,-2.0934,-2.075,-2.0905,-2.075,-2.0605,-2.0615,-2.0615,-2.0615,-2.0615,-2.0615,-2.0615,-2.0615,-2.0615,-2.0615,-2.0615,-2.0615,-2.0615,-2.0615,-2.0615,-2.0615,-2.0615,-2.0615,-2.0615,-2.0615,-2.0615,-2.0615,-2.0615,-2.0615,-2.0615,-2.0615,-2.0615,-2.0615,-2.0615,-2.0615,-2.0566,-2.0478,-2.0067,-1.9463,-1.9023,-1.8603,-1.8408,-1.8295,-1.8184,-1.8008,-1.81,-1.8361,-1.8269,-1.8134,-1.8076,-1.7988,-1.7942,-1.7501,-1.7162,-1.6628,-1.5989,-1.6071,-1.634,-1.6112,-1.5835,-1.5642,-1.5555,-1.5096,-1.4697,-1.4377,-1.3977,-2.3101,-2.3101,-2.3101,-2.3101,-2.3101,-2.3101,-2.3101,-2.3101,-2.3101,-2.3101,-2.3222,-2.38,-2.3637,-2.3222,-2.4307,-2.451,-2.4372,-2.5126,-2.5389,-2.5179,-2.5347,-2.5389,-2.4935,-2.5052,-2.5316,-2.6235,-2.6524,-2.6483,-2.64,-2.6016,-2.6005,-2.6389,-2.5964,-2.5504,-2.4914,-2.4755,-2.4233,-2.3268,-2.2691,-2.2393,-2.2148,-2.1768,-2.1338,-2.0908,-2.0742,-2.0615,-2.0615,-2.0615,-2.0615,-2.0615,-2.0615,-2.0615,-2.0615,-2.0615,-2.0615,-2.0615,-2.0615,-2.0615,-2.0615,-2.0615,-2.0615,-2.0615,-2.0615,-2.0615,-2.0615,-2.0615,-2.0615,-2.0615,-2.0615,-2.0615,-2.0615,-2.0615,-2.0615,-2.0615,-2.0615,-2.0615,-2.0615,-2.0615,-2.0615,-2.0615,-2.0615,-2.0615,-2.0615,-2.0615,-2.0605,-2.0537,-2.0146,-1.9609,-1.9199,-1.8779,-1.8359,-1.8193,-1.8086,-1.8008,-1.8008,-1.8076,-1.811,-1.8042,-1.8042,-1.8008,-1.7982,-1.736,-1.6701,-1.629,-1.5939,-1.5586,-1.569,-1.542,-1.542,-1.5439,-1.54,-1.5185,-1.4941,-1.4639,-1.4133,-2.3101,-2.3101,-2.3101,-2.3101,-2.3101,-2.3101,-2.3101,-2.3101,-2.3101,-2.3101,-2.3091,-2.3101,-2.3222,-2.3135,-2.3178,-2.3135,-2.3387,-2.392,-2.4135,-2.3681,-2.4221,-2.4092,-2.3594,-2.3637,-2.4145,-2.585,-2.5724,-2.5724,-2.5515,-2.5126,-2.4925,-2.5599,-2.5052,-2.451,-2.451,-2.451,-2.4006,-2.312,-2.2799,-2.2578,-2.2461,-2.2119,-2.1748,-2.1201,-2.0918,-2.0664,-2.0644,-2.0615,-2.0615,-2.0615,-2.0615,-2.0615,-2.0615,-2.0615,-2.0615,-2.0615,-2.0615,-2.0615,-2.0615,-2.0615,-2.0615,-2.0615,-2.0615,-2.0615,-2.0615,-2.0615,-2.0615,-2.0615,-2.0615,-2.0615,-2.0615,-2.0615,-2.0615,-2.0615,-2.0615,-2.0615,-2.0615,-2.0615,-2.0615,-2.0615,-2.0615,-2.0615,-2.0615,-2.0615,-2.0615,-2.0508,-2.0108,-1.9757,-1.9321,-1.8929,-1.8465,-1.8178,-1.8135,-1.8027,-1.8008,-1.8008,-1.8008,-1.8008,-1.8008,-1.8008,-1.7939,-1.7262,-1.6677,-1.6443,-1.6133,-1.5703,-1.542,-1.542,-1.542,-1.542,-1.5371,-1.5264,-1.5078,-1.4863,-1.4355,-2.3101,-2.3101,-2.3101,-2.3101,-2.3101,-2.3101,-2.3101,-2.3101,-2.3101,-2.3101,-2.3101,-2.3101,-2.3101,-2.3101,-2.3101,-2.3101,-2.3178,-2.3474,-2.3387,-2.3091,-2.3474,-2.3256,-2.3178,-2.3091,-2.343,-2.3517,-2.3854,-2.3973,-2.3897,-2.3507,-2.3757,-2.3724,-2.3637,-2.3517,-2.3507,-2.3377,-2.3474,-2.3178,-2.2974,-2.2799,-2.2607,-2.2402,-2.2041,-2.1385,-2.1122,-2.0918,-2.0693,-2.0625,-2.0615,-2.0615,-2.0615,-2.0615,-2.0615,-2.0615,-2.0615,-2.0615,-2.0615,-2.0615,-2.0615,-2.0615,-2.0615,-2.0615,-2.0615,-2.0615,-2.0615,-2.0615,-2.0615,-2.0615,-2.0615,-2.0615,-2.0615,-2.0566,-2.0566,-2.0566,-2.0566,-2.0615,-2.0615,-2.0489,-2.045,-2.0362,-2.045,-2.0566,-2.0527,-2.0323,-2.0001,-1.9866,-1.9561,-1.9459,-1.9333,-1.8964,-1.8544,-1.8343,-1.8198,-1.8105,-1.8008,-1.8008,-1.8008,-1.8008,-1.8008,-1.8008,-1.7793,-1.7165,-1.6726,-1.6531,-1.6093,-1.5576,-1.542,-1.542,-1.542,-1.542,-1.54,-1.5381,-1.5225,-1.5039,-1.4687,-2.3101,-2.3101,-2.3101,-2.3101,-2.3101,-2.3101,-2.3101,-2.3101,-2.3101,-2.3101,-2.3101,-2.3101,-2.3101,-2.3101,-2.3101,-2.3101,-2.3101,-2.3101,-2.3101,-2.3101,-2.3101,-2.3101,-2.3101,-2.3101,-2.3101,-2.3135,-2.3144,-2.3101,-2.3091,-2.3135,-2.3101,-2.3135,-2.3101,-2.3101,-2.3091,-2.3135,-2.3101,-2.3101,-2.3081,-2.3003,-2.2769,-2.2656,-2.2185,-2.1912,-2.1405,-2.1093,-2.0947,-2.0683,-2.0615,-2.0615,-2.0615,-2.0615,-2.0615,-2.0615,-2.0615,-2.0615,-2.0615,-2.0615,-2.0615,-2.0615,-2.0615,-2.0615,-2.0615,-2.0615,-2.0615,-2.0615,-2.0566,-2.0566,-2.0566,-2.0362,-1.9835,-2.0206,-2.0284,-2.0001,-2.0167,-2.0489,-2.045,-2.004,-1.9883,-1.9756,-1.9599,-1.9726,-2.0323,-2.0001,-1.9432,-1.9152,-1.8985,-1.8994,-1.9087,-1.8704,-1.8179,-1.8206,-1.8025,-1.8003,-1.794,-1.8008,-1.8008,-1.8008,-1.8008,-1.8008,-1.7783,-1.7223,-1.6892,-1.6658,-1.6122,-1.5547,-1.542,-1.542,-1.542,-1.542,-1.541,-1.5391,-1.5361,-1.5157,-1.4853,-2.3101,-2.3101,-2.3101,-2.3101,-2.3101,-2.3101,-2.3101,-2.3101,-2.3101,-2.3101,-2.3101,-2.3101,-2.3101,-2.3101,-2.3101,-2.3101,-2.3101,-2.3101,-2.3101,-2.3101,-2.3101,-2.3101,-2.3101,-2.3101,-2.3101,-2.3101,-2.3101,-2.3101,-2.3101,-2.3101,-2.3101,-2.3101,-2.3101,-2.3101,-2.3101,-2.3101,-2.3101,-2.3101,-2.3101,-2.3101,-2.3003,-2.2789,-2.2578,-2.25,-2.1836,-2.1453,-2.1348,-2.0967,-2.0918,-2.086,-2.0762,-2.0644,-2.0713,-2.0664,-2.0615,-2.0615,-2.0615,-2.0615,-2.0615,-2.0615,-2.0615,-2.0615,-2.0615,-2.0615,-2.0615,-2.0566,-2.0479,-2.0362,-2.0206,-1.9717,-1.8957,-1.9353,-1.9353,-1.9076,-1.9313,-1.9844,-1.9481,-1.9116,-1.8709,-1.859,-1.8519,-1.8669,-1.9027,-1.9067,-1.843,-1.835,-1.8196,-1.8122,-1.8166,-1.7846,-1.7583,-1.7778,-1.7798,-1.7827,-1.7862,-1.8008,-1.8008,-1.8008,-1.8008,-1.8008,-1.7754,-1.7402,-1.7067,-1.6726,-1.6196,-1.5693,-1.5537,-1.5391,-1.542,-1.542,-1.542,-1.541,-1.5381,-1.5322,-1.5098,-2.3101,-2.3101,-2.3101,-2.3101,-2.3101,-2.3101,-2.3101,-2.3101,-2.3101,-2.3101,-2.3101,-2.3101,-2.3101,-2.3101,-2.3101,-2.3101,-2.3101,-2.3101,-2.3101,-2.3101,-2.3101,-2.3101,-2.3101,-2.3101,-2.3101,-2.3101,-2.3101,-2.3101,-2.3101,-2.3101,-2.3101,-2.3101,-2.3101,-2.3101,-2.3101,-2.3101,-2.3101,-2.3101,-2.3101,-2.3101,-2.3081,-2.3013,-2.2808,-2.2598,-2.2353,-2.2119,-2.1777,-2.1367,-2.124,-2.1523,-2.0967,-2.084,-2.1006,-2.0762,-2.0654,-2.0615,-2.0615,-2.0615,-2.0615,-2.0615,-2.0615,-2.0615,-2.0615,-2.0615,-2.0566,-2.0411,-2.0079,-1.9195,-1.9195,-1.8669,-1.7827,-1.7747,-1.7658,-1.7698,-1.79,-1.802,-1.7859,-1.798,-1.7577,-1.7212,-1.705,-1.709,-1.7326,-1.7374,-1.7383,-1.7423,-1.7407,-1.7293,-1.7279,-1.7027,-1.6829,-1.7018,-1.7299,-1.7367,-1.7613,-1.7794,-1.8008,-1.8008,-1.8008,-1.7998,-1.7803,-1.7529,-1.7148,-1.6741,-1.6217,-1.5664,-1.5254,-1.5177,-1.5323,-1.542,-1.542,-1.542,-1.541,-1.5342,-1.5264,-2.3101,-2.3101,-2.3101,-2.3101,-2.3101,-2.3101,-2.3101,-2.3101,-2.3101,-2.3101,-2.3101,-2.3101,-2.3101,-2.3101,-2.3101,-2.3101,-2.3101,-2.3101,-2.3101,-2.3101,-2.3101,-2.3101,-2.3101,-2.3101,-2.3101,-2.3101,-2.3101,-2.3101,-2.3101,-2.3101,-2.3101,-2.3101,-2.3101,-2.3101,-2.3101,-2.3101,-2.3101,-2.3101,-2.3101,-2.3101,-2.3101,-2.3081,-2.3003,-2.2818,-2.2604,-2.2389,-2.2116,-2.1572,-2.1484,-2.1641,-2.1085,-2.0791,-2.1006,-2.084,-2.0615,-2.0615,-2.0615,-2.0615,-2.0615,-2.0566,-2.0615,-2.0605,-2.0605,-2.0615,-2.0489,-2.0001,-1.9559,-1.9085,-1.839,-1.7577,-1.6846,-1.7017,-1.6805,-1.6723,-1.6731,-1.6968,-1.6927,-1.6519,-1.6314,-1.5951,-1.5628,-1.5752,-1.5835,-1.5794,-1.6041,-1.6281,-1.6108,-1.588,-1.6179,-1.6431,-1.6292,-1.6214,-1.6519,-1.6819,-1.7182,-1.7501,-1.7896,-1.7974,-1.8008,-1.7978,-1.791,-1.7646,-1.7275,-1.6843,-1.6357,-1.5733,-1.5097,-1.5079,-1.5352,-1.5391,-1.542,-1.542,-1.542,-1.541,-1.5273,-2.3101,-2.3101,-2.3101,-2.3101,-2.3101,-2.3101,-2.3101,-2.3101,-2.3101,-2.3101,-2.3101,-2.3101,-2.3101,-2.3101,-2.3101,-2.3101,-2.3101,-2.3101,-2.3101,-2.3101,-2.3101,-2.3101,-2.3101,-2.3101,-2.3101,-2.3101,-2.3101,-2.3101,-2.3101,-2.3101,-2.3101,-2.3101,-2.3101,-2.3101,-2.3101,-2.3101,-2.3101,-2.3101,-2.3101,-2.3101,-2.3101,-2.3101,-2.3091,-2.2994,-2.2818,-2.2485,-2.2155,-2.1938,-2.1836,-2.1301,-2.1129,-2.0967,-2.1123,-2.083,-2.0391,-2.0206,-2.004,-1.9844,-1.9883,-2.004,-2.0489,-2.0527,-2.0245,-2.005,-1.9962,-1.9244,-1.831,-1.7989,-1.7415,-1.6437,-1.5752,-1.6041,-1.5835,-1.5711,-1.5835,-1.6239,-1.6437,-1.5827,-1.5387,-1.5103,-1.4817,-1.4531,-1.4538,-1.4328,-1.4531,-1.5019,-1.4929,-1.458,-1.4916,-1.5473,-1.541,-1.5197,-1.5325,-1.5877,-1.6749,-1.7182,-1.7579,-1.7862,-1.7862,-1.7954,-1.7862,-1.7711,-1.7422,-1.6953,-1.6456,-1.591,-1.5301,-1.5312,-1.5323,-1.5118,-1.5021,-1.5323,-1.542,-1.5352,-1.5158,-2.3101,-2.3101,-2.3101,-2.3101,-2.3101,-2.3101,-2.3101,-2.3101,-2.3101,-2.3101,-2.3101,-2.3101,-2.3101,-2.3101,-2.3101,-2.3101,-2.3101,-2.3101,-2.3101,-2.3101,-2.3101,-2.3101,-2.3101,-2.3101,-2.3101,-2.3101,-2.3101,-2.3101,-2.3101,-2.3101,-2.3101,-2.3101,-2.3101,-2.3101,-2.3101,-2.3101,-2.3101,-2.3101,-2.3101,-2.3101,-2.3101,-2.3091,-2.3047,-2.3003,-2.2931,-2.2576,-2.154,-2.1964,-2.197,-2.1234,-2.0936,-2.091,-2.0918,-2.0423,-1.9858,-1.9344,-1.9094,-1.8767,-1.851,-1.9313,-2.0362,-2.0284,-1.9844,-1.9362,-1.9323,-1.8141,-1.709,-1.6396,-1.6067,-1.5428,-1.4699,-1.4328,-1.4657,-1.4776,-1.4943,-1.4985,-1.5103,-1.4901,-1.4454,-1.425,-1.4173,-1.413,-1.4088,-1.4088,-1.4088,-1.4573,-1.4594,-1.4287,-1.3892,-1.424,-1.4193,-1.408,-1.405,-1.4768,-1.6184,-1.6645,-1.6793,-1.7148,-1.7398,-1.7613,-1.7774,-1.762,-1.7555,-1.7012,-1.6509,-1.6005,-1.5496,-1.5203,-1.4901,-1.4647,-1.4638,-1.4844,-1.4874,-1.4717,-1.454,-2.3101,-2.3101,-2.3101,-2.3101,-2.3101,-2.3101,-2.3101,-2.3101,-2.3101,-2.3101,-2.3101,-2.3101,-2.3101,-2.3101,-2.3101,-2.3101,-2.3101,-2.3101,-2.3101,-2.3101,-2.3101,-2.3101,-2.3101,-2.3101,-2.3101,-2.3101,-2.3101,-2.3101,-2.3101,-2.3101,-2.3101,-2.3101,-2.3101,-2.3101,-2.3101,-2.3101,-2.3101,-2.3101,-2.3101,-2.3101,-2.3101,-2.3047,-2.2775,-2.2031,-2.2906,-2.2403,-2.1647,-2.2126,-2.2079,-2.1646,-2.0857,-2.0578,-2.0297,-1.9539,-1.8857,-1.8338,-1.8136,-1.7701,-1.7416,-1.8126,-1.8829,-1.9511,-1.9244,-1.8935,-1.8665,-1.7383,-1.6404,-1.5662,-1.5131,-1.4614,-1.4341,-1.413,-1.4208,-1.413,-1.4088,-1.4088,-1.4088,-1.4088,-1.4088,-1.413,-1.413,-1.4088,-1.4088,-1.4088,-1.4088,-1.4166,-1.4104,-1.3988,-1.3686,-1.3407,-1.3514,-1.3519,-1.3539,-1.3688,-1.4994,-1.5517,-1.5869,-1.6367,-1.6862,-1.7113,-1.7364,-1.7842,-1.7701,-1.7135,-1.6381,-1.5714,-1.513,-1.4773,-1.4483,-1.424,-1.4183,-1.4273,-1.4204,-1.4046,-1.3837,-2.2775,-2.3091,-2.3101,-2.3101,-2.3101,-2.3101,-2.3101,-2.3101,-2.3101,-2.3101,-2.3101,-2.3101,-2.3101,-2.3101,-2.3101,-2.3101,-2.3101,-2.3101,-2.3101,-2.3101,-2.3101,-2.3101,-2.3101,-2.3101,-2.3101,-2.3101,-2.3101,-2.3101,-2.3101,-2.3101,-2.3101,-2.3101,-2.3101,-2.3101,-2.3101,-2.3101,-2.3101,-2.3101,-2.3101,-2.3101,-2.3101,-2.2633,-2.2677,-2.1845,-2.2403,-2.1765,-2.1212,-2.1376,-2.1271,-2.0611,-1.9963,-1.9599,-1.9178,-1.8591,-1.7865,-1.7447,-1.7201,-1.6992,-1.676,-1.7188,-1.7642,-1.8341,-1.798,-1.7959,-1.7662,-1.6469,-1.543,-1.544,-1.4792,-1.4309,-1.4262,-1.4249,-1.4168,-1.4155,-1.4095,-1.4088,-1.4088,-1.4088,-1.4088,-1.413,-1.4088,-1.4088,-1.4088,-1.4088,-1.4088,-1.4088,-1.4075,-1.4035,-1.3901,-1.3607,-1.334,-1.3311,-1.3216,-1.3446,-1.3768,-1.4322,-1.4942,-1.5623,-1.6079,-1.6393,-1.6749,-1.7217,-1.7249,-1.6434,-1.5731,-1.5197,-1.4619,-1.3986,-1.3838,-1.3803,-1.3704,-1.3545,-1.3265,-1.3075,-1.2992,-2.2085,-2.3047,-2.3101,-2.3101,-2.3101,-2.3101,-2.3101,-2.3101,-2.3101,-2.3101,-2.3101,-2.3101,-2.3101,-2.3101,-2.3101,-2.3101,-2.3101,-2.3101,-2.3101,-2.3101,-2.3101,-2.3101,-2.3101,-2.3101,-2.3101,-2.3101,-2.3101,-2.3101,-2.3101,-2.3101,-2.3101,-2.3101,-2.3101,-2.3101,-2.3101,-2.3101,-2.3101,-2.3101,-2.3101,-2.3101,-2.2906,-2.2262,-2.2306,-2.2217,-2.2173,-2.1489,-2.0765,-2.106,-2.0713,-1.9226,-1.8977,-1.8663,-1.8254,-1.7988,-1.7367,-1.6697,-1.6623,-1.6126,-1.5359,-1.6519,-1.7105,-1.7343,-1.7053,-1.6677,-1.6164,-1.5361,-1.4831,-1.5129,-1.4936,-1.473,-1.4623,-1.4496,-1.4369,-1.4242,-1.4188,-1.4122,-1.4122,-1.4088,-1.4088,-1.4088,-1.4088,-1.4088,-1.4088,-1.4088,-1.4088,-1.4088,-1.4088,-1.4041,-1.3981,-1.3748,-1.338,-1.3192,-1.3105,-1.307,-1.3279,-1.3477,-1.4019,-1.4728,-1.5226,-1.5438,-1.5685,-1.6009,-1.5856,-1.5497,-1.5135,-1.4705,-1.3885,-1.3064,-1.2926,-1.2787,-1.2818,-1.2665,-1.2351,-1.2104,-1.205,-2.2031,-2.3101,-2.3101,-2.3101,-2.3101,-2.3101,-2.3101,-2.3101,-2.3101,-2.3101,-2.3101,-2.3101,-2.3101,-2.3101,-2.3101,-2.3101,-2.3101,-2.3101,-2.3101,-2.3101,-2.3101,-2.3101,-2.3101,-2.3101,-2.3101,-2.3101,-2.3101,-2.3101,-2.3101,-2.3101,-2.3101,-2.3101,-2.3101,-2.3101,-2.3101,-2.3101,-2.3101,-2.3101,-2.3101,-2.3091,-2.3047,-2.2633,-2.2262,-2.2076,-2.2217,-2.1667,-2.0531,-2.098,-2.0205,-1.8755,-1.8632,-1.7803,-1.7333,-1.7049,-1.6306,-1.585,-1.5743,-1.5435,-1.5078,-1.5638,-1.6088,-1.6361,-1.648,-1.6174,-1.6293,-1.5408,-1.5061,-1.4995,-1.5062,-1.4923,-1.4874,-1.4816,-1.4747,-1.4476,-1.4376,-1.4249,-1.4195,-1.4122,-1.4088,-1.4088,-1.4088,-1.4088,-1.4088,-1.4088,-1.4088,-1.4088,-1.4088,-1.4088,-1.4035,-1.3801,-1.346,-1.3206,-1.3022,-1.2852,-1.2834,-1.3015,-1.3032,-1.3484,-1.3947,-1.4235,-1.4522,-1.4879,-1.4934,-1.4824,-1.4513,-1.4164,-1.3268,-1.2469,-1.1918,-1.1686,-1.181,-1.1779,-1.1476,-1.1226,-1.1076,-2.0764,-2.181,-2.1854,-2.1863,-2.1996,-2.2731,-2.3101,-2.3101,-2.3101,-2.3101,-2.3101,-2.3101,-2.3101,-2.3101,-2.3101,-2.3101,-2.3101,-2.3101,-2.3101,-2.3101,-2.3101,-2.3101,-2.3101,-2.3101,-2.3101,-2.3101,-2.3101,-2.3101,-2.3101,-2.3101,-2.3101,-2.3101,-2.3101,-2.3101,-2.3101,-2.3101,-2.3101,-2.3101,-2.3101,-2.3101,-2.296,-2.2633,-2.2262,-2.2173,-2.2085,-2.18,-2.0989,-2.0532,-2.0148,-1.9077,-1.7926,-1.6937,-1.6447,-1.6028,-1.5538,-1.5471,-1.5404,-1.5323,-1.533,-1.533,-1.5882,-1.6178,-1.6149,-1.61,-1.6077,-1.5342,-1.526,-1.5229,-1.515,-1.5124,-1.5156,-1.5156,-1.4997,-1.477,-1.4636,-1.4516,-1.4315,-1.4255,-1.4155,-1.4148,-1.4088,-1.4088,-1.4088,-1.4088,-1.4088,-1.4088,-1.4088,-1.4088,-1.4088,-1.3888,-1.3606,-1.3367,-1.3132,-1.2954,-1.2736,-1.2563,-1.2516,-1.2342,-1.2769,-1.3353,-1.36,-1.3975,-1.4053,-1.4038,-1.3573,-1.3054,-1.2563,-1.1936,-1.1457,-1.1083,-1.0926,-1.0832,-1.0586,-1.0586,-1.0586,-1.8457,-1.9405,-1.9497,-1.9633,-1.9951,-2.1863,-2.2818,-2.3003,-2.3003,-2.3003,-2.3101,-2.3101,-2.3101,-2.3101,-2.3101,-2.3101,-2.3101,-2.3101,-2.3101,-2.3101,-2.3101,-2.3101,-2.3101,-2.3101,-2.3101,-2.3101,-2.3101,-2.3101,-2.3101,-2.3101,-2.3101,-2.3101,-2.3101,-2.3101,-2.3101,-2.3101,-2.3101,-2.3101,-2.3101,-2.3101,-2.3003,-2.2306,-2.2217,-2.2129,-2.1898,-2.1033,-2.0169,-1.9526,-1.8334,-1.722,-1.6089,-1.5913,-1.5812,-1.5818,-1.5825,-1.5812,-1.5778,-1.5738,-1.5712,-1.5691,-1.5712,-1.5871,-1.554,-1.5342,-1.5329,-1.534,-1.5355,-1.5418,-1.5458,-1.5424,-1.5398,-1.5344,-1.5284,-1.5124,-1.5035,-1.479,-1.4543,-1.4409,-1.4295,-1.4215,-1.4115,-1.4088,-1.4088,-1.4088,-1.4088,-1.4088,-1.4088,-1.4088,-1.4088,-1.4082,-1.3848,-1.3547,-1.3327,-1.308,-1.2819,-1.2576,-1.2371,-1.2338,-1.2342,-1.2739,-1.2952,-1.3157,-1.3215,-1.3071,-1.2464,-1.2026,-1.1878,-1.1509,-1.1062,-1.076,-1.0613,-1.0586,-1.0586,-1.0586,-1.0586,-1.8411,-1.9443,-1.9497,-1.9497,-1.9588,-2.0215,-2.1006,-2.1784,-2.1863,-2.2217,-2.3101,-2.3091,-2.2862,-2.3101,-2.3101,-2.3047,-2.3047,-2.3101,-2.3101,-2.3101,-2.3101,-2.3101,-2.3101,-2.3101,-2.3101,-2.3101,-2.3101,-2.3101,-2.3101,-2.3101,-2.3101,-2.3101,-2.3101,-2.3101,-2.3101,-2.3101,-2.3101,-2.3047,-2.3003,-2.3003,-2.296,-2.2448,-2.2271,-2.181,-2.1489,-2.0486,-1.9579,-1.8642,-1.763,-1.7217,-1.6197,-1.5825,-1.5825,-1.5825,-1.5825,-1.5825,-1.5818,-1.5818,-1.5825,-1.5825,-1.5825,-1.5825,-1.5625,-1.5645,-1.5591,-1.5471,-1.5457,-1.5565,-1.5585,-1.5478,-1.5565,-1.5578,-1.5504,-1.5378,-1.5244,-1.5077,-1.4823,-1.4589,-1.4456,-1.4182,-1.4088,-1.4088,-1.4088,-1.4088,-1.4088,-1.4088,-1.4088,-1.4088,-1.4088,-1.4088,-1.4021,-1.3768,-1.35,-1.3293,-1.3025,-1.2737,-1.2549,-1.2378,-1.2409,-1.2382,-1.2519,-1.2645,-1.2501,-1.2357,-1.2184,-1.1855,-1.1484,-1.1216,-1.1115,-1.0774,-1.0606,-1.0593,-1.0586,-1.0586,-1.0586,-1.735,-1.7987,-1.8025,-1.8033,-1.8033,-1.8025,-1.8772,-1.9824,-2.0404,-2.1078,-2.1632,-2.1632,-2.1676,-2.1587,-2.1543,-2.181,-2.2315,-2.2306,-2.2492,-2.3101,-2.3047,-2.3101,-2.3101,-2.3101,-2.3101,-2.3101,-2.3101,-2.3101,-2.3101,-2.3101,-2.3101,-2.3101,-2.3101,-2.3101,-2.3101,-2.3101,-2.3101,-2.2916,-2.2731,-2.2731,-2.2633,-2.2315,-2.1445,-2.1266,-2.0899,-1.9898,-1.8948,-1.787,-1.7544,-1.7084,-1.6015,-1.5825,-1.5825,-1.5825,-1.5825,-1.5825,-1.5825,-1.5825,-1.5825,-1.5825,-1.5825,-1.5825,-1.5825,-1.5812,-1.5704,-1.5544,-1.5624,-1.5691,-1.5531,-1.5484,-1.5671,-1.5805,-1.5698,-1.5591,-1.5471,-1.5357,-1.509,-1.481,-1.4509,-1.4182,-1.4088,-1.4088,-1.4088,-1.4088,-1.4088,-1.4088,-1.4088,-1.4088,-1.4088,-1.4088,-1.4062,-1.3921,-1.3673,-1.3453,-1.3193,-1.2978,-1.2811,-1.2632,-1.2589,-1.2543,-1.2385,-1.2298,-1.2345,-1.2298,-1.2178,-1.1891,-1.1623,-1.1503,-1.1377,-1.1022,-1.0734,-1.072,-1.068,-1.0586,-1.0586,-1.5825,-1.592,-1.5825,-1.6015,-1.5825,-1.5967,-1.6615,-1.7591,-1.8672,-1.936,-1.9588,-1.9588,-1.9761,-2.0042,-2.0042,-2.0486,-2.0944,-2.1212,-2.1756,-2.2906,-2.2721,-2.2765,-2.3047,-2.3101,-2.3101,-2.3101,-2.3101,-2.3101,-2.3101,-2.3101,-2.3101,-2.3091,-2.3101,-2.3101,-2.3101,-2.3101,-2.3047,-2.2916,-2.2085,-2.1534,-2.1952,-2.1177,-1.9997,-2.0466,-1.9869,-1.8818,-1.7917,-1.7318,-1.7037,-1.6197,-1.5825,-1.5825,-1.5825,-1.5825,-1.5825,-1.5825,-1.5825,-1.5825,-1.5825,-1.5825,-1.5825,-1.5825,-1.5825,-1.5825,-1.5738,-1.5556,-1.5582,-1.5691,-1.5591,-1.5578,-1.5725,-1.5805,-1.5758,-1.5718,-1.5658,-1.5504,-1.5271,-1.4943,-1.4563,-1.4275,-1.4122,-1.4115,-1.4088,-1.4088,-1.4088,-1.4088,-1.4088,-1.4088,-1.4088,-1.4088,-1.4068,-1.4028,-1.3901,-1.3673,-1.3473,-1.3273,-1.308,-1.2978,-1.2864,-1.269,-1.2563,-1.2412,-1.2305,-1.2265,-1.2218,-1.2084,-1.1919,-1.1772,-1.1564,-1.1216,-1.0975,-1.0875,-1.0775,-1.0693,-1.0613,-1.5825,-1.5825,-1.5825,-1.5825,-1.5825,-1.5825,-1.5967,-1.6244,-1.652,-1.7755,-1.9222,-1.9451,-1.936,-1.9177,-1.9177,-1.9534,-1.9815,-1.9988,-2.0666,-2.1525,-2.1889,-2.2536,-2.3003,-2.3101,-2.3047,-2.3101,-2.3101,-2.296,-2.2906,-2.296,-2.3047,-2.3047,-2.2906,-2.2731,-2.2916,-2.2916,-2.2687,-2.2687,-2.1266,-2.0666,-2.1078,-2.1078,-2.0531,-1.9368,-1.8048,-1.7537,-1.6756,-1.6292,-1.615,-1.5825,-1.5825,-1.5825,-1.5825,-1.5825,-1.5825,-1.5825,-1.5825,-1.5825,-1.5825,-1.5825,-1.5825,-1.5825,-1.5825,-1.5825,-1.5717,-1.5507,-1.5475,-1.5617,-1.5644,-1.5664,-1.5684,-1.5785,-1.5825,-1.5825,-1.5818,-1.5625,-1.5424,-1.503,-1.4629,-1.4402,-1.4208,-1.4128,-1.4095,-1.4088,-1.4088,-1.4088,-1.4088,-1.4088,-1.4088,-1.4088,-1.4088,-1.4062,-1.4068,-1.3915,-1.3706,-1.356,-1.34,-1.324,-1.312,-1.2913,-1.271,-1.2465,-1.2305,-1.2305,-1.2258,-1.2144,-1.2067,-1.1926,-1.1698,-1.141,-1.1276,-1.1176,-1.0989,-1.0855,-1.0754,-1.5825,-1.5825,-1.5825,-1.5825,-1.5825,-1.5825,-1.5825,-1.5825,-1.5825,-1.6567,-1.7708,-1.7848,-1.7894,-1.7894,-1.7848,-1.8403,-1.8588,-1.8688,-1.9943,-2.089,-2.1248,-2.2164,-2.2624,-2.2916,-2.2536,-2.2492,-2.235,-2.2262,-2.2306,-2.2262,-2.2217,-2.2262,-2.2031,-2.1898,-2.2129,-2.1996,-2.1952,-2.212,-2.0314,-1.9761,-1.9852,-1.9169,-1.8894,-1.7544,-1.7084,-1.648,-1.6197,-1.5825,-1.5825,-1.5825,-1.5825,-1.5825,-1.5825,-1.5825,-1.5825,-1.5825,-1.5825,-1.5825,-1.5825,-1.5825,-1.5825,-1.5825,-1.5825,-1.5825,-1.5825,-1.5615,-1.5615,-1.5718,-1.5711,-1.5718,-1.5778,-1.5818,-1.5825,-1.5825,-1.5798,-1.5685,-1.5424,-1.5084,-1.4743,-1.4482,-1.4289,-1.4108,-1.4088,-1.4088,-1.4088,-1.4088,-1.4088,-1.4088,-1.4088,-1.4088,-1.4088,-1.4088,-1.4088,-1.4075,-1.3948,-1.3834,-1.3721,-1.3567,-1.3373,-1.3113,-1.2864,-1.2512,-1.2305,-1.2305,-1.2291,-1.2245,-1.2124,-1.2067,-1.194,-1.169,-1.1577,-1.1483,-1.1269,-1.1035,-1.0855,-1.5825,-1.5825,-1.5825,-1.5825,-1.5825,-1.5825,-1.5825,-1.5825,-1.5825,-1.5825,-1.6008,-1.6008,-1.5825,-1.5825,-1.5872,-1.6622,-1.7131,-1.7404,-1.8848,-2.0079,-2.0531,-2.1033,-2.1721,-2.2325,-2.1721,-2.1302,-2.1114,-2.1069,-2.1069,-2.1078,-2.1078,-2.098,-2.0711,-2.0305,-2.0666,-2.0576,-2.0531,-2.0621,-1.9679,-1.8726,-1.7723,-1.6622,-1.6983,-1.6897,-1.648,-1.5872,-1.5825,-1.5825,-1.5825,-1.5825,-1.5825,-1.5825,-1.5825,-1.5825,-1.5825,-1.5825,-1.5825,-1.5825,-1.5825,-1.5825,-1.5825,-1.5825,-1.5825,-1.5825,-1.5825,-1.5778,-1.5778,-1.5771,-1.5764,-1.5812,-1.5818,-1.5825,-1.5825,-1.5825,-1.5785,-1.5711,-1.5471,-1.5164,-1.4863,-1.4583,-1.4362,-1.4162,-1.4102,-1.4095,-1.4088,-1.4088,-1.4088,-1.4088,-1.4088,-1.4088,-1.4088,-1.4088,-1.4088,-1.4075,-1.4062,-1.4001,-1.3901,-1.3848,-1.3661,-1.332,-1.3025,-1.2692,-1.2452,-1.2305,-1.2285,-1.2265,-1.2271,-1.2218,-1.2078,-1.1931,-1.1904,-1.179,-1.1476,-1.1236,-1.0975,-1.5825,-1.5825,-1.5825,-1.5825,-1.5825,-1.5825,-1.5825,-1.5825,-1.5825,-1.5825,-1.5825,-1.5825,-1.5825,-1.5825,-1.5825,-1.615,-1.6339,-1.6386,-1.7037,-1.818,-1.8864,-1.9451,-2.0042,-2.0638,-2.0178,-1.9943,-1.9852,-1.9852,-1.9852,-1.9898,-2.0305,-2.089,-2.0935,-2.08,-2.0935,-2.0612,-2.0025,-1.9716,-1.8818,-1.777,-1.7824,-1.7084,-1.6756,-1.6473,-1.592,-1.5825,-1.5825,-1.5825,-1.5825,-1.5825,-1.5825,-1.5825,-1.5825,-1.5825,-1.5825,-1.5825,-1.5825,-1.5825,-1.5825,-1.5825,-1.5825,-1.5825,-1.5825,-1.5825,-1.5825,-1.5825,-1.5778,-1.5778,-1.5818,-1.5818,-1.5825,-1.5825,-1.5825,-1.5825,-1.5805,-1.5805,-1.5665,-1.5311,-1.497,-1.4703,-1.4456,-1.4282,-1.4148,-1.4128,-1.4088,-1.4088,-1.4088,-1.4088,-1.4088,-1.4088,-1.4088,-1.4088,-1.4088,-1.4088,-1.4082,-1.4075,-1.4008,-1.3995,-1.3901,-1.3547,-1.3213,-1.2924,-1.2703,-1.2472,-1.2345,-1.2291,-1.2305,-1.2305,-1.2271,-1.2151,-1.2204,-1.2098,-1.175,-1.147,-1.1236]},{"header":{"parameterUnit":"m.s-1","parameterCategory":1,"la1":31.0,"la2":29.5877,"lo1":-88.7671,"lo2":-86.6584,"dy":0.0162,"dx":0.0185,"nx":115,"ny":88,"refTime":"2024-05-29T12:00:00:Z","depth":0,"parameterNumber":3,"parameterNumberName":"V-component_of_WINDS"},"data":[0.0,0.0,0.0,0.0,0.0,0.0,0.0,0.0,0.0,0.0,0.0,0.0,0.0,0.0,0.0,0.0,0.0,0.0,0.0,0.0,0.0,0.0,0.0,0.0,0.0,0.0,0.0,0.0,0.0,0.0,0.0,0.0,0.0,0.0,0.0,0.0,0.0,0.0,0.0,0.0,0.0,0.0,0.0,0.0,0.0,0.0,0.0,0.0,0.0,0.0,0.0,0.0,0.0,0.0,0.0,0.0,0.0,0.0,0.0,0.0,0.0,0.0,0.0,0.0,0.0,0.0,0.0,0.0,0.0,0.0,0.0,0.0,0.0,0.0,0.0,0.0,0.0,0.0,0.0,0.0,0.0,0.0,0.0,0.0,0.0,0.0,0.0,0.0,0.0,0.0,0.0,0.0,0.0,0.0,0.0,0.0,0.0,0.0,0.0,0.0,0.0,0.0,0.0,0.0,0.0,0.0,0.0,0.0,0.0,0.0,0.0,0.0,0.0,0.0,0.0,0.0,0.0,0.0,0.0,0.0,0.0,0.0,0.0,0.0,0.0,0.0,0.0,0.0,0.0,0.0,0.0,0.0,0.0,0.0,0.0,0.0,0.0,0.0,0.0,0.0,0.0,0.0,0.0,0.0,0.0,0.0,0.0,0.0,0.0,0.0,0.0,0.0,0.0,0.0,0.0,0.0,0.0,0.0,0.0,0.0,0.0,0.0,0.0,0.0,0.0,0.0,0.0,0.0,0.0,0.0,0.0,0.0,0.0,0.0,0.0,0.0,0.0,0.0,0.0,0.0,0.0,0.0,0.0,0.0,0.0,0.0,0.0,0.0,0.0,0.0,0.0,0.0,0.0,0.0,0.0,0.0,0.0,0.0,0.0,0.0,0.0,0.0,0.0,0.0,0.0,0.0,0.0,0.0,0.0,0.0,0.0,0.0,0.0,0.0,0.0,0.0,0.0,0.0,0.0,0.0,0.0,0.0,0.0,0.0,0.0,0.0,0.0,0.0,0.0,0.0,0.0,0.0,0.0,0.0,0.0,0.0,0.0,0.0,0.0,0.0,0.0,0.0,0.0,0.0,0.0,0.0,0.0,0.0,0.0,0.0,0.0,0.0,0.0,0.0,0.0,0.0,0.0,0.0,0.0,0.0,0.0,0.0,0.0,0.0,0.0,0.0,0.0,0.0,0.0,0.0,0.0,0.0,0.0,0.0,0.0,0.0,0.0,0.0,0.0,0.0,0.0,0.0,0.0,0.0,0.0,0.0,0.0,0.0,0.0,0.0,0.0,0.0,0.0,0.0,0.0,0.0,0.0,0.0,0.0,0.0,0.0,0.0,0.0,0.0,0.0,0.0,0.0,0.0,0.0,0.0,0.0,0.0,0.0,0.0,0.0,0.0,0.0,0.0,0.0,0.0,0.0,0.0,0.0,0.0,0.0,0.0,0.0,0.0,0.0,0.0,0.0,0.0,0.0,0.0,0.0,0.0,0.0,0.0,0.0,0.0,0.0,0.0,0.0,0.0,0.0,0.0,0.0,0.0,0.0,0.0,0.0,0.0,0.0,0.0,0.0,0.0,0.0,0.0,0.0,0.0,0.0,0.0,0.0,0.0,0.0,0.0,0.0,0.0,0.0,0.0,0.0,0.0,0.0,0.0,0.0,0.0,0.0,0.0,0.0,0.0,0.0,0.0,0.0,0.0,0.0,0.0,0.0,0.0,0.0,0.0,0.0,0.0,0.0,0.0,0.0,0.0,0.0,0.0,0.0,0.0,0.0,0.0,0.0,0.0,0.0,0.0,0.0,0.0,0.0,0.0,0.0,0.0,0.0,0.0,0.0,0.0,0.0,0.0,0.0,0.0,0.0,0.0,0.0,0.0,0.0,0.0,0.0,0.0,0.0,0.0,0.0,0.0,0.0,0.0,0.0,0.0,0.0,0.0,0.0,0.0,0.0,0.0,0.0,0.0,0.0,0.0,0.0,0.0,0.0,0.0,0.0,0.0,0.0,0.0,0.0,0.0,0.0,0.0,0.0,0.0,0.0,0.0,0.0,0.0,0.0,0.0,0.0,0.0,0.0,0.0,0.0,0.0,0.0,0.0,0.0,0.0,0.0,0.0,0.0,0.0,0.0,0.0,0.0,0.0,0.0,0.0,0.0,0.0,0.0,0.0,0.0,0.0,0.0,0.0,0.0,0.0,0.0,0.0,0.0,0.0,0.0,0.0,0.0,0.0,0.0,0.0,0.0,0.0,0.0,0.0,0.0,0.0,0.0,0.0,0.0,0.0,0.0,0.0,0.0,0.0,0.0,0.0,0.0,0.0,0.0,0.0,0.0,0.0,0.0,0.0,0.0,0.0,0.0,0.0,0.0,0.0,0.0,0.0,0.0,0.0,0.0,0.0,0.0,0.0,0.0,0.0,0.0,0.0,0.0,0.0,0.0,0.0,0.0,0.0,0.0,0.0,0.0,0.0,0.0,0.0,0.0,0.0,0.0,0.0,0.0,0.0,0.0,0.0,0.0,0.0,0.0,0.0,0.0,0.0,0.0,0.0,0.0,0.0,0.0,0.0,0.0,0.0,0.0,0.0,0.0,0.0,0.0,0.0,0.0,0.0,0.0,0.0,0.0,0.0,0.0,0.0,0.0,0.0,0.0,0.0,0.0,0.0,0.0,0.0,0.0,0.0,0.0,0.0,0.0,0.0,0.0,0.0,0.0,0.0,0.0,0.0,0.0,0.0,0.0,0.0,0.0,0.0,0.0,0.0,0.0,0.0,0.0,0.0,0.0,0.0,0.0,0.0,0.0,0.0,0.0,0.0,0.0,0.0,0.0,0.0,0.0,0.0,0.0,0.0,0.0,0.0,0.0,0.0,0.0,0.0,0.0,0.0,0.0,0.0,0.0,0.0,0.0,0.0,0.0,0.0,0.0,0.0,0.0,0.0,0.0,0.0,0.0,0.0,0.0,0.0,0.0,0.0,0.0,0.0,0.0,0.0,0.0,0.0,0.0,0.0,0.0,0.0,0.0,0.0,0.0,0.0,0.0,0.0,0.0,0.0,0.0,0.0,0.0,0.0,0.0,0.0,0.0,0.0,0.0,0.0,0.0,0.0,0.0,0.0,0.0,0.0,0.0,0.0,0.0,0.0,0.0,0.0,0.0,0.0,0.0,0.0,0.0,0.0,0.0,0.0,0.0,0.0,0.0,0.0,0.0,0.0,0.0,0.0,0.0,0.0,0.0,0.0,0.0,0.0,0.0,0.0,0.0,0.0,0.0,0.0,0.0,0.0,0.0,0.0,0.0,0.0,0.0,0.0,0.0,0.0,0.0,0.0,0.0,0.0,0.0,0.0,0.0,0.0,0.0,0.0,0.0,0.0,0.0,0.0,0.0,0.0,0.0,0.0,0.0,0.0,0.0,0.0,0.0,0.0,0.0,0.0,0.0,0.0,0.0,0.0,0.0,0.0,0.0,0.0,0.0,0.0,0.0,0.0,0.0,0.0,0.0,0.0,0.0,0.0,0.0,0.0,0.0,0.0,0.0,0.0,0.0,0.0,0.0,0.0,0.0,0.0,0.0,0.0,0.0,0.0,0.0,0.0,0.0,0.0,0.0,0.0,0.0,0.0,0.0,0.0,0.0,0.0,0.0,0.0,0.0,0.0,0.0,0.0,0.0,0.0,0.0,0.0,0.0,0.0,0.0,0.0,0.0,0.0,0.0,0.0,0.0,0.0,0.0,0.0,0.0,0.0,0.0,0.0,0.0,0.0,0.0,0.0,0.0,0.0,0.0,0.0,0.0,0.0,0.0,0.0,0.0,0.0,0.0,0.0,0.0,0.0,0.0,0.0,0.0,0.0,0.0,0.0,0.0,0.0,0.0,0.0,0.0,0.0,0.0,0.0,0.0,0.0,0.0,0.0,0.0,0.0,0.0,0.0,0.0,0.0,0.0,0.0,0.0,0.0,0.0,0.0,0.0,0.0,0.0,0.0,0.0,0.0,0.0,0.0,0.0,0.0,0.0,0.0,0.0,0.0,0.0,0.0,0.0,0.0,0.0,0.0,0.0,0.0,0.0,0.0,0.0,0.0,0.0,0.0,0.0,0.0,0.0,0.0,0.0,0.0,0.0,0.0,0.0,0.0,0.0,0.0,0.0,0.0,0.0,0.0,0.0,0.0,0.0,0.0,0.0,0.0,0.0,0.0,0.0,0.0,0.0,0.0,0.0,0.0,0.0,0.0,0.0,0.0,0.0,0.0,0.0,0.0,0.0,0.0,0.0,0.0,-0.2098,0.0,0.0,0.0,0.0,0.0,0.0,0.0,0.0,0.0,0.0,0.0,0.0,0.0,0.0,0.0,0.0,0.0,0.0,0.0,0.0,0.0,0.0,0.0,0.0,0.0,0.0,0.0,0.0,0.0,0.0,0.0,0.0,0.0,0.0,0.0,0.0,0.0,0.0,0.0,0.0,0.0,0.0,0.0,0.0,0.0,0.0,0.0,0.0,0.0,0.0,0.0,0.0,0.0,0.0,0.0,0.0,0.0,0.0,0.0,0.0,0.0,0.0,0.0,0.0,0.0,0.0,0.0,0.0,0.0,0.0,0.0,0.0,0.0,0.0,0.0,0.0,0.0,0.0,0.0,0.0,0.0,0.0,0.0,0.0,0.0,0.0,0.0,0.0,0.0,0.0,0.0,0.0,0.0,0.0,0.0,0.0,0.0,0.0,0.0,0.0,0.0,0.0,0.0,0.0,0.0,0.0,0.0,0.0,0.0,0.0,0.1185,0.0308,-0.0267,-0.0769,-0.1117,0.0,0.0,0.0,0.0,0.0,0.0,0.0,0.0,0.0,0.0,0.0,0.0,0.0,0.0,0.0,0.0,0.0,0.0,0.0,0.0,0.0,0.0,0.0,0.0,0.0,0.0,0.0,0.0,0.0,0.0,0.0,0.0,0.0,0.0,0.0,0.0,0.0,0.0,0.0,0.0,0.0,0.0,0.0,0.0,0.0,0.0,0.0,0.0,0.0,0.0,0.0,0.0,0.0,0.0,0.0,0.0,0.0,0.0,0.0,0.0,0.0,0.0,0.0,0.0,0.0,0.0,0.0,0.0,0.0,0.0,0.0,0.0,0.0,0.0,0.0,0.0,0.0,0.0,0.0,0.0,0.0,0.0,0.0,0.0,0.0,0.0,0.0,0.0,0.0,0.0,0.0,0.0,0.0,0.0,0.0,0.0,0.0,0.0,0.0,0.0,0.0,0.0,0.0,0.0,0.0,0.0,0.0,0.0,0.0,0.0,0.0,0.0,0.0595,0.0,0.0,0.0,0.0,0.0,0.0,0.0,0.0,0.0,0.0,0.0,0.0,0.0,0.0,0.0,0.0,0.0,0.0,0.0,0.0,0.0,0.0,0.0,0.0,0.0,0.0,0.0,0.0,0.0,0.0,0.0,0.0,0.0,0.0,0.0,0.0,0.0,0.0,0.0,0.0,0.0,0.0,0.0,0.0,0.0,0.0,0.0,0.0,0.0,0.0,0.0,0.0,0.0,0.0,0.0,0.0,0.0,0.0,0.0,0.0,0.0,0.0,0.0,0.0,0.0,0.0,0.0,0.0,0.0,0.0,0.0,0.0,0.0,0.0,0.0,0.0,0.0,0.0,0.0,0.0,0.0,0.0,0.0,0.0,0.0,0.0,0.0,0.0,0.0,0.0,0.0,0.0,0.0,0.0,0.0,0.0,0.0,0.0,0.0,0.0,0.0,0.0,0.0,0.0,0.0,0.0,0.0,0.0,0.0,0.0,0.0,0.0,0.2655,0.1957,0.0696,0.0,0.0,0.0,0.0,0.0,0.0,0.0,0.0,0.0,0.0,0.0,0.0,0.0,0.0,0.0,0.0,0.0,0.0,0.0,0.0,0.0,0.0,0.0,0.0,0.0,0.0,0.0,0.0,0.0,0.0,0.0,0.0,0.0,0.0,0.0,0.0,0.0,0.0,0.0,0.0,0.0,0.0,0.0,0.0,0.0,0.0,0.0,0.0,0.0,0.0,0.0,0.0,0.0,0.0,0.0,0.0,0.0,0.0,0.0,0.0,0.0,0.0,0.0,0.0,0.0,0.0,0.0,0.0,0.0,0.0,0.0,0.0,0.0,0.0,0.0,0.0,0.0,0.0,0.0,0.0,0.0,0.0,0.0,0.0,0.0,0.0,0.0,0.0,0.0,0.0,0.0,0.0,0.0,0.0,0.0,0.0,0.0,0.0,0.0,0.0,0.0,0.0,0.0,0.0,0.0,0.0,0.0,0.0,0.0,0.0,0.0,0.0,0.3004,0.2778,0.0981,0.0,0.0,0.0,0.0,0.0,0.0,0.0,0.0,0.0,0.0,0.0,0.0,0.0,0.0,0.0,0.0,0.0,0.0,0.0,0.0,0.0,0.0,0.0,0.0,0.0,0.0,0.0,0.0,0.0,0.0,0.0,0.0,0.0,0.0,0.0,0.0,0.0,0.0,0.0,0.0,0.0,0.0,0.0,0.0,0.0,0.0,0.0,0.0,0.0,0.0,0.0,0.0,0.0,0.0,0.0,0.0,0.0,0.0,0.0,0.0,0.0,0.0,0.0,0.0,0.0,0.0,0.0,0.0,0.0,0.0,0.0,0.0,0.0,0.0,0.0,0.0,0.0,0.0,0.0,0.0,0.0,0.0,0.0,0.0,0.0,0.0,0.0,0.0,0.0,0.0,0.0,0.0,0.0,0.0,0.0,0.0,0.0,0.0,0.0,0.0,0.0,0.0,0.0,0.0,0.0,0.0,0.0,0.0,0.0,0.0,0.0,0.5019,0.2733,0.1915,0.0374,-0.0465,-0.0458,0.0,0.0,0.0,0.0,0.0,0.0,0.0,0.0,0.0,0.0,0.0,0.0,0.0,0.0,0.0,0.0,0.0,0.0,0.0,0.0,0.0,0.0,0.0,0.0,0.0,0.0,0.0,0.0,0.0,0.0,0.0,0.0,0.0,0.0,0.0,0.0,0.0,0.0,0.0,0.0,0.0,0.0,0.0,0.0,0.0,0.0,0.0,0.0,0.0,0.0,0.0,0.0,0.0,0.0,0.0,0.0,0.0,0.0,0.0,0.0,0.0,0.0,0.0,0.0,0.0,0.0,0.0,0.0,0.0,0.0,0.0,0.0,0.0,0.0,0.0,0.0,0.0,0.0,0.0,0.0,0.0,0.0,0.0,0.0,0.0,0.0,0.0,0.0,0.0,0.0,0.0,0.0,0.0,0.0,0.0,0.0,0.0,0.0,0.0,0.0,0.0,0.0,0.0,0.0,0.0,0.0,0.0,0.0,0.0,0.5518,0.1661,-0.1205,-0.1616,-0.1663,0.0,0.0,0.0,0.0,0.0,0.0,0.0,0.0,0.0,0.0,0.0,0.0,0.0,0.0,0.0,0.0,0.0,0.0,0.0,0.0,0.0,0.0,0.0,0.0,0.0,0.0,0.0,0.0,0.0,0.0,0.0,0.0,0.0,0.0,0.0,0.0,0.0,0.0,0.0,0.0,0.0,0.0,0.0,0.0,0.0,0.0,0.0,0.0,0.0,0.0,0.0,0.0,0.0,0.0,0.0,0.0,0.0,0.0,0.0,0.0,0.0,0.0,0.0,0.0,0.0,0.0,0.0,0.0,0.0,0.0,0.0,0.0,0.0,0.0,0.0,0.0,0.0,0.0,0.0,0.0,0.0,0.0,0.0,0.0,0.0,0.0,0.0,0.0,0.0,0.0,0.0,0.0,0.0,0.0,0.0,0.0,0.0,0.0,0.0,0.0,0.0,0.0,0.0,0.0,0.0,0.0,0.0,0.0,0.0,0.9663,0.5638,0.1729,-0.1671,-0.1604,-0.1602,0.0,0.0,0.0,0.0,0.0,0.0,0.0,0.0,0.0,0.0,0.0,0.0,0.0,0.0,0.0,0.0,0.0,0.0,0.0,0.0,0.0,0.0,0.0,0.0,0.0,0.0,0.0,0.0,0.0,0.0,0.0,0.0,0.0,0.0,0.0,0.0,0.0,0.0,0.0,0.0,0.0,0.0,0.0,0.0,0.0,0.0,0.0,0.0,0.0,0.0,0.0,0.0,0.0,0.0,0.0,0.0,0.0,0.0,0.0,0.0,0.0,0.0,0.0,0.0,0.0,0.0,0.0,0.0,0.0,0.0,0.0,0.0,0.0,0.0,0.0,0.0,0.0,0.0,0.0,0.0,0.0,0.0,0.0,0.0,0.0,0.0,0.0,0.0,0.0,0.0,0.0,0.0,0.0,0.0,0.0,0.0,0.0,0.0,0.0,0.0,0.0,0.0,0.0,0.0,0.0,0.0,0.0,0.0,0.0,0.762,0.0,0.1784,0.0,-0.2084,-0.2207,0.0,0.0,0.0,0.0,0.0,0.0,0.0,0.0,0.0,0.0,0.0,0.0,0.0,0.0,0.0,0.0,0.0,0.0,0.0,0.0,0.0,0.0,0.0,0.0,0.0,0.0,0.0,0.0,0.0,0.0,0.0,0.0,0.0,0.0,0.0,0.0,0.0,0.0,0.0,0.0,0.0,0.0,0.0,0.0,0.0,0.0,0.0,0.0,0.0,0.0,0.0,0.0,0.0,0.0,0.0,0.0,0.0,0.0,0.0,0.0,0.0,0.0,0.0,0.0,0.0,0.0,0.0,0.0,0.0,0.0,0.0,0.0,0.0,0.0,0.0,0.0,0.0,0.0,0.0,0.0,0.0,0.0,0.0,0.0,0.0,0.0,0.0,0.0,0.0,0.0,0.0,0.0,0.0,0.0,0.0,0.0,0.0,0.0,0.0,0.0,0.0,0.0,0.0,0.0,0.0,0.0,0.0,0.0,0.7544,0.3618,0.3774,0.1578,-0.3088,-0.3183,-0.3611,0.0,0.0,0.0,0.0,0.0,0.0,0.0,0.0,0.0,0.0,0.0,0.0,0.0,0.0,0.0,0.0,0.0,0.0,0.0,0.0,0.0,0.0,0.0,0.0,0.0,0.0,0.0,0.0,0.0,0.0,0.0,0.0,0.0,0.0,0.0,0.0,0.0,0.0,0.0,0.0,0.0,0.0,0.0,0.0,0.0,0.0,0.0,0.0,0.0,0.0,0.0,0.0,0.0,0.0,0.0,0.0,0.0,0.0,0.0,0.0,0.0,0.0,0.0,0.0,0.0,0.0,0.0,0.0,0.0,0.0,0.0,0.0,0.0,0.0,0.0,0.0,0.0,0.0,0.0,0.0,0.0,0.0,0.0,0.0,0.0,0.0,0.0,0.0,0.0,0.0,0.0,0.0,0.0,0.0,0.0,0.0,0.0,0.0,0.0,0.0,0.0,0.0,0.0,0.0,0.0,0.0,0.0,0.0,0.0,0.3517,0.2808,0.0477,-0.359,-0.4164,-0.4296,0.0,0.0,0.0,0.0,0.0,0.0,0.0,0.0,0.0,0.0,0.0,0.0,0.0,0.0,0.0,0.0,0.0,0.0,0.0,0.0,0.0,0.0,0.0,0.0,0.0,0.0,0.0,0.0,0.0,0.0,0.0,0.0,0.0,0.0,0.0,0.0,0.0,0.0,0.0,0.0,0.0,0.0,0.0,0.0,0.0,0.0,0.0,0.0,0.0,0.0,0.0,0.0,0.0,0.0,0.0,0.0,0.0,0.0,0.0,0.0,0.0,0.0,0.0,0.0,0.0,0.0,0.0,0.0,0.0,0.0,0.0,0.0,0.0,0.0,0.0,0.0,0.0,0.0,0.0,0.0,0.0,0.0,0.0,0.0,0.0,0.0,0.0,0.0,0.0,0.0,0.0,0.0,0.0,0.0,0.0,0.0,0.0,0.0,0.0,0.0,0.0,0.0,0.0,0.0,0.0,0.0,0.0,0.0,0.0,0.3796,0.295,0.053,-0.3771,-0.4047,-0.422,-0.4281,0.0,0.0,0.0,0.0,0.0,0.0,0.0,0.0,0.0,0.0,0.0,0.0,0.0,0.0,0.0,0.0,0.0,0.0,0.0,0.0,0.0,0.0,0.0,0.0,0.0,0.0,0.0,0.0,0.0,0.0,0.0,0.0,0.0,0.0,0.0,0.0,0.0,0.0,0.0,0.0,0.0,0.0,0.0,0.0,0.0,0.0,0.0,0.0,0.0,0.0,0.0,0.0,0.0,0.0,0.0,0.0,0.0,0.0,0.0,0.0,0.0,0.0,0.0,0.0,0.0,0.0,0.0,0.0,0.0,0.0,0.0,0.0,0.0,0.0,0.0,0.0,0.0,0.0,0.0,0.0,0.0,0.0,0.0,0.0,0.0,0.0,0.0,0.0,0.0,0.0,0.0,0.0,0.0,0.0,0.0,0.0,0.0,0.0,0.0,0.0,0.0,0.0,0.0,0.0,0.0,0.0,0.0,0.0,0.4046,0.3976,0.1577,-0.3337,-0.3235,-0.3574,0.0,0.0,0.0,0.0,0.0,0.0,0.0,0.0,0.0,0.0,0.0,0.0,0.0,0.0,0.0,0.0,0.0,0.0,0.0,0.0,0.0,0.0,0.0,0.0,0.0,0.0,0.0,0.0,0.0,0.0,0.0,0.0,0.0,0.0,0.0,0.0,0.0,0.0,0.0,0.0,0.0,0.0,0.0,0.0,0.0,0.0,0.0,0.0,0.0,0.0,0.0,0.0,0.0,0.0,0.0,0.0,0.0,0.0,0.0,0.0,0.0,0.0,0.0,0.0,0.0,0.0,0.0,0.0,0.0,0.0,0.0,0.0,0.0,0.0,0.0,0.0,0.0,0.0,0.0,0.0,0.0,0.0,0.0,0.0,0.0,0.0,0.0,0.0,0.0,0.0,0.0,0.0,0.0,0.0,0.0,0.0,0.0,0.0,0.0,0.0,0.0,0.0,0.0,0.0,0.0,0.0,0.0,0.0,0.0,0.6472,0.4828,0.1947,-0.2277,-0.3932,-0.4092,0.0,0.0,0.0,0.0,0.0,0.0,0.0,0.0,0.0,0.0,0.0,0.0,0.0,0.0,0.0,0.0,0.0,0.0,0.0,0.0,0.0,0.0,0.0,0.0,0.0,0.0,0.0,0.0,0.0,0.0,0.0,0.0,0.0,0.0,0.0,0.0,0.0,0.0,0.0,0.0,0.0,0.0,0.0,0.0,0.0,0.0,0.0,0.0,0.0,0.0,0.0,0.0,0.0,0.0,0.0,0.0,0.0,0.0,0.0,0.0,0.0,0.0,0.0,0.0,0.0,0.0,0.0,0.0,0.0,0.0,0.0,0.0,0.0,0.0,0.0,0.0,0.0,0.0,0.0,0.0,0.0,0.0,0.0,0.0,0.0,0.0,0.0,0.0,0.0,0.0,0.0,0.0,0.0,0.0,0.0,0.0,0.0,0.0,0.0,0.0,0.0,0.0,0.0,0.0,0.0,0.0,0.0,0.0,0.9952,0.763,0.525,0.261,-0.0252,-0.2588,-0.3238,0.0,0.0,0.0,0.0,0.0,0.0,0.0,0.0,0.0,0.0,0.0,0.0,0.0,0.0,0.0,0.0,0.0,0.0,0.0,0.0,0.0,0.0,0.0,0.0,0.0,0.0,0.0,0.0,0.0,0.0,0.0,0.0,0.0,0.0,0.0,0.0,0.0,0.0,0.0,0.0,0.0,0.0,0.0,0.0,0.0,0.0,0.0,0.0,0.0,0.0,0.0,0.0,0.0,0.0,0.0,0.0,0.0,0.0,0.0,0.0,0.0,0.0,0.0,0.0,0.0,0.0,0.0,0.0,0.0,0.0,0.0,0.0,0.0,0.0,0.0,0.0,0.0,0.0,0.0,0.0,0.0,0.0,0.0,0.0,0.0,0.0,0.0,0.0,0.0,0.0,0.0,0.0,0.0,0.0,0.0,0.0,0.0,0.0,0.0,0.0,0.0,0.0,0.0,0.0,0.0,0.0,0.0,0.0,1.026,0.8399,0.565,0.3562,0.2206,-0.0291,-0.1621,0.0,0.0,0.0,0.0,0.0,0.0,0.0,0.0,0.0,0.0,0.0,0.0,0.0,0.0,0.0,0.0,0.0,0.0,0.0,0.0,0.0,0.0,0.0,0.0,0.0,0.0,0.0,0.0,0.0,0.0,0.0,0.0,0.0,0.0,0.0,0.0,0.0,0.0,0.0,0.0,0.0,0.0,0.0,0.0,0.0,0.0,0.0,0.0,0.0,0.0,0.0,0.0,0.0,0.0,0.0,0.0,0.0,0.0,0.0,0.0,0.0,0.0,0.0,0.0,0.0,0.0,0.0,0.0,0.0,0.0,0.0,0.0,0.0,0.0,0.0,0.0,0.0,0.0,0.0,0.0,0.0,0.0,0.0,0.0,0.0,0.0,0.0,0.0,0.0,0.0,0.0,0.0,0.0,0.0,0.0,0.0,0.0,0.0,0.0,0.0,0.0,0.0,0.0,0.0,0.0,0.0,0.0,0.0,1.1189,1.07,0.7346,0.4939,0.3592,0.0096,-0.1306,0.0,0.0,0.0,0.0,0.0,0.0,0.0,0.0,0.0,0.0,0.0,0.0,0.0,0.0,0.0,0.0,0.0,0.0,0.0,0.0,0.0,0.0,0.0,0.0,0.0,0.0,0.0,0.0,0.0,0.0,0.0,0.0,0.0,0.0,0.0,0.0,0.0,0.0,0.0,0.0,0.0,0.0,0.0,0.0,0.0,0.0,0.0,0.0,0.4516,0.0,0.0,0.0,0.0,0.0,0.0,0.0,0.0,0.0,0.0,0.0,0.0,0.0,0.0,0.0,0.0,0.0,0.0,0.0,0.0,0.0,0.0,0.0,0.0,0.0,0.0,0.0,0.0,0.0,0.0,0.0,0.0,0.0,0.0,0.0,0.0,0.0,0.0,0.0,0.0,0.0,0.0,0.0,0.0,0.0,0.0,0.0,0.0,0.0,0.0,0.0,0.0,0.0,0.0,0.0,0.0,0.0,0.0,0.0,1.2173,1.1614,0.8592,0.6262,0.4835,0.2253,0.0789,0.0,0.0,0.0,0.0,0.0,0.0,0.0,0.0,0.0,0.0,0.0,0.0,0.0,0.0,0.0,0.0,0.0,0.0,0.0,0.0,0.0,0.0,0.0,0.0,0.0,0.0,0.0,0.0,0.0,0.0,0.0,0.0,0.0,0.0,0.0,0.0,0.0,0.0,0.0,0.0,0.0,0.0,0.0,0.0,0.0,0.0,0.0,0.0,0.0,0.0,0.0,0.0,0.0,0.0,0.0,0.0,0.0,0.0,0.0,0.0,0.0,0.0,0.0,0.0,0.0,0.0,0.0,0.0,0.0,0.0,0.0,0.0,0.0,0.0,0.0,0.0,0.0,0.0,0.0,0.0,0.0,0.0,0.0,0.0,0.0,0.0,0.0,0.0,0.0,0.0,0.0,0.0,0.0,0.0,0.0,0.0,0.0,0.0,0.0,0.0,0.0,0.0,0.0,0.0,0.0,0.0,0.0,1.4474,1.2861,1.1881,0.9522,0.7475,0.5833,0.4691,0.3456,0.216,0.0,0.0,0.0,0.0,0.0,0.0,0.0,0.0,0.0,0.0,0.0,0.0,0.0,0.0,0.0,0.0,0.0,0.0,0.0,0.0,0.0,0.0,0.0,0.0,0.0,0.0,0.0,0.0,0.0,0.0,0.0,0.0,0.0,0.0,0.0,0.0,0.0,0.0,1.6041,1.3787,0.0,0.0,0.0,0.0,0.0,0.0,0.0,0.0,0.5984,0.0,0.0,0.0,0.0,0.0,0.0,0.0,0.0,0.0,0.0,0.0,0.0,0.0,0.0,0.0,0.0,0.0,0.0,0.0,0.0,0.0,0.0,0.0,0.0,0.0,0.0,0.0,0.0,0.0,0.0,0.0,0.0,0.0,0.0,0.0,0.0,0.0,0.0,0.0,0.0,0.0,0.0,0.0,0.0,0.0,0.0,0.0,0.0,0.0,0.0,0.0,0.0,0.0,0.0,0.0,0.0,1.6876,1.4384,1.27,1.1886,1.0427,0.8418,0.5918,0.5603,0.5122,0.4402,0.0,0.0,0.0,0.0,0.0,0.0,0.0,0.0,0.0,0.0,0.0,0.0,0.0,0.0,0.0,0.0,0.0,0.0,0.0,0.0,0.0,0.0,0.0,0.0,0.0,0.0,0.0,0.0,0.0,0.0,0.0,0.0,0.0,0.0,0.0,0.0,0.0,0.0,0.0,1.6565,1.5732,0.0,0.0,0.0,0.0,0.0,0.0,0.0,0.0,0.6536,0.0,0.0,0.0,0.0,0.0,0.0,0.0,0.0,0.0,0.0,0.0,0.0,0.0,0.0,0.0,0.0,0.0,0.0,0.0,0.0,0.0,0.0,0.0,0.0,0.0,0.0,0.0,0.0,0.0,0.0,0.0,0.0,0.0,0.0,0.0,0.0,0.0,0.0,0.0,0.0,0.0,0.0,0.0,0.0,0.0,0.0,0.0,0.0,0.0,0.0,0.0,0.0,0.0,0.0,0.0,1.7182,1.5425,1.3961,1.2952,1.1588,0.9849,0.7797,0.6915,0.6254,0.0,0.0,0.0,0.0,0.0,0.0,0.0,0.0,0.0,0.0,0.0,0.0,0.0,0.0,0.0,0.0,0.0,0.0,0.0,0.0,0.0,0.0,0.0,0.0,0.0,0.0,0.0,0.0,0.0,0.0,0.0,0.0,0.0,0.0,0.0,0.0,0.0,0.0,0.0,0.0,1.6531,1.5859,1.3941,0.0,0.0,0.0,0.0,0.0,0.0,0.8844,0.7847,0.0,0.0,0.0,0.0,0.0,0.0,0.0,0.0,0.0,0.0,0.0,0.0,0.0,0.0,0.0,0.0,0.0,0.0,0.0,0.0,0.0,0.0,0.0,0.0,0.0,0.0,0.0,0.0,0.0,0.0,0.0,0.0,0.0,0.0,0.0,0.0,0.0,0.0,0.0,0.0,0.0,0.0,0.0,0.0,0.0,0.0,0.0,0.0,0.0,0.0,0.0,0.0,0.0,0.0,0.0,1.756,1.6546,1.5276,1.3832,1.2647,1.1288,0.9787,0.851,0.7588,0.0,0.0,0.0,0.0,0.0,0.0,0.0,0.0,0.0,0.0,0.0,0.0,0.0,0.0,0.0,0.0,0.0,0.0,0.0,0.0,0.0,0.0,0.0,0.0,0.0,0.0,0.0,0.0,0.0,0.0,0.0,0.0,0.0,0.0,0.0,0.0,0.0,0.0,0.0,0.0,0.0,1.5707,1.4744,1.3597,0.0,0.0,0.0,0.0,1.2022,1.0362,0.0,0.0,0.0,0.0,0.0,0.0,0.0,0.0,0.0,0.0,0.0,0.0,0.0,0.0,0.0,0.0,0.0,0.0,0.0,0.0,0.0,0.0,0.0,0.0,0.0,0.0,0.0,0.0,0.0,0.0,0.0,0.0,0.0,0.0,0.0,0.0,0.0,0.0,0.0,0.0,0.0,0.0,0.0,0.0,0.0,0.0,0.0,0.0,0.0,0.0,0.0,0.0,0.0,0.0,0.0,0.0,1.7569,1.6978,1.5614,1.3561,1.3315,1.2382,1.0686,1.0444,0.9696,0.0,0.0,0.0,0.0,0.0,0.0,0.0,0.0,0.0,0.0,0.0,0.0,0.0,0.0,0.0,0.0,0.0,0.0,0.0,0.0,0.0,0.0,0.0,0.0,0.0,0.0,0.0,0.0,0.0,0.0,0.0,0.0,0.0,0.0,0.0,0.0,0.0,0.0,0.0,0.0,0.0,1.7557,1.5243,1.4787,1.4617,0.0,0.0,1.3467,1.2408,1.195,0.0,0.0,0.0,0.0,0.0,0.0,0.0,0.0,0.0,0.0,0.0,0.0,0.0,0.0,0.0,0.0,0.0,0.0,0.0,0.0,0.0,0.0,0.0,0.0,0.0,0.0,0.0,0.0,0.0,0.0,0.0,0.0,0.0,0.0,0.0,0.0,0.0,0.0,0.0,0.0,0.0,0.0,0.0,0.0,0.0,0.0,0.0,0.0,0.0,0.0,0.0,0.0,0.0,0.0,0.0,1.7657,1.7025,1.6788,1.5901,1.4338,1.3495,1.272,1.1965,1.0876,0.9886,0.0,0.0,0.0,0.0,0.0,0.0,0.0,0.0,0.0,0.0,0.0,0.0,0.0,0.0,0.0,0.0,0.0,0.0,0.0,0.0,0.0,0.0,0.0,0.0,0.0,0.0,0.0,0.0,0.0,0.0,0.0,0.0,0.0,0.0,0.0,0.0,0.0,0.0,0.0,0.0,0.0,0.0,1.5328,1.5015,0.0,0.0,0.0,1.3972,1.3589,0.0,0.0,0.0,0.0,0.0,0.0,0.0,0.0,0.0,0.0,0.0,0.0,0.0,0.0,0.0,0.0,0.0,0.0,0.0,0.0,0.0,0.0,0.0,0.0,0.0,0.0,0.0,0.0,0.0,0.0,0.0,0.0,0.0,0.0,0.0,0.0,0.0,0.0,0.0,0.0,0.0,0.0,0.0,0.0,0.0,0.0,0.0,0.0,0.0,0.0,0.0,0.0,0.0,0.0,0.0,0.0,0.0,1.6514,1.6888,1.6345,1.4894,1.3812,1.318,1.3101,1.1661,0.0,0.0,0.0,0.0,0.0,0.0,0.0,0.0,0.0,0.0,0.0,0.0,0.0,0.0,0.0,0.0,0.0,0.0,0.0,0.0,0.0,0.0,0.0,0.0,0.0,0.0,0.0,1.2016,0.0,0.0,0.0,0.0,0.0,0.0,0.0,0.0,0.0,0.0,0.0,0.0,0.0,0.0,1.7983,1.6094,1.5937,1.5876,0.0,0.0,1.4569,1.4432,1.3389,1.2706,0.0,0.0,0.0,0.0,0.0,0.0,0.0,0.0,0.0,0.0,0.0,0.0,0.0,0.0,0.0,0.0,0.0,0.0,0.0,0.0,0.0,0.0,0.0,0.0,0.0,0.0,0.0,0.0,0.0,0.0,0.0,0.0,0.0,0.0,0.0,0.0,0.0,0.0,0.0,0.0,0.0,0.0,0.0,0.0,0.0,0.0,0.0,0.0,0.0,0.0,0.0,0.0,0.0,0.0,0.0,1.6601,1.7645,1.7046,1.4643,1.4435,1.4259,1.403,1.3574,1.2645,0.0,0.0,0.0,0.0,0.0,0.0,0.0,0.0,0.0,0.0,0.0,0.0,0.0,0.0,0.0,0.0,0.0,0.0,0.0,0.0,0.0,0.0,0.0,0.0,0.0,0.0,0.0,0.0,0.0,0.0,0.0,0.0,0.0,0.0,0.0,0.0,0.0,0.0,0.0,0.0,0.0,1.9476,1.8329,1.8537,1.8318,0.0,0.0,1.5681,1.436,1.4046,1.382,1.33,0.0,0.0,0.0,0.0,0.0,0.0,0.0,0.0,0.0,0.0,0.0,0.0,0.0,0.0,0.0,0.0,0.0,0.0,0.0,0.0,0.0,0.0,0.0,0.0,0.0,0.0,0.0,0.0,0.0,0.0,0.0,0.0,0.0,0.0,0.0,0.0,0.0,0.0,0.0,0.0,0.0,0.0,0.0,0.0,0.0,0.0,0.0,0.0,0.0,0.0,0.0,0.0,0.0,1.8347,1.7272,1.756,1.6899,1.5324,1.4583,1.4202,1.4088,1.3621,1.2975,0.0,0.0,0.0,0.0,0.0,0.0,0.0,0.0,0.0,0.0,0.0,0.0,0.0,0.0,0.0,0.0,0.0,0.0,0.0,0.0,0.0,0.0,0.0,0.0,0.0,0.0,0.0,0.0,1.6133,1.6365,1.6858,0.0,0.0,0.0,0.0,0.0,0.0,0.0,0.0,0.0,0.0,1.9604,1.8544,1.8539,0.0,0.0,1.7701,1.7188,1.6807,1.6009,1.5137,1.4324,1.3786,0.0,0.0,0.0,0.0,0.0,0.0,0.0,0.0,0.0,0.0,0.0,0.0,0.0,0.0,0.0,0.0,0.0,0.0,0.0,0.0,0.0,0.0,0.0,0.0,0.0,0.0,0.0,0.0,0.0,0.0,0.0,0.0,0.0,0.0,0.0,0.0,0.0,0.0,0.0,0.0,0.0,0.0,0.0,0.0,0.0,0.0,0.0,0.0,0.0,0.0,0.0,0.0,1.8301,1.7701,1.7769,1.7131,1.5737,1.4977,1.4405,1.4117,1.352,1.3066,0.0,0.0,0.0,0.0,0.0,0.0,0.0,0.0,0.0,0.0,0.0,0.0,0.0,0.0,0.0,0.0,0.0,0.0,0.0,0.0,0.0,0.0,0.0,0.0,0.0,0.0,0.0,0.0,1.6892,1.71,1.7519,0.0,0.0,0.0,0.0,0.0,0.0,0.0,0.0,0.0,0.0,2.0261,1.9337,1.9478,1.9505,1.9151,1.8761,1.8388,1.8119,1.7241,1.6343,1.5568,0.0,0.0,0.0,0.0,0.0,0.0,0.0,0.0,0.0,0.0,0.0,0.0,0.0,0.0,0.0,0.0,0.0,0.0,0.0,0.0,0.0,0.0,0.0,0.0,0.0,0.0,0.0,1.9277,0.0,0.0,2.0581,0.0,0.0,0.0,0.0,0.0,0.0,0.0,0.0,0.0,0.0,0.0,0.0,0.0,0.0,0.0,0.0,0.0,0.0,0.0,0.0,0.0,0.0,1.8328,1.7738,1.8521,1.79,1.582,1.5696,1.5171,1.4201,1.3554,1.3105,1.2847,0.0,0.0,0.0,0.0,0.0,0.0,0.0,0.0,0.0,0.0,0.0,0.0,0.0,0.0,0.0,0.0,0.0,0.0,0.0,0.0,0.0,0.0,0.0,0.0,0.0,0.0,1.7373,1.7373,1.7572,0.0,0.0,0.0,0.0,0.0,0.0,0.0,0.0,0.0,0.0,2.1025,2.1678,2.1197,2.1829,2.1644,1.9861,1.9602,1.9041,1.7645,1.7375,1.7218,0.0,0.0,0.0,0.0,0.0,0.0,0.0,0.0,0.0,0.0,0.0,0.0,0.0,0.0,0.0,0.0,0.0,0.0,0.0,0.0,0.0,0.0,0.0,0.0,0.0,0.0,0.0,2.0126,1.9389,0.0,0.0,0.0,0.0,0.0,0.0,0.0,0.0,0.0,0.0,0.0,2.2875,2.2761,0.0,0.0,0.0,0.0,0.0,0.0,0.0,0.0,0.0,0.0,0.0,0.0,1.8669,1.8738,1.8909,1.863,1.79,1.7172,1.6609,1.6232,1.5535,1.484,1.4088,0.0,0.0,0.0,0.0,0.0,0.0,0.0,0.0,0.0,0.0,0.0,0.0,0.0,0.0,0.0,0.0,0.0,0.0,0.0,0.0,0.0,0.0,0.0,0.0,0.0,1.749,0.0,0.0,0.0,0.0,0.0,0.0,0.0,0.0,0.0,0.0,0.0,2.0459,2.0713,2.1426,2.1728,2.1259,2.1434,2.138,0.0,0.0,0.0,0.0,0.0,0.0,0.0,0.0,0.0,0.0,0.0,0.0,0.0,0.0,1.2064,1.1777,1.164,1.1331,1.0539,0.0,0.0,0.0,0.0,0.0,0.0,0.0,0.0,0.0,0.0,0.0,0.0,0.0,0.0,2.1614,0.0,2.1292,0.0,0.0,0.0,0.0,0.0,0.0,0.0,0.0,2.5709,2.5486,2.4858,2.477,2.4608,0.0,2.451,2.3326,0.0,0.0,0.0,0.0,0.0,0.0,0.0,0.0,1.9004,1.9307,1.9458,1.9362,1.8997,1.827,1.7698,1.7285,1.6577,1.593,1.536,1.4728,1.4307,0.0,0.0,0.0,0.0,0.0,0.0,0.0,0.0,0.0,0.0,0.0,0.0,0.0,0.0,0.0,0.0,0.0,0.0,0.0,0.0,0.0,0.0,0.0,1.7839,0.0,0.0,0.0,0.0,0.0,0.0,0.0,0.0,0.0,1.9838,2.04,2.0957,2.1406,2.1709,2.1728,2.1259,0.0,0.0,0.0,0.0,0.0,0.0,0.0,1.9773,1.9321,1.8777,1.8171,1.7256,1.638,1.5594,1.5128,0.0,0.0,1.2107,1.1975,1.1693,1.1014,1.087,1.0662,0.999,0.9977,0.9919,0.0,0.0,0.0,0.0,0.0,0.0,0.0,0.0,2.4565,2.4318,0.0,2.3356,0.0,0.0,0.0,0.0,0.0,2.7281,0.0,0.0,2.7466,2.7253,2.6661,2.5835,2.5372,2.5356,2.5758,2.5402,2.4307,2.3638,0.0,0.0,0.0,0.0,0.0,0.0,1.9343,1.9336,2.0146,2.0089,1.9125,1.9045,1.8541,1.7454,1.6724,1.6462,1.6622,1.6179,1.5709,1.521,1.5749,0.0,0.0,0.0,0.0,0.0,0.0,0.0,0.0,0.0,0.0,0.0,0.0,0.0,0.0,0.0,0.0,0.0,0.0,0.0,0.0,1.7543,0.0,0.0,0.0,0.0,0.0,0.0,0.0,0.0,0.0,0.0,2.1041,2.1115,2.1456,2.1879,0.0,0.0,0.0,0.0,2.1025,2.0674,2.0615,2.0615,2.0615,2.0615,2.0576,2.0557,0.0,0.0,1.8799,1.8391,1.7752,1.6476,1.4645,1.3068,1.2566,1.2365,1.2328,1.2388,1.2331,1.2198,1.2007,1.1956,1.188,2.9576,0.0,0.0,0.0,0.0,2.6633,2.6308,2.6136,2.5321,2.477,2.4487,2.4442,0.0,0.0,0.0,0.0,0.0,0.0,2.7846,2.8424,2.8512,2.8609,2.8856,2.8625,2.8458,2.847,2.8617,2.7719,2.6012,2.6444,2.4743,2.1112,0.0,0.0,0.0,0.0,2.0447,1.9803,2.0283,2.044,2.0157,2.0128,1.981,1.9161,1.8686,1.8299,1.8037,1.7331,1.6919,1.6744,1.6604,0.0,0.0,0.0,0.0,0.0,0.0,0.0,0.0,0.0,0.0,0.0,0.0,0.0,0.0,0.0,0.0,0.0,0.0,0.0,1.8006,1.9147,2.0118,0.0,0.0,0.0,0.0,0.0,0.0,0.0,0.0,0.0,2.372,2.3514,2.3134,0.0,0.0,2.1602,2.0859,2.0762,2.0713,2.0635,2.0615,0.0,2.0615,2.0615,2.0615,2.0615,2.0615,2.044,2.0091,1.8899,1.7873,1.7439,1.5888,1.4568,1.4346,1.3206,1.2866,1.3905,1.3266,1.2572,1.3028,1.2757,1.2231,3.1721,3.0359,3.0124,2.9762,2.9242,2.8436,2.8027,2.782,2.6993,2.6635,2.6595,2.6747,2.642,2.5796,2.6111,0.0,0.0,0.0,2.8298,2.89,2.9164,2.9465,2.9779,2.9779,2.9779,2.9779,2.9553,2.8661,2.7199,2.7567,2.6314,2.3485,0.0,0.0,2.0896,2.1585,2.172,2.113,2.1518,2.1483,2.0951,2.0532,2.0302,2.0166,1.96,1.916,1.8861,1.8086,1.7637,1.7627,1.7521,1.723,0.0,0.0,0.0,0.0,0.0,0.0,0.0,0.0,0.0,0.0,0.0,1.8227,1.7584,0.0,0.0,0.0,1.889,1.9219,1.9738,2.0642,0.0,0.0,0.0,0.0,0.0,0.0,0.0,2.5765,2.5828,2.5971,2.6459,2.5899,2.5176,2.4444,2.3305,2.2342,2.1827,0.0,2.0615,2.0615,2.0615,2.0615,2.0615,2.0615,2.0615,2.0615,2.0449,2.0312,2.0283,1.9144,1.8246,1.8025,1.716,1.6298,1.6298,1.5314,1.4587,1.5089,1.4279,1.3593,1.3709,1.3244,1.2706,3.282,3.2764,3.2291,3.1815,3.1262,3.0771,3.034,2.9986,2.9429,2.9505,2.9986,2.9781,2.92,2.8314,2.782,0.0,2.8294,2.8774,2.8976,2.9013,2.9553,2.9779,2.9779,2.9779,2.9779,2.9779,2.9214,2.865,2.8097,2.7595,2.6779,2.5686,2.4871,2.3777,2.248,2.2818,2.3042,2.2936,2.329,2.2842,2.1512,2.0592,2.0305,2.0689,1.9918,1.9472,1.9416,1.8646,1.8202,1.8226,1.8575,1.8512,1.8018,0.0,0.0,0.0,0.0,0.0,0.0,0.0,0.0,0.0,0.0,0.0,0.0,0.0,0.0,0.0,2.046,0.0,2.1715,2.215,0.0,0.0,0.0,2.4211,2.5544,2.6172,2.6688,2.719,0.0,0.0,2.8762,2.798,2.7231,2.6712,2.485,2.3549,2.3507,2.1912,2.0712,2.075,2.0644,2.0615,2.0615,2.0615,2.0615,2.0595,2.0205,1.9951,1.9893,1.9192,1.863,1.8546,1.8256,1.7974,1.7974,1.7791,1.7473,1.5703,1.5244,1.4871,1.4188,1.3742,1.315,3.482,3.4806,3.4692,3.3693,3.2272,3.2135,3.2019,3.1924,3.1775,3.1802,3.192,3.1436,3.0897,3.0324,3.0174,3.0025,2.9876,2.9983,2.9889,2.9629,2.9729,2.9779,2.9779,2.9779,2.9779,2.9779,2.9654,2.9076,2.8134,2.7971,2.7344,2.6348,2.6068,2.5223,2.379,2.4237,2.4127,2.3346,2.3458,2.3134,2.2416,2.2143,2.1905,2.1606,2.1047,2.0744,2.0744,2.0259,1.9977,1.9977,2.0062,1.9903,1.9406,1.8825,0.0,0.0,0.0,0.0,0.0,0.0,0.0,0.0,0.0,2.1064,2.0214,0.0,2.1562,0.0,2.2598,2.3191,2.3053,2.3739,0.0,0.0,2.512,2.5423,2.6189,2.6411,2.6549,2.6675,2.762,2.8147,2.772,2.8164,2.8323,2.7751,2.5593,2.3908,2.3517,2.2488,2.1659,2.1621,2.1078,2.0605,2.0605,2.0615,2.0595,2.0605,2.0195,1.9912,1.9902,1.9209,1.8598,1.8568,1.8291,1.8037,1.8008,1.8022,1.775,1.6981,1.5981,1.5248,1.5317,1.4335,1.3182,3.5489,3.5489,3.5489,3.4887,3.3871,3.3429,3.2996,3.2593,3.2593,3.2593,3.2593,3.2283,3.2228,3.2295,3.1873,3.1583,3.1393,3.1357,3.1037,3.0444,3.0419,3.0203,2.9779,2.9779,2.9779,2.9779,2.9541,2.8976,2.8134,2.7858,2.7306,2.6499,2.6487,2.6096,2.5284,2.5517,2.5394,2.4838,2.42,2.3812,2.3731,2.3112,2.2628,2.2278,2.1788,2.1453,2.1208,2.0816,2.059,2.0623,2.0985,2.0934,2.0415,2.0258,2.0165,0.0,0.0,0.0,0.0,0.0,0.0,0.0,0.0,0.0,0.0,0.0,2.3251,2.374,2.4343,2.4738,2.4814,2.5269,2.5661,2.5984,2.5988,2.6147,2.6449,2.6713,2.6864,2.6864,2.7582,2.7996,2.7708,2.7971,2.8084,2.777,2.6275,2.5071,2.4503,2.3475,2.2664,2.2616,2.1859,2.1049,2.0673,2.0439,2.0273,2.0263,2.0071,1.9897,1.9887,1.9344,1.8916,1.8861,1.8428,1.8008,1.7998,1.7668,1.7388,1.7296,1.6589,1.5905,1.5623,1.4606,1.3481,3.5489,3.5489,3.5489,3.5489,3.5439,3.4543,3.3739,3.2961,3.2961,3.2961,3.2961,3.2961,3.3429,3.4129,3.331,3.289,3.277,3.2784,3.2285,3.1389,3.1389,3.0871,2.9998,3.0113,3.0049,2.9779,2.9378,2.8862,2.8197,2.7645,2.714,2.6612,2.6512,2.6487,2.6487,2.6487,2.6487,2.6487,2.5232,2.4724,2.5062,2.3874,2.3118,2.2876,2.2491,2.198,2.1449,2.1094,2.0944,2.1065,2.1694,2.1853,2.1416,2.195,2.1939,0.0,2.159,0.0,0.0,0.0,0.0,0.0,0.0,0.0,0.0,2.3791,2.4594,2.5523,2.5695,2.5912,2.6449,2.6487,2.6487,2.6487,2.6487,2.6487,2.6512,2.6927,2.7216,2.7168,2.7657,2.7984,2.7833,2.7519,2.7281,2.7203,2.6769,2.621,2.5829,2.4616,2.3708,2.3697,2.284,2.1941,2.1166,2.0629,2.0342,2.0239,2.0185,2.006,2.0126,1.9769,1.9474,1.9408,1.8844,1.8341,1.8327,1.7654,1.7177,1.7451,1.6975,1.6313,1.562,1.483,1.3851,3.5489,3.5489,3.5489,3.5489,3.5472,3.5279,3.51,3.4953,3.4953,3.4953,3.4953,3.4953,3.5067,3.5213,3.5034,3.4509,3.3739,3.3739,3.3241,3.2343,3.2343,3.1829,3.1007,3.1719,3.1267,2.9882,3.0441,3.0093,2.8725,2.821,2.767,2.7165,2.6713,2.6487,2.6487,0.0,0.0,0.0,2.6249,2.5909,2.548,2.5234,2.4665,2.3808,2.3661,0.0,2.277,2.2678,2.288,2.3299,2.3071,0.0,0.0,0.0,0.0,0.0,0.0,0.0,0.0,0.0,0.0,0.0,2.4623,2.4131,2.3248,2.4456,2.5372,2.5586,2.6047,2.6373,2.6487,2.6487,2.6487,2.6487,2.6487,2.6487,2.6499,2.66,2.665,2.6663,2.714,2.7304,2.6939,2.7077,2.7105,2.6751,2.6562,2.6468,2.637,2.5395,2.4755,2.4636,2.3795,2.2992,2.2411,2.2161,2.1736,2.1645,2.1177,2.0963,2.0908,2.061,2.0376,2.0333,1.9825,1.9522,1.9922,1.9222,1.8353,1.7958,1.7001,1.6161,1.5957,1.5321,1.4573,3.5489,0.0,3.5489,3.5489,0.0,3.5489,3.5489,3.5489,3.5489,3.5489,3.5489,3.5489,3.5489,3.5489,3.5489,3.5213,3.4758,3.4725,3.4211,3.3325,3.331,3.2784,3.1888,3.2393,3.2105,3.1193,3.1167,3.0682,2.9632,2.8618,2.7821,2.7281,2.6763,2.6487,2.6487,2.6487,2.6487,2.6487,2.6487,2.6348,2.6072,2.6059,2.5624,2.482,2.4544,0.0,0.0,0.0,0.0,0.0,0.0,0.0,0.0,0.0,0.0,2.4064,2.4571,2.4818,2.4795,2.5841,2.6273,2.5705,2.6297,2.6203,2.5063,2.6405,2.7274,2.7287,2.7565,2.7723,2.7736,2.7736,2.7723,2.7736,2.7351,2.7229,2.7571,2.6973,2.6679,2.6998,2.6955,2.6788,2.6524,2.6713,2.6801,2.6549,2.6487,2.6487,2.6452,2.6094,2.5629,2.5063,2.4354,2.3589,2.2833,2.2211,2.1899,2.1576,2.1538,2.1546,2.1544,2.138,2.1227,2.1195,2.0628,2.0199,2.0169,2.0146,1.9764,1.8458,1.7464,1.6732,1.6342,1.5355,1.4496,3.5489,3.5489,3.5489,3.5489,3.5489,3.5489,3.5489,3.5489,0.0,0.0,0.0,3.5489,3.5489,3.5489,3.5489,3.5489,3.5489,3.5489,3.5067,3.4279,3.4245,3.3739,3.289,3.3031,3.2925,3.2571,3.1983,3.1315,3.0538,2.9101,2.8168,2.7701,2.6936,2.6487,2.6487,2.6487,2.6487,2.6487,2.6487,2.6487,2.6487,2.6487,2.6223,2.5611,2.5184,2.4876,2.4788,2.4393,2.4393,2.4921,2.4443,2.4393,2.4895,2.4443,2.4457,2.5211,2.6468,2.6785,2.5903,2.7657,2.821,2.6904,2.7847,2.8136,2.733,2.8334,2.8989,2.8989,2.8989,2.8989,2.8989,2.9002,2.8989,2.9002,2.8363,2.8233,2.878,2.7835,2.7263,2.7703,2.7242,2.6726,2.6748,2.6602,2.6487,2.6487,2.6487,2.6487,2.6487,2.6452,2.6079,2.527,2.4748,2.4115,2.311,2.2388,2.1682,2.172,2.193,2.2087,2.2125,2.2125,2.2094,2.2106,2.1491,2.0957,2.0438,2.074,2.0653,1.8868,1.8036,1.7413,1.6754,1.5603,1.4688,3.5489,3.5489,3.5489,3.5489,3.5489,3.5489,3.5489,3.5489,3.5489,3.5489,3.5489,3.5489,3.5489,3.5489,3.5489,3.5489,3.5489,3.5489,3.5424,3.5279,3.5279,3.4773,3.3876,3.4706,3.4225,3.2735,3.3276,3.2862,3.1418,3.0011,2.9321,2.9174,2.748,2.6521,2.6487,2.6487,2.6487,2.6487,2.6487,2.6487,2.6487,2.6487,2.6223,2.5636,2.5523,2.5272,2.4813,2.4725,2.4946,2.5435,2.4983,2.4901,2.5423,2.5028,2.5344,2.6714,2.7088,2.7918,2.9535,3.0035,3.0072,2.9729,2.9636,2.9315,2.877,2.8884,2.8989,2.8989,2.9097,2.8989,2.8989,2.9052,2.9083,2.9052,2.8894,2.8862,2.9066,2.878,2.862,2.878,2.8038,2.755,2.7484,2.6994,2.6645,2.6555,2.6782,2.6589,2.6645,2.6487,2.6239,2.5669,2.5448,2.4967,2.396,2.3719,2.3212,2.2905,2.2824,2.2823,2.2823,2.2823,2.2823,2.2914,2.2622,2.2358,2.1879,2.1105,2.0373,1.938,1.8517,1.7699,1.7468,1.6715,1.5958,3.5489,3.5489,3.5489,3.5489,3.5489,3.5489,3.5489,3.5489,3.5489,3.5489,3.5489,3.5489,3.5489,3.5489,3.5489,3.5489,3.5489,3.5489,3.5489,3.5489,3.5489,3.5246,3.4905,3.5279,3.5034,3.4192,3.4027,3.3473,3.2374,3.0931,3.0058,2.9737,2.8496,2.7855,2.7868,2.7868,2.7868,2.7822,2.6973,2.6487,2.6487,2.6487,2.6361,2.6097,2.5774,2.5682,2.5711,2.541,2.5498,2.6072,2.5972,2.6181,2.671,2.6658,2.7104,2.8115,2.8631,2.9119,2.9644,3.0119,3.0544,3.0911,3.0822,3.063,3.0375,3.0359,3.0359,3.0359,3.0359,3.0359,3.0359,3.0374,3.0359,3.0374,2.9981,2.9889,3.0147,2.9473,2.9178,2.9535,2.8939,2.8409,2.8395,2.8084,2.7868,2.7868,2.7868,2.7822,2.7822,2.7808,2.7295,2.5919,2.536,2.487,2.413,2.3715,2.3409,2.3133,2.3108,2.3095,2.3095,2.3095,2.3095,2.307,2.2827,2.236,2.1929,2.0902,2.0116,1.9795,1.9315,1.8727,1.8286,1.7633,1.6754,3.5489,3.5489,3.5489,3.5489,3.5489,3.5489,3.5489,3.5489,3.5489,3.5489,3.5489,3.5489,3.5489,3.5489,3.5489,3.5489,3.5489,3.5489,3.5489,3.5489,3.5489,3.5489,3.5489,3.5489,3.5489,3.5424,3.4691,3.4041,3.3285,3.1853,3.0623,2.9721,2.9382,2.9192,2.8989,2.8989,2.8989,2.8907,2.7736,2.7074,2.7027,2.6714,2.6645,2.7002,2.645,2.6378,2.6976,2.6637,2.6598,2.7031,2.7249,2.7552,2.7952,2.8247,2.8674,2.9261,2.9919,3.0103,2.9659,3.0163,3.0837,3.1438,3.1496,3.1496,3.1496,3.1496,3.1496,3.1496,3.1438,3.1438,3.1409,3.1438,3.1496,3.1467,3.097,3.0807,3.1248,3.0329,2.9782,3.0374,2.9813,2.9286,2.9254,2.9129,2.8925,2.8907,2.8989,2.8961,2.8805,2.8764,2.789,2.6418,2.5493,2.5025,2.4269,2.3742,2.3386,2.3185,2.3095,2.3095,2.3095,2.3095,2.3007,2.2907,2.2485,2.1947,2.1403,2.0675,2.0073,1.987,1.9656,1.9464,1.8565,1.7873,1.7152,3.5489,3.5489,3.5489,3.5489,3.5489,3.5489,3.5489,3.5489,3.5489,3.5489,3.5489,3.5489,3.5489,3.5489,3.5489,3.5489,3.5489,3.5489,3.5489,3.5489,3.5489,3.5489,3.5489,3.5489,3.5489,3.5489,3.5359,3.4922,3.422,3.278,3.1077,2.94,2.9811,2.9782,2.9129,2.9034,2.902,2.9002,2.8844,2.878,2.8684,2.7284,2.7217,2.8716,2.7933,2.7919,2.862,2.8725,2.868,2.8766,2.8789,2.8807,2.888,2.8902,2.9324,3.0103,3.0254,3.0539,3.1146,3.1351,3.1409,3.1496,3.1496,3.1496,3.1496,3.1496,3.1496,3.1496,3.1496,3.1496,3.1496,3.1496,3.1496,3.1496,3.1409,3.1453,3.1438,3.138,3.1307,3.1351,3.0628,3.0178,3.0103,2.9628,2.9146,2.9286,2.9233,2.9021,2.8583,2.8385,2.7966,2.6752,2.6556,2.611,2.4819,2.4284,2.3959,2.3382,2.3155,2.3275,2.3352,2.325,2.3,2.2803,2.2305,2.187,2.1142,2.06,2.0374,1.9898,1.9684,1.9418,1.83,1.764,1.7104,3.5489,3.5489,3.5489,3.5489,3.5489,3.5489,3.5489,3.5489,3.5489,3.5489,3.5489,3.5489,3.5489,3.5489,3.5489,3.5489,3.5489,3.5489,3.5489,3.5489,3.5489,3.5489,3.5489,3.5489,3.5489,3.5489,3.5489,3.5145,3.4366,3.3041,3.1731,3.0641,3.0881,3.0837,3.0494,3.0494,3.0494,3.045,3.0011,2.9981,3.0238,2.8844,2.8312,2.8862,2.8652,2.862,2.8925,2.8989,2.8989,2.9034,2.9473,2.9752,2.9782,3.0208,3.0614,3.0999,3.1029,3.1146,3.1467,3.1496,3.1496,3.1496,3.1496,3.1496,3.1496,3.1496,3.1496,3.1496,3.1496,3.1496,3.1496,3.1496,3.1496,3.1496,3.1496,3.1496,3.1496,3.1496,3.1496,3.1482,3.1219,3.0984,3.0955,3.0703,3.048,3.0436,3.0174,2.9695,2.9464,2.9189,2.8581,2.79,2.7898,2.7128,2.5437,2.4964,2.4781,2.4553,2.4467,2.4467,2.4352,2.4031,2.3632,2.3049,2.2416,2.1746,2.088,2.039,2.0049,1.9812,1.9484,1.9133,1.8634,1.8142,1.7691,3.5814,3.5782,3.5587,3.5489,3.5489,3.5489,3.5489,3.5489,3.5489,3.5489,3.5489,3.5489,3.5489,3.5489,3.5489,3.5489,3.5489,3.5489,3.5489,3.5489,3.5489,3.5489,3.5489,3.5489,3.5489,3.5489,3.5489,3.5145,3.4474,3.3559,3.2602,3.1899,3.1765,3.169,3.1511,3.1496,3.1496,3.1438,3.0911,3.0896,3.1248,3.0313,2.9704,2.9673,2.9473,2.9442,2.969,2.969,2.9704,2.9704,3.0299,3.0614,3.0658,3.119,3.1496,3.1496,3.1496,3.1496,3.1496,3.1496,3.1496,3.1496,3.1496,3.1496,3.1496,3.1496,3.1496,3.1496,3.1496,3.1496,3.1496,3.1496,3.1496,3.1496,3.1496,3.1496,3.1496,3.1496,3.1496,3.1496,3.1438,3.1406,3.1286,3.1289,3.132,3.1037,3.0901,3.0552,3.0298,2.9779,2.9283,2.8487,2.8282,2.7589,2.6058,2.5701,2.5673,2.5425,2.5287,2.5259,2.5398,2.4866,2.4234,2.3471,2.2569,2.1874,2.1289,2.0653,2.0334,2.023,1.9908,1.956,1.9616,1.8988,1.8302,3.6554,3.643,3.5782,3.5522,3.5489,3.5489,3.5489,3.5489,3.5489,3.5489,3.5489,3.5489,3.5489,3.5489,3.5489,3.5489,3.5489,3.5489,3.5489,3.5489,3.5489,3.5489,3.5489,3.5489,3.5489,3.5489,3.5489,3.5145,3.4533,3.4399,3.3739,3.2512,3.2392,3.2093,3.1585,3.1496,3.1496,3.1467,3.1409,3.1438,3.1482,3.138,3.1278,3.119,3.0644,3.0584,3.1175,3.1351,3.1351,3.1336,3.1351,3.1409,3.1438,3.1467,3.1496,3.1496,3.1496,3.1496,3.1496,3.1496,3.1496,3.1496,3.1496,3.1524,3.1611,3.1524,3.1524,3.1524,3.1524,3.1496,3.1496,3.1496,3.1496,3.1496,3.1496,3.1496,3.1496,3.1496,3.1496,3.1496,3.1451,3.1197,3.0687,3.1092,3.1092,3.0883,3.1047,3.0987,2.9953,2.9636,2.9007,2.8109,2.7654,2.7376,2.6642,2.6443,2.6135,2.5932,2.5877,2.5577,2.5439,2.5232,2.4584,2.4007,2.336,2.2682,2.1969,2.1571,2.1424,2.1237,2.085,2.0601,2.0136,1.9598,1.8868,3.6352,3.5926,3.6117,3.5958,3.5504,3.5489,3.5489,3.5489,3.5489,3.5489,3.5489,3.5489,3.5489,3.5489,3.5489,3.5489,3.5489,3.5489,3.5489,3.5489,3.5489,3.5489,3.5489,3.5489,3.5489,3.5489,3.5489,3.5145,3.4563,3.4503,3.3845,3.2736,3.2497,3.2153,3.1615,3.1496,3.1496,3.1496,3.1496,3.1496,3.1496,3.1496,3.1496,3.1496,3.1234,3.1219,3.1496,3.1496,3.1496,3.1496,3.1496,3.1496,3.1496,3.1496,3.1496,3.1496,3.1496,3.1496,3.1496,3.1496,3.1496,3.1496,3.1496,3.1739,3.2007,3.1796,3.1697,3.2007,3.1739,3.1524,3.1496,3.1496,3.1496,3.1496,3.1496,3.1496,3.1496,3.1496,3.1496,3.1436,3.1152,3.0761,3.0657,3.0746,3.0776,3.0582,3.0731,3.0477,2.9789,2.9265,2.8667,2.7899,2.76,2.7524,2.7306,2.7229,2.7111,2.6967,2.6849,2.6823,2.6745,2.5828,2.5126,2.4453,2.3917,2.3038,2.2169,2.196,2.1946,2.1801,2.1448,2.1184,2.0329,1.9992,1.9224,3.6768,3.6006,3.6384,3.6165,3.5522,3.5489,3.5489,3.5489,3.5489,3.5489,3.5489,3.5489,3.5489,3.5489,3.5489,3.5489,3.5489,3.5489,3.5489,3.5489,3.5489,3.5489,3.5489,3.5489,3.5489,3.5489,3.5489,3.525,3.4861,3.4833,3.4218,3.323,3.2961,3.2467,3.1899,3.1615,3.1496,3.1496,3.1496,3.1496,3.1496,3.1496,3.1496,3.1496,3.1496,3.1496,3.1496,3.1496,3.1496,3.1496,3.1496,3.1496,3.1496,3.1496,3.1496,3.1496,3.1496,3.1496,3.1496,3.1496,3.1496,3.1481,3.1518,3.1797,3.2473,3.2459,3.2609,3.2711,3.2284,3.1853,3.1838,3.1866,3.1768,3.1582,3.1496,3.1496,3.1496,3.1496,3.1496,3.1451,3.1167,3.0821,3.0582,3.0718,3.0731,3.0567,3.0657,3.0567,2.9953,2.9325,2.8682,2.8064,2.772,2.763,2.7484,2.7458,2.7458,2.7342,2.7316,2.7509,2.736,2.6428,2.5617,2.4941,2.412,2.3188,2.262,2.2379,2.2271,2.222,2.2263,2.2141,2.1348,2.0526,1.9796,3.7987,3.6707,3.6615,3.6259,3.5636,3.5619,3.5522,3.5504,3.5554,3.5587,3.5537,3.5489,3.5489,3.5489,3.5489,3.5489,3.5489,3.5489,3.5489,3.5489,3.5489,3.5489,3.5489,3.5489,3.5489,3.5489,3.5489,3.5489,3.5415,3.537,3.5011,3.4429,3.3739,3.3125,3.2467,3.1884,3.1555,3.1511,3.1496,3.1496,3.1496,3.1496,3.1496,3.1496,3.1496,3.1496,3.1496,3.1496,3.1496,3.1496,3.1496,3.1496,3.1496,3.1553,3.1553,3.1611,3.1582,3.1582,3.1596,3.1653,3.1739,3.1637,3.1584,3.1979,3.2703,3.3514,3.3912,3.3569,3.3013,3.2614,3.2614,3.2586,3.2327,3.1697,3.1682,3.1768,3.1682,3.1582,3.1553,3.1653,3.1531,3.1209,3.0864,3.0939,3.1029,3.0829,3.1014,3.1062,3.0342,2.9744,2.9307,2.8562,2.7974,2.76,2.7585,2.7585,2.7585,2.756,2.7534,2.7585,2.7435,2.6757,2.6056,2.5366,2.4442,2.3528,2.3199,2.3002,2.3106,2.3106,2.3148,2.286,2.1972,2.1099,2.062,3.8799,3.7469,3.7427,3.698,3.6306,3.6244,3.5975,3.5587,3.5991,3.5975,3.5554,3.5489,3.5489,3.5489,3.5489,3.5489,3.5489,3.5489,3.5489,3.5489,3.5489,3.5489,3.5489,3.5489,3.5489,3.5489,3.5489,3.5489,3.5489,3.5489,3.5145,3.4563,3.4309,3.3589,3.2587,3.2273,3.2004,3.154,3.1496,3.1496,3.1496,3.1496,3.1496,3.1496,3.1496,3.1496,3.1496,3.1496,3.1496,3.1524,3.1496,3.1496,3.1582,3.1979,3.2259,3.2299,3.2718,3.2944,3.2944,3.2891,3.2664,3.2372,3.2364,3.272,3.3229,3.3938,3.4311,3.421,3.3684,3.3287,3.3287,3.3287,3.2971,3.2339,3.268,3.2879,3.281,3.2879,3.2944,3.2844,3.2141,3.1716,3.172,3.1616,3.1129,3.1292,3.147,3.1191,3.0233,2.9907,2.9112,2.8154,2.7779,2.7775,2.787,2.7894,2.782,2.787,2.7845,2.7785,2.7585,2.7003,2.6363,2.5473,2.459,2.4051,2.3751,2.3659,2.3687,2.3681,2.3548,2.2987,2.2218,2.1684,2.1274,3.9358,3.8246,3.8206,3.7761,3.7054,3.707,3.6783,3.6446,3.6844,3.6783,3.6368,3.6038,3.5926,3.5863,3.5651,3.5504,3.5489,3.5489,3.5489,3.5489,3.5489,3.5489,3.5489,3.5489,3.5489,3.5489,3.5489,3.5489,3.5489,3.5489,3.528,3.4938,3.4638,3.3948,3.2931,3.2602,3.2271,3.1915,3.1668,3.164,3.1853,3.1894,3.191,3.1951,3.2145,3.2256,3.2284,3.2284,3.2145,3.202,3.2132,3.217,3.2,3.2567,3.296,3.3039,3.3313,3.3598,3.3608,3.3505,3.3443,3.3082,3.2946,3.3237,3.3849,3.4464,3.4838,3.4857,3.4374,3.3987,3.3962,3.3987,3.3761,3.3417,3.3443,3.3608,3.3608,3.3608,3.3556,3.3348,3.2861,3.2659,3.257,3.2389,3.184,3.2237,3.2075,3.1919,3.099,3.0417,2.9536,2.8885,2.874,2.8633,2.8334,2.8222,2.81,2.8149,2.8222,2.814,2.8006,2.7084,2.6268,2.5115,2.4107,2.4023,2.3788,2.3927,2.4012,2.3948,2.3945,2.3568,2.3064,2.2554,2.2016,3.9662,3.8989,3.8908,3.8469,3.7892,3.7863,3.7748,3.7735,3.7835,3.7777,3.7544,3.6798,3.6615,3.6461,3.5894,3.5569,3.5554,3.5489,3.5489,3.5489,3.5489,3.5489,3.5489,3.5489,3.5489,3.5489,3.5489,3.5489,3.5489,3.5489,3.5489,3.537,3.4846,3.4311,3.3727,3.3021,3.2935,3.2922,3.2231,3.2198,3.2749,3.2668,3.2641,3.2652,3.3156,3.3443,3.3375,3.3469,3.3287,3.2841,3.3156,3.3145,3.2882,3.3286,3.3659,3.3659,3.3684,3.3836,3.3761,3.3937,3.3827,3.3662,3.3494,3.3427,3.4429,3.5038,3.5452,3.5447,3.4981,3.4664,3.4664,3.4664,3.4616,3.4592,3.4227,3.3953,3.3761,3.3811,3.3953,3.3862,3.371,3.3694,3.3698,3.3563,3.3425,3.3406,3.2921,3.2542,3.2298,3.1399,3.0903,3.0219,2.9413,2.9201,2.881,2.8717,2.8622,2.8717,2.8787,2.8787,2.8404,2.7417,2.6395,2.5189,2.4242,2.4094,2.4095,2.4328,2.445,2.445,2.441,2.427,2.3797,2.3074,2.2359,3.9995,3.9731,3.9139,3.8799,3.8608,3.8608,3.8302,3.7937,3.8414,3.8346,3.7777,3.695,3.6994,3.7308,3.6133,3.5782,3.6117,3.5782,3.5489,3.5489,3.5489,3.5489,3.5489,3.5489,3.5489,3.5489,3.5489,3.5489,3.5489,3.5522,3.5522,3.5489,3.5344,3.5179,3.4987,3.4756,3.4838,3.4852,3.4189,3.3844,3.398,3.3562,3.3355,3.3365,3.3531,3.3633,3.3659,3.4087,3.4037,3.3417,3.3495,3.3556,3.3431,3.3971,3.4333,3.4382,3.4776,3.5028,3.5028,3.5005,3.4823,3.4431,3.4568,3.4812,3.4591,3.523,3.5554,3.5577,3.5385,3.5316,3.5316,3.5316,3.5299,3.5322,3.5068,3.4975,3.4998,3.5091,3.5068,3.5028,3.4616,3.4592,3.464,3.4284,3.3912,3.4023,3.3372,3.2561,3.245,3.1572,3.0706,3.0035,2.9418,2.9387,2.9316,2.9225,2.921,2.93,2.9435,2.9635,2.8974,2.7995,2.6978,2.5888,2.5111,2.4808,2.4831,2.4953,2.4989,2.4989,2.5038,2.4929,2.3849,2.3018,2.2415,4.0113,4.007,3.961,3.9394,3.9411,3.9411,3.9156,3.8897,3.9183,3.9183,3.8652,3.7917,3.7815,3.8121,3.7041,3.6677,3.701,3.6646,3.6305,3.5975,3.5975,3.5814,3.5587,3.5489,3.5489,3.5489,3.5489,3.5489,3.5587,3.5767,3.5782,3.5636,3.5814,3.5844,3.5534,3.5607,3.5846,3.5932,3.5271,3.4812,3.5049,3.441,3.4086,3.4112,3.4235,3.4447,3.4496,3.4823,3.4592,3.3962,3.4078,3.4325,3.4112,3.464,3.5005,3.5052,3.5407,3.56,3.5616,3.56,3.5424,3.5161,3.543,3.5362,3.5184,3.5407,3.5616,3.56,3.5616,3.5616,3.5616,3.5616,3.5616,3.5577,3.5616,3.5616,3.5616,3.5554,3.56,3.5492,3.5316,3.5138,3.5577,3.484,3.4728,3.4648,3.3793,3.3274,3.2889,3.1603,3.0697,3.0337,3.0065,3.0145,3.0043,2.9935,2.9957,3.0043,3.0086,3.0314,2.955,2.8582,2.7539,2.6609,2.5972,2.5503,2.543,2.543,2.554,2.5577,2.5689,2.529,2.4274,2.3484,2.2785,4.0113,4.0113,4.0096,4.0113,4.007,4.0096,3.9995,4.0045,4.002,4.002,3.9782,3.9193,3.8854,3.8978,3.8007,3.7777,3.7892,3.7648,3.7279,3.6889,3.6676,3.6477,3.6053,3.6022,3.6022,3.5958,3.5765,3.5861,3.6116,3.6508,3.6368,3.6227,3.6523,3.6487,3.6407,3.6191,3.6422,3.6973,3.6263,3.5813,3.591,3.5373,3.491,3.4776,3.5115,3.5362,3.5424,3.5492,3.5028,3.3887,3.4981,3.5138,3.4823,3.5316,3.5515,3.5532,3.5538,3.5616,3.5616,3.56,3.56,3.5554,3.5554,3.5616,3.5554,3.5577,3.5616,3.5616,3.5616,3.5616,3.5616,3.5616,3.5616,3.5616,3.5616,3.5616,3.5616,3.5616,3.5616,3.5616,3.56,3.56,3.5616,3.5616,3.5577,3.5136,3.4236,3.3489,3.2949,3.1938,3.1496,3.1444,3.1221,3.1055,3.0878,3.0679,3.074,3.0838,3.0801,3.0741,3.0062,2.9118,2.8078,2.7198,2.6493,2.6007,2.5709,2.5799,2.5979,2.6104,2.6175,2.5665,2.4971,2.4344,2.3678,4.0113,4.0113,4.0113,4.0113,4.0113,4.0113,4.0113,4.0113,4.0113,4.0113,3.9927,3.9262,3.9289,3.9714,3.8569,3.8076,3.8525,3.8149,3.7661,3.7602,3.7544,3.7501,3.7294,3.7279,3.7294,3.7235,3.7265,3.7265,3.7354,3.7338,3.7456,3.7324,3.7368,3.7738,3.8042,3.7917,3.8574,3.9059,3.8397,3.766,3.7198,3.6632,3.5984,3.5513,3.5549,3.5577,3.5616,3.5616,3.5447,3.5316,3.5362,3.5492,3.5402,3.5492,3.56,3.5616,3.5616,3.5616,3.5616,3.5616,3.5616,3.5616,3.5616,3.5616,3.5616,3.5616,3.5616,3.5616,3.5616,3.5616,3.5616,3.5616,3.5616,3.5616,3.5616,3.5616,3.5616,3.5616,3.5616,3.5616,3.5616,3.5616,3.5616,3.5616,3.5532,3.538,3.467,3.3711,3.2949,3.2222,3.1884,3.1769,3.1495,3.119,3.1114,3.0938,3.1015,3.1095,3.1151,3.1157,3.046,2.9563,2.8492,2.7674,2.7009,2.655,2.6086,2.6228,2.6419,2.6556,2.6539,2.6015,2.5456,2.4965,2.4271,4.0113,4.0113,4.0113,4.0113,4.0113,4.0113,4.0113,4.0113,4.0113,4.0113,4.002,3.961,3.9731,4.002,3.9279,3.9129,3.9193,3.869,3.8541,3.8679,3.8569,3.8541,3.8859,3.8761,3.8613,3.7994,3.7793,3.7822,3.7879,3.8121,3.8104,3.7863,3.8133,3.8442,3.8827,3.8951,3.9256,3.9699,3.9402,3.8785,3.8362,3.7702,3.6958,3.6214,3.5836,3.5616,3.5616,3.5616,3.5616,3.5616,3.5616,3.5616,3.5616,3.5616,3.5616,3.5616,3.5616,3.5616,3.5616,3.5616,3.5616,3.5616,3.5616,3.5616,3.5616,3.5616,3.5616,3.5616,3.5616,3.5616,3.5616,3.5616,3.5616,3.5616,3.5616,3.5616,3.5616,3.5616,3.5616,3.5616,3.5616,3.5616,3.5616,3.5616,3.56,3.5481,3.4895,3.3964,3.3254,3.2527,3.1799,3.1512,3.1326,3.119,3.119,3.1151,3.1131,3.1171,3.1171,3.119,3.0912,2.9918,2.8855,2.8145,2.7468,2.686,2.6505,2.6708,2.6708,2.6674,2.6539,2.6235,2.5879,2.5355,2.4541,4.0113,4.0113,4.0113,4.0113,4.0113,4.0113,4.0113,4.0113,4.0113,4.0113,4.0096,4.0113,4.002,4.007,4.0045,4.007,3.9901,3.9516,3.9385,3.9705,3.9332,3.9411,3.9756,3.9731,3.9401,3.8234,3.8318,3.8318,3.8458,3.869,3.8843,3.8402,3.8761,3.9129,3.9129,3.9129,3.9463,3.9944,3.9588,3.9106,3.8903,3.8311,3.7669,3.6721,3.6231,3.5791,3.5667,3.5616,3.5616,3.5616,3.5616,3.5616,3.5616,3.5616,3.5616,3.5616,3.5616,3.5616,3.5616,3.5616,3.5616,3.5616,3.5616,3.5616,3.5616,3.5616,3.5616,3.5616,3.5616,3.5616,3.5616,3.5616,3.5616,3.5616,3.5616,3.5616,3.5616,3.5616,3.5616,3.5616,3.5616,3.5616,3.5616,3.5616,3.5616,3.552,3.4917,3.4307,3.3634,3.2869,3.2144,3.1565,3.141,3.1224,3.119,3.119,3.119,3.119,3.119,3.119,3.1072,2.9974,2.8959,2.8553,2.7943,2.7199,2.6708,2.6708,2.6708,2.6708,2.6623,2.6437,2.6116,2.5744,2.4864,4.0113,4.0113,4.0113,4.0113,4.0113,4.0113,4.0113,4.0113,4.0113,4.0113,4.0113,4.0113,4.0113,4.0113,4.0113,4.0113,4.0045,3.985,3.9901,4.0096,3.985,3.9978,4.0045,4.0096,3.9876,3.9825,3.9601,3.9506,3.9575,3.9808,3.9636,3.9679,3.9731,3.9825,3.9808,3.9885,3.985,4.0045,3.9893,3.9588,3.9157,3.8802,3.8176,3.7134,3.6677,3.6231,3.5752,3.5633,3.5616,3.5616,3.5616,3.5616,3.5616,3.5616,3.5616,3.5616,3.5616,3.5616,3.5616,3.5616,3.5616,3.5616,3.5616,3.5616,3.5616,3.5616,3.5616,3.5616,3.5616,3.5616,3.5616,3.5622,3.5622,3.5622,3.5622,3.5616,3.5616,3.5667,3.5689,3.5717,3.5689,3.5622,3.5644,3.5739,3.5898,3.5839,3.5472,3.4925,3.4346,3.3434,3.2527,3.2012,3.1599,3.136,3.119,3.119,3.119,3.119,3.119,3.119,3.0818,2.9805,2.9044,2.8705,2.7943,2.6979,2.6708,2.6708,2.6708,2.6708,2.6674,2.664,2.637,2.6048,2.5439,4.0113,4.0113,4.0113,4.0113,4.0113,4.0113,4.0113,4.0113,4.0113,4.0113,4.0113,4.0113,4.0113,4.0113,4.0113,4.0113,4.0113,4.0113,4.0113,4.0113,4.0113,4.0113,4.0113,4.0113,4.0113,4.007,4.0087,4.0113,4.0096,4.007,4.0113,4.007,4.0113,4.0113,4.0096,4.007,4.0113,4.0113,4.0079,3.9943,3.9537,3.9242,3.8522,3.8048,3.7168,3.6626,3.6282,3.5735,3.5616,3.5616,3.5616,3.5616,3.5616,3.5616,3.5616,3.5616,3.5616,3.5616,3.5616,3.5616,3.5616,3.5616,3.5616,3.5616,3.5616,3.5616,3.5622,3.5622,3.5622,3.5717,3.5968,3.5805,3.5761,3.5898,3.5827,3.5667,3.5689,3.5876,3.5963,3.6011,3.6097,3.6049,3.5739,3.5898,3.6165,3.6115,3.5894,3.5535,3.5063,3.4182,3.3222,3.2179,3.1698,3.1419,3.123,3.119,3.119,3.119,3.119,3.119,3.0801,2.9907,2.9331,2.8925,2.7994,2.6793,2.6708,2.6708,2.6708,2.6708,2.6691,2.6657,2.6607,2.6319,2.5727,4.0113,4.0113,4.0113,4.0113,4.0113,4.0113,4.0113,4.0113,4.0113,4.0113,4.0113,4.0113,4.0113,4.0113,4.0113,4.0113,4.0113,4.0113,4.0113,4.0113,4.0113,4.0113,4.0113,4.0113,4.0113,4.0113,4.0113,4.0113,4.0113,4.0113,4.0113,4.0113,4.0113,4.0113,4.0113,4.0113,4.0113,4.0113,4.0113,4.0113,3.9943,3.9571,3.9106,3.8971,3.7821,3.7252,3.6975,3.6315,3.614,3.6039,3.587,3.5667,3.5785,3.5701,3.5616,3.5616,3.5616,3.5616,3.5616,3.5616,3.5616,3.5616,3.5616,3.5616,3.5616,3.5622,3.565,3.5717,3.5805,3.6032,3.6416,3.6207,3.6207,3.6354,3.6228,3.5985,3.6161,3.6333,3.6522,3.6583,3.6641,3.6542,3.6357,3.6336,3.6664,3.6704,3.6496,3.6446,3.5943,3.512,3.4048,3.2574,3.1781,3.1429,3.1252,3.119,3.119,3.119,3.119,3.119,3.0751,3.0142,2.9636,2.9044,2.7703,2.6707,2.6708,2.6725,2.6708,2.6708,2.6708,2.6691,2.664,2.6539,2.615,4.0113,4.0113,4.0113,4.0113,4.0113,4.0113,4.0113,4.0113,4.0113,4.0113,4.0113,4.0113,4.0113,4.0113,4.0113,4.0113,4.0113,4.0113,4.0113,4.0113,4.0113,4.0113,4.0113,4.0113,4.0113,4.0113,4.0113,4.0113,4.0113,4.0113,4.0113,4.0113,4.0113,4.0113,4.0113,4.0113,4.0113,4.0113,4.0113,4.0113,4.0079,3.996,3.9605,3.914,3.8717,3.8311,3.7719,3.7009,3.6789,3.728,3.6225,3.6005,3.6383,3.596,3.5684,3.5616,3.5616,3.5616,3.5616,3.5616,3.5616,3.5616,3.5616,3.5616,3.5622,3.5711,3.5854,3.6291,3.6291,3.6542,3.696,3.6999,3.702,3.7001,3.6904,3.6845,3.6923,3.6865,3.7058,3.7229,3.7304,3.7285,3.7155,3.7154,3.7171,3.7152,3.7117,3.7084,3.6637,3.5698,3.4601,3.3043,3.1945,3.1574,3.137,3.1291,3.119,3.119,3.119,3.1173,3.0835,3.0362,2.9702,2.8922,2.76,2.6792,2.6825,2.6825,2.6741,2.6708,2.6708,2.6708,2.6691,2.6573,2.6437,4.0113,4.0113,4.0113,4.0113,4.0113,4.0113,4.0113,4.0113,4.0113,4.0113,4.0113,4.0113,4.0113,4.0113,4.0113,4.0113,4.0113,4.0113,4.0113,4.0113,4.0113,4.0113,4.0113,4.0113,4.0113,4.0113,4.0113,4.0113,4.0113,4.0113,4.0113,4.0113,4.0113,4.0113,4.0113,4.0113,4.0113,4.0113,4.0113,4.0113,4.0113,4.0079,3.9943,3.9622,3.9249,3.8877,3.8403,3.7364,3.7212,3.7483,3.6428,3.6011,3.6383,3.6096,3.5616,3.5616,3.5616,3.5616,3.5616,3.5622,3.5616,3.56,3.56,3.5616,3.5667,3.5898,3.6118,3.6371,3.6684,3.7058,3.7396,3.734,3.7415,3.7451,3.7469,3.7341,3.736,3.7542,3.7632,3.7808,3.7964,3.7912,3.7878,3.7895,3.7791,3.7667,3.772,3.7753,3.6987,3.5847,3.4641,3.3336,3.2421,3.1715,3.1564,3.1411,3.1232,3.121,3.119,3.114,3.1021,3.0565,2.9922,2.8953,2.7699,2.7181,2.7026,2.6857,2.6725,2.6725,2.6708,2.6708,2.6708,2.6691,2.6454,4.0113,4.0113,4.0113,4.0113,4.0113,4.0113,4.0113,4.0113,4.0113,4.0113,4.0113,4.0113,4.0113,4.0113,4.0113,4.0113,4.0113,4.0113,4.0113,4.0113,4.0113,4.0113,4.0113,4.0113,4.0113,4.0113,4.0113,4.0113,4.0113,4.0113,4.0113,4.0113,4.0113,4.0113,4.0113,4.0113,4.0113,4.0113,4.0113,4.0113,4.0113,4.0113,4.0096,3.9926,3.9622,3.934,3.9258,3.819,3.7821,3.8035,3.6875,3.6315,3.6586,3.6079,3.5768,3.5805,3.5876,3.5985,3.5963,3.5876,3.5667,3.5644,3.5783,3.5893,3.592,3.6287,3.6724,3.6882,3.7135,3.7578,3.7912,3.7791,3.7878,3.7929,3.7878,3.7685,3.7578,3.786,3.8083,3.8218,3.835,3.8481,3.8499,3.8578,3.8481,3.8251,3.8265,3.8357,3.7388,3.6122,3.5021,3.3834,3.2959,3.2196,3.1751,3.1564,3.1389,3.1252,3.1252,3.1176,3.1094,3.0753,3.0176,2.907,2.7867,2.735,2.7113,2.6927,2.6741,2.6858,2.689,2.6741,2.6708,2.6725,2.6723,4.0113,4.0113,4.0113,4.0113,4.0113,4.0113,4.0113,4.0113,4.0113,4.0113,4.0113,4.0113,4.0113,4.0113,4.0113,4.0113,4.0113,4.0113,4.0113,4.0113,4.0113,4.0113,4.0113,4.0113,4.0113,4.0113,4.0113,4.0113,4.0113,4.0113,4.0113,4.0113,4.0113,4.0113,4.0113,4.0113,4.0113,4.0113,4.0113,4.0113,4.0113,4.0096,4.0121,4.0146,4.012,4.0209,4.0618,3.932,3.8734,3.9209,3.7769,3.6865,3.6973,3.6468,3.6289,3.6477,3.6388,3.6536,3.6623,3.6228,3.5717,3.5761,3.5985,3.6224,3.6245,3.6786,3.7285,3.7596,3.7737,3.8066,3.8417,3.8578,3.8433,3.8366,3.8302,3.8285,3.8218,3.8318,3.853,3.8627,3.8676,3.8692,3.8707,3.8707,3.8707,3.8465,3.8394,3.8468,3.7656,3.65,3.5574,3.4524,3.3607,3.2784,3.2021,3.1806,3.175,3.1582,3.1468,3.137,3.1257,3.0828,3.0482,2.9465,2.8379,2.7791,2.725,2.7146,2.709,2.7117,2.71,2.6988,2.6971,2.7035,2.7131,4.0113,4.0113,4.0113,4.0113,4.0113,4.0113,4.0113,4.0113,4.0113,4.0113,4.0113,4.0113,4.0113,4.0113,4.0113,4.0113,4.0113,4.0113,4.0113,4.0113,4.0113,4.0113,4.0113,4.0113,4.0113,4.0113,4.0113,4.0113,4.0113,4.0113,4.0113,4.0113,4.0113,4.0113,4.0113,4.0113,4.0113,4.0113,4.0113,4.0113,4.0113,4.0121,4.0254,4.0577,4.0179,4.0417,4.0606,3.961,3.9323,3.905,3.8414,3.8098,3.7873,3.7434,3.7411,3.7494,3.7288,3.7216,3.7242,3.6858,3.646,3.6122,3.6287,3.6471,3.6632,3.7171,3.7614,3.7929,3.829,3.87,3.8614,3.8692,3.8643,3.8692,3.8707,3.8707,3.8707,3.8707,3.8707,3.8692,3.8692,3.8707,3.8707,3.8707,3.8707,3.8658,3.8618,3.8432,3.7731,3.696,3.6025,3.5104,3.4152,3.3355,3.2617,3.235,3.2179,3.195,3.1714,3.1601,3.1487,3.1218,3.0736,2.9754,2.8881,2.8203,2.7722,2.7493,2.7382,2.7355,2.7319,2.7272,2.7286,2.7346,2.7452,4.0254,4.0096,4.0113,4.0113,4.0113,4.0113,4.0113,4.0113,4.0113,4.0113,4.0113,4.0113,4.0113,4.0113,4.0113,4.0113,4.0113,4.0113,4.0113,4.0113,4.0113,4.0113,4.0113,4.0113,4.0113,4.0113,4.0113,4.0113,4.0113,4.0113,4.0113,4.0113,4.0113,4.0113,4.0113,4.0113,4.0113,4.0113,4.0113,4.0113,4.0113,4.0311,4.0286,4.0655,4.0417,4.072,4.0857,4.0308,3.9899,3.9805,3.9499,3.9202,3.8996,3.8868,3.8864,3.8732,3.8521,3.8165,3.8204,3.7498,3.7092,3.6686,3.6865,3.7027,3.7342,3.799,3.8676,3.9072,3.9301,3.9313,3.9184,3.9148,3.8927,3.8891,3.8726,3.8707,3.8707,3.8707,3.8707,3.8692,3.8707,3.8707,3.8707,3.8707,3.8707,3.8707,3.867,3.856,3.8193,3.7386,3.6527,3.5601,3.4655,3.3916,3.3238,3.2939,3.2598,3.2299,3.2074,3.1915,3.1751,3.1545,3.088,2.9724,2.8973,2.8507,2.8083,2.7749,2.7604,2.7535,2.7562,2.7619,2.7733,2.7801,2.7862,4.057,4.0121,4.0113,4.0113,4.0113,4.0113,4.0113,4.0113,4.0113,4.0113,4.0113,4.0113,4.0113,4.0113,4.0113,4.0113,4.0113,4.0113,4.0113,4.0113,4.0113,4.0113,4.0113,4.0113,4.0113,4.0113,4.0113,4.0113,4.0113,4.0113,4.0113,4.0113,4.0113,4.0113,4.0113,4.0113,4.0113,4.0113,4.0113,4.0113,4.0179,4.0473,4.0449,4.0497,4.0521,4.0844,4.1086,4.0891,4.0542,4.0535,4.0695,4.0367,3.9824,3.9816,3.9942,4.0185,4.0131,4.0291,4.0673,3.8564,3.7751,3.762,3.7967,3.824,3.8904,3.9501,3.9932,4.0196,4.0622,4.0469,4.0175,3.9827,3.9478,3.9129,3.8982,3.8799,3.8799,3.8707,3.8707,3.8707,3.8707,3.8707,3.8707,3.8707,3.8707,3.8707,3.8707,3.8579,3.8414,3.7771,3.6886,3.5999,3.5052,3.4272,3.3604,3.3357,3.3027,3.2695,3.2466,3.2366,3.2247,3.2109,3.1202,2.985,2.9465,2.9333,2.8627,2.7936,2.7957,2.7978,2.7964,2.8034,2.8152,2.8259,2.8303,4.0577,4.0113,4.0113,4.0113,4.0113,4.0113,4.0113,4.0113,4.0113,4.0113,4.0113,4.0113,4.0113,4.0113,4.0113,4.0113,4.0113,4.0113,4.0113,4.0113,4.0113,4.0113,4.0113,4.0113,4.0113,4.0113,4.0113,4.0113,4.0113,4.0113,4.0113,4.0113,4.0113,4.0113,4.0113,4.0113,4.0113,4.0113,4.0113,4.0096,4.0121,4.0311,4.0473,4.0552,4.0497,4.075,4.1291,4.1064,4.0972,4.1034,4.124,4.1562,4.1083,4.1033,4.1396,4.1427,4.128,4.0874,4.1007,4.0085,3.9696,3.9499,3.9302,3.9534,3.995,4.0404,4.0826,4.1058,4.1242,4.1001,4.0728,4.0708,4.038,3.9772,3.9496,3.9148,3.9001,3.8799,3.8707,3.8707,3.8707,3.8707,3.8707,3.8707,3.8707,3.8707,3.8707,3.8707,3.856,3.7918,3.7107,3.6285,3.5416,3.4604,3.3986,3.3686,3.3512,3.327,3.3057,3.2934,3.2809,3.2648,3.1935,3.0819,3.0513,3.0203,2.9368,2.8676,2.8508,2.8476,2.8425,2.8438,2.8583,2.8682,2.8761,4.1196,4.0696,4.0672,4.0689,4.0618,4.0279,4.0113,4.0113,4.0113,4.0113,4.0113,4.0113,4.0113,4.0113,4.0113,4.0113,4.0113,4.0113,4.0113,4.0113,4.0113,4.0113,4.0113,4.0113,4.0113,4.0113,4.0113,4.0113,4.0113,4.0113,4.0113,4.0113,4.0113,4.0113,4.0113,4.0113,4.0113,4.0113,4.0113,4.0113,4.0171,4.0311,4.0473,4.0521,4.057,4.0679,4.1082,4.1181,4.1196,4.1381,4.1977,4.2722,4.2432,4.2446,4.269,4.2506,4.2323,4.1957,4.1976,4.1976,4.1645,4.1468,4.0996,4.0743,4.0815,4.1034,4.1502,4.1701,4.1625,4.1552,4.1499,4.1499,4.1203,4.0579,4.0212,3.9882,3.9331,3.9166,3.8891,3.8872,3.8707,3.8707,3.8707,3.8707,3.8707,3.8707,3.8707,3.8707,3.8707,3.8157,3.7511,3.6725,3.5958,3.5233,3.4522,3.3941,3.3812,3.3793,3.3592,3.3364,3.3243,3.3024,3.2417,3.1998,3.1879,3.1419,3.0143,2.945,2.9179,2.8968,2.8839,2.8875,2.8987,2.8987,2.8987,4.2322,4.1853,4.181,4.1746,4.1595,4.0689,4.0229,4.0146,4.0146,4.0146,4.0113,4.0113,4.0113,4.0113,4.0113,4.0113,4.0113,4.0113,4.0113,4.0113,4.0113,4.0113,4.0113,4.0113,4.0113,4.0113,4.0113,4.0113,4.0113,4.0113,4.0113,4.0113,4.0113,4.0113,4.0113,4.0113,4.0113,4.0113,4.0113,4.0113,4.0146,4.0449,4.0497,4.0546,4.0648,4.1059,4.1468,4.1754,4.2291,4.2756,4.332,4.3426,4.3442,4.3461,4.3479,4.3442,4.3351,4.324,4.3167,4.3112,4.3167,4.2734,4.1982,4.1867,4.1831,4.1722,4.1904,4.2359,4.247,4.2378,4.2304,4.2158,4.1992,4.1552,4.1168,4.0634,3.9955,3.9588,3.9276,3.9056,3.8781,3.8707,3.8707,3.8707,3.8707,3.8707,3.8707,3.8707,3.8707,3.8689,3.8046,3.7345,3.6615,3.5936,3.522,3.4435,3.399,3.3899,3.3793,3.3625,3.3522,3.34,3.302,3.2867,3.3227,3.2598,3.0943,3.008,2.9685,2.9464,2.906,2.8987,2.8987,2.8987,2.8987,4.2342,4.1814,4.181,4.181,4.1768,4.1446,4.1116,4.0754,4.0689,4.0497,4.0113,4.0096,4.0204,4.0113,4.0113,4.0121,4.0121,4.0113,4.0113,4.0113,4.0113,4.0113,4.0113,4.0113,4.0113,4.0113,4.0113,4.0113,4.0113,4.0113,4.0113,4.0113,4.0113,4.0113,4.0113,4.0113,4.0113,4.0121,4.0146,4.0146,4.0171,4.0392,4.049,4.0696,4.0844,4.1313,4.175,4.2241,4.2694,4.2884,4.3321,4.3479,4.3479,4.3479,4.3479,4.3479,4.3461,4.3461,4.3479,4.3479,4.3479,4.3479,4.2928,4.2983,4.2837,4.2506,4.2324,4.2763,4.2818,4.2525,4.2763,4.28,4.2598,4.2249,4.1882,4.1423,4.0726,4.0084,3.9717,3.8964,3.8707,3.8707,3.8707,3.8707,3.8707,3.8707,3.8707,3.8707,3.8707,3.8707,3.8524,3.7826,3.7217,3.6523,3.5665,3.4876,3.4362,3.4009,3.3977,3.3903,3.3707,3.3597,3.3547,3.3496,3.3476,3.2682,3.1445,3.0815,3.0436,2.95,2.9042,2.9005,2.8987,2.8987,2.8987,4.2809,4.2503,4.2465,4.2483,4.2483,4.2465,4.2162,4.1678,4.1375,4.1036,4.0791,4.0791,4.0767,4.0814,4.0838,4.0696,4.0466,4.0449,4.0368,4.0113,4.0121,4.0113,4.0113,4.0113,4.0113,4.0113,4.0113,4.0113,4.0113,4.0113,4.0113,4.0113,4.0113,4.0113,4.0113,4.0113,4.0113,4.0196,4.0279,4.0279,4.0311,4.0466,4.0868,4.0961,4.1127,4.1599,4.2062,4.2616,4.2751,4.2958,4.341,4.3479,4.3479,4.3479,4.3479,4.3479,4.3479,4.3479,4.3479,4.3479,4.3479,4.3479,4.3479,4.3442,4.3294,4.2999,4.3074,4.3258,4.2817,4.2543,4.3057,4.3424,4.313,4.2837,4.2506,4.2194,4.146,4.0689,3.9863,3.8964,3.8707,3.8707,3.8707,3.8707,3.8707,3.8707,3.8707,3.8707,3.8707,3.8707,3.8634,3.8248,3.7694,3.7088,3.6248,3.5536,3.5078,3.4706,3.4472,3.4344,3.4027,3.3788,3.3688,3.356,3.3458,3.2669,3.1935,3.1604,3.1152,3.0179,2.939,2.9354,2.9244,2.8987,2.8987,4.3479,4.3444,4.3479,4.341,4.3479,4.3427,4.3142,4.2732,4.2185,4.1874,4.1768,4.1768,4.1664,4.1552,4.1552,4.1313,4.1105,4.0967,4.0703,4.0179,4.0262,4.0237,4.0121,4.0113,4.0113,4.0113,4.0113,4.0113,4.0113,4.0113,4.0113,4.0096,4.0113,4.0113,4.0113,4.0113,4.0121,4.0196,4.057,4.0821,4.0642,4.1007,4.1573,4.1388,4.1656,4.2142,4.2596,4.2864,4.2976,4.3321,4.3479,4.3479,4.3479,4.3479,4.3479,4.3479,4.3479,4.3479,4.3479,4.3479,4.3479,4.3479,4.3479,4.3479,4.3386,4.3327,4.3401,4.3258,4.2837,4.28,4.3204,4.3424,4.3296,4.3185,4.302,4.2598,4.1956,4.1056,4.001,3.9221,3.8799,3.8781,3.8707,3.8707,3.8707,3.8707,3.8707,3.8707,3.8707,3.8707,3.8652,3.8542,3.8193,3.7694,3.7144,3.6468,3.5936,3.5536,3.5224,3.4747,3.4399,3.41,3.3807,3.3697,3.3568,3.3201,3.2638,3.2234,3.1665,3.0815,3.0155,2.9879,2.9604,2.928,2.906,4.3479,4.3479,4.3479,4.3479,4.3479,4.3479,4.3427,4.3303,4.3178,4.26,4.1937,4.1832,4.1874,4.1958,4.1958,4.1771,4.166,4.1556,4.1223,4.0803,4.0631,4.0343,4.0146,4.0113,4.0121,4.0113,4.0113,4.0171,4.0179,4.0171,4.0121,4.0121,4.0179,4.0279,4.0196,4.0196,4.0303,4.0303,4.0961,4.1223,4.1036,4.1036,4.1291,4.1892,4.2519,4.2733,4.3087,4.3286,4.3339,4.3479,4.3479,4.3479,4.3479,4.3479,4.3479,4.3479,4.3479,4.3479,4.3479,4.3479,4.3479,4.3479,4.3479,4.3479,4.3477,4.349,4.3398,4.3201,4.3129,4.3184,4.3239,4.3369,4.3479,4.3479,4.3461,4.2928,4.2378,4.1295,4.0194,3.957,3.9038,3.8817,3.8726,3.8707,3.8707,3.8707,3.8707,3.8707,3.8707,3.8707,3.8707,3.8634,3.8652,3.823,3.7786,3.7382,3.6817,3.6376,3.6046,3.5477,3.4802,3.4247,3.3807,3.3807,3.3678,3.3366,3.3041,3.2656,3.2032,3.1347,3.098,3.0705,3.0191,2.9824,2.9445,4.3479,4.3479,4.3479,4.3479,4.3479,4.3479,4.3479,4.3479,4.3479,4.316,4.262,4.2562,4.2542,4.2542,4.2562,4.2324,4.2244,4.2221,4.1578,4.111,4.0926,4.0504,4.0294,4.0196,4.0343,4.0368,4.0424,4.0473,4.0449,4.0473,4.0497,4.0473,4.0577,4.0648,4.0546,4.0618,4.0642,4.0528,4.142,4.1664,4.1621,4.194,4.2065,4.2751,4.2958,4.3214,4.3321,4.3479,4.3479,4.3479,4.3479,4.3479,4.3479,4.3479,4.3479,4.3479,4.3479,4.3479,4.3479,4.3479,4.3479,4.3479,4.3479,4.3479,4.3479,4.3493,4.3493,4.3331,4.3313,4.3331,4.3351,4.3461,4.3479,4.3479,4.3406,4.3094,4.2378,4.1442,4.0506,3.979,3.9258,3.8762,3.8707,3.8707,3.8707,3.8707,3.8707,3.8707,3.8707,3.8707,3.8707,3.8707,3.8707,3.867,3.8322,3.801,3.7698,3.7276,3.6868,3.6028,3.5224,3.4376,3.3807,3.3807,3.377,3.3642,3.3311,3.3041,3.2693,3.2118,3.1806,3.1549,3.0962,3.032,2.9824,4.3479,4.3479,4.3479,4.3479,4.3479,4.3479,4.3479,4.3479,4.3479,4.3479,4.3391,4.3391,4.3479,4.3479,4.3462,4.316,4.2939,4.2808,4.2085,4.1512,4.1291,4.1059,4.0744,4.0483,4.0744,4.092,4.0995,4.1018,4.1018,4.1036,4.1036,4.1064,4.1201,4.1402,4.1223,4.1268,4.1291,4.1246,4.1725,4.2183,4.2656,4.316,4.2977,4.3032,4.3214,4.3462,4.3479,4.3479,4.3479,4.3479,4.3479,4.3479,4.3479,4.3479,4.3479,4.3479,4.3479,4.3479,4.3479,4.3479,4.3479,4.3479,4.3479,4.3479,4.3479,4.3496,4.3496,4.3478,4.346,4.3442,4.3461,4.3479,4.3479,4.3479,4.3369,4.3313,4.2506,4.1662,4.0836,4.0065,3.946,3.8909,3.8744,3.8726,3.8707,3.8707,3.8707,3.8707,3.8707,3.8707,3.8707,3.8707,3.8707,3.867,3.8634,3.8469,3.8193,3.8046,3.7533,3.6597,3.5665,3.4871,3.4211,3.3807,3.3752,3.3697,3.3715,3.3568,3.3183,3.2779,3.2706,3.2394,3.1531,3.087,3.0155,4.3479,4.3479,4.3479,4.3479,4.3479,4.3479,4.3479,4.3479,4.3479,4.3479,4.3479,4.3479,4.3479,4.3479,4.3479,4.3339,4.3268,4.325,4.2976,4.2442,4.2121,4.1832,4.1552,4.1281,4.1486,4.1578,4.1621,4.1621,4.1621,4.1599,4.1402,4.111,4.1087,4.1155,4.1087,4.1228,4.1516,4.1686,4.2142,4.2637,4.2635,4.2958,4.3087,4.3196,4.3444,4.3479,4.3479,4.3479,4.3479,4.3479,4.3479,4.3479,4.3479,4.3479,4.3479,4.3479,4.3479,4.3479,4.3479,4.3479,4.3479,4.3479,4.3479,4.3479,4.3479,4.3479,4.3496,4.3496,4.3461,4.3461,4.3479,4.3479,4.3479,4.3479,4.3424,4.3424,4.3039,4.2066,4.113,4.0396,3.9717,3.9239,3.8872,3.8817,3.8707,3.8707,3.8707,3.8707,3.8707,3.8707,3.8707,3.8707,3.8707,3.8707,3.8689,3.867,3.8487,3.845,3.8193,3.7221,3.6303,3.5389,3.4784,3.4266,3.3917,3.377,3.3807,3.3807,3.3715,3.3385,3.3532,3.3238,3.2284,3.1513,3.087]}]]